GFSGL_850_dewp_000.txt.gz
Dewpoint
-10 -11 -12 -13 -14 -15 -15 -15 -13 -13 -15 -11 -10 -9 -9 -9 -8 -8 -7 -7 -7 -7 -7 -7 -6 -6 -5 -7 -7 -7 -7 -7 -7 -7 -7 -6 -1 -3 -1 3 4 4 6
-12 -13 -13 -14 -14 -15 -12 -12 -11 -10 -10 -9 -9 -9 -9 -10 -10 -9 -8 -8 -8 -7 -7 -7 -7 -7 -6 -6 -6 -7 -8 -8 -8 -7 -6 -6 -3 -12 -19 -13 1 2 4
-12 -12 -12 -13 -14 -9 -9 -9 -10 -9 -9 -10 -11 -11 -11 -11 -10 -9 -9 -8 -7 -7 -7 -6 -7 -7 -6 -6 -7 -7 -7 -8 -8 -8 -7 -6 -5 -2 -6 -7 -3 -0 2
-7 -10 -13 -10 -12 -10 -11 -13 -13 -11 -12 -12 -12 -11 -11 -11 -10 -9 -8 -8 -7 -7 -7 -7 -7 -5 -5 -5 -6 -7 -7 -6 -7 -7 -8 -7 -6 -3 -3 -9 0 -1 1
-7 -10 -9 -12 -13 -12 -12 -15 -14 -12 -13 -12 -12 -12 -11 -10 -9 -8 -8 -8 -8 -8 -8 -8 -7 -7 -6 -6 -5 -5 -6 -6 -6 -6 -7 -7 -6 -4 -3 -4 -2 1 1
-10 -9 -10 -13 -12 -12 -16 -14 -13 -13 -13 -13 -12 -11 -10 -9 -9 -9 -9 -9 -9 -9 -9 -8 -9 -8 -8 -8 -8 -6 -5 -4 -4 -5 -6 -6 -7 -5 -2 -2 -1 -0 1
-9 -10 -12 -11 -13 -15 -15 -13 -14 -14 -13 -13 -12 -10 -9 -9 -9 -9 -10 -10 -10 -9 -9 -8 -8 -8 -8 -7 -7 -8 -8 -6 -6 -5 -4 -6 -7 -6 -4 -1 -1 -1 0
-10 -13 -11 -12 -14 -15 -13 -14 -14 -13 -13 -12 -10 -9 -9 -9 -10 -10 -9 -10 -9 -9 -9 -9 -8 -8 -8 -7 -7 -7 -7 -6 -7 -7 -6 -4 -6 -6 -5 -2 -1 -1 -1
-13 -11 -13 -13 -15 -14 -14 -14 -14 -13 -12 -10 -9 -9 -9 -10 -10 -10 -9 -9 -9 -9 -9 -9 -9 -9 -9 -8 -8 -8 -8 -7 -7 -6 -7 -6 -5 -4 -3 -2 -2 -2 -1
-11 -12 -9 -14 -14 -13 -14 -14 -13 -12 -10 -9 -10 -10 -10 -10 -9 -8 -8 -8 -9 -9 -8 -8 -8 -8 -8 -8 -8 -8 -8 -8 -6 -7 -5 -6 -6 -6 -3 -3 -2 -2 -2
-10 -10 -14 -13 -13 -13 -14 -13 -13 -10 -10 -10 -10 -10 -9 -9 -8 -9 -8 -8 -8 -8 -8 -8 -8 -7 -7 -7 -7 -8 -8 -7 -7 -6 -6 -7 -6 -6 -5 -3 -2 -3 -2
-10 -13 -13 -12 -12 -14 -14 -13 -11 -9 -10 -10 -10 -10 -9 -8 -8 -8 -9 -9 -8 -8 -8 -8 -8 -8 -8 -7 -7 -7 -8 -8 -8 -6 -6 -6 -6 -6 -7 -4 -3 -2 -2
-13 -12 -11 -11 -13 -14 -13 -11 -10 -10 -10 -10 -10 -10 -10 -10 -9 -9 -9 -9 -9 -9 -9 -8 -9 -9 -8 -7 -7 -7 -7 -8 -8 -8 -6 -6 -6 -7 -6 -5 -4 -3 -3
-13 -10 -9 -12 -17 -14 -12 -11 -10 -10 -10 -10 -10 -10 -10 -10 -9 -9 -10 -10 -9 -9 -9 -9 -9 -9 -7 -7 -6 -7 -7 -8 -8 -7 -7 -5 -5 -5 -5 -4 -5 -4 -3
-10 -9 -10 -15 -17 -13 -11 -10 -10 -11 -11 -11 -10 -10 -10 -10 -10 -9 -9 -10 -9 -9 -10 -9 -9 -9 -8 -7 -7 -7 -8 -8 -7 -6 -5 -5 -7 -7 -6 -4 -4 -4 -4
-9 -9 -14 -21 -15 -11 -11 -10 -10 -11 -11 -10 -10 -10 -10 -10 -10 -9 -10 -10 -10 -10 -9 -10 -10 -10 -9 -9 -7 -7 -7 -8 -7 -6 -7 -6 -6 -6 -5 -5 -4 -4 -4
-8 -11 -20 -16 -11 -11 -11 -11 -11 -11 -11 -11 -10 -10 -10 -10 -9 -9 -9 -10 -10 -9 -9 -10 -10 -10 -10 -10 -10 -9 -8 -8 -7 -7 -6 -6 -7 -6 -6 -7 -7 -7 -7
-9 -16 -19 -13 -11 -11 -11 -11 -11 -11 -11 -11 -11 -10 -10 -10 -9 -8 -9 -9 -9 -9 -9 -10 -10 -11 -11 -11 -11 -11 -10 -10 -9 -9 -8 -9 -9 -9 -9 -9 -9 -9 -9
-13 -19 -20 -16 -11 -12 -11 -11 -11 -11 -11 -11 -11 -10 -10 -10 -9 -9 -8 -10 -9 -10 -10 -10 -10 -11 -11 -11 -11 -12 -12 -11 -11 -11 -11 -10 -10 -10 -11 -10 -10 -11 -11
-13 -17 -19 -15 -12 -11 -11 -12 -12 -12 -12 -12 -12 -11 -10 -10 -10 -10 -10 -10 -10 -10 -10 -10 -10 -10 -11 -12 -11 -11 -11 -11 -11 -11 -11 -11 -11 -11 -11 -11 -11 -11 -12
-13 -14 -19 -12 -12 -12 -12 -12 -12 -12 -12 -12 -12 -11 -11 -11 -11 -11 -11 -10 -10 -10 -10 -10 -10 -11 -13 -14 -11 -11 -16 -15 -12 -11 -10 -10 -10 -10 -10 -11 -12 -12 -13
-17 -18 -14 -13 -12 -12 -13 -13 -13 -13 -13 -13 -12 -12 -11 -11 -11 -11 -11 -11 -11 -10 -11 -11 -10 -10 -10 -10 -10 -12 -14 -15 -15 -16 -18 -17 -14 -13 -14 -15 -15 -16 -17
-16 -18 -13 -12 -13 -13 -13 -13 -13 -13 -13 -13 -13 -12 -12 -12 -11 -11 -11 -11 -11 -11 -11 -10 -10 -10 -10 -10 -10 -10 -10 -11 -11 -11 -11 -12 -13 -14 -14 -15 -15 -14 -15
-15 -18 -16 -15 -14 -13 -13 -13 -14 -14 -14 -14 -13 -13 -13 -13 -12 -12 -12 -12 -12 -12 -11 -11 -11 -11 -11 -11 -11 -11 -11 -11 -11 -11 -11 -11 -11 -12 -12 -12 -13 -13 -14
-14 -18 -18 -18 -15 -14 -14 -14 -14 -14 -14 -14 -14 -14 -14 -13 -13 -13 -13 -13 -13 -12 -12 -12 -12 -12 -12 -12 -12 -12 -12 -12 -12 -12 -12 -12 -12 -13 -14 -14 -14 -15 -16
-13 -18 -18 -17 -15 -14 -14 -14 -15 -15 -15 -15 -15 -15 -14 -14 -14 -14 -14 -14 -13 -13 -13 -14 -15 -15 -15 -15 -15 -15 -15 -14 -15 -15 -15 -15 -15 -15 -15 -16 -15 -16 -17

GFSGL_850_dewp_003.txt.gz
Dewpoint
-5 -4 -5 -5 -7 -8 -10 -9 -8 -9 -10 -10 -10 -10 -10 -9 -9 -9 -9 -8 -8 -8 -7 -7 -7 -7 -6 -6 -6 -4 -3 -4 -6 -6 -7 -8 -8 -4 -2 0 2 2 4
-5 -5 -6 -7 -10 -8 -8 -7 -8 -8 -9 -9 -9 -9 -10 -10 -10 -9 -9 -9 -9 -9 -9 -8 -8 -8 -7 -7 -6 -5 -4 -4 -6 -7 -7 -8 -8 -6 -6 -2 -1 -7 -5
-6 -6 -7 -8 -7 -6 -7 -8 -8 -9 -9 -9 -10 -10 -10 -10 -10 -10 -10 -9 -9 -9 -8 -8 -7 -7 -7 -7 -7 -6 -5 -5 -6 -6 -7 -8 -9 -8 -6 -3 -1 -2 -18
-7 -8 -6 -6 -6 -7 -7 -7 -8 -8 -9 -10 -10 -11 -10 -10 -10 -10 -10 -9 -9 -8 -7 -7 -7 -7 -7 -6 -5 -5 -5 -5 -5 -6 -7 -7 -7 -8 -8 -4 -2 -2 -9
-6 -5 -4 -5 -6 -6 -7 -8 -8 -9 -10 -11 -11 -11 -11 -10 -11 -10 -9 -8 -8 -8 -8 -8 -8 -8 -7 -8 -6 -5 -4 -4 -5 -5 -6 -6 -6 -6 -7 -5 -1 -1 -6
-3 -3 -5 -6 -6 -7 -8 -8 -9 -11 -12 -12 -11 -11 -11 -11 -10 -9 -9 -8 -8 -9 -9 -9 -9 -8 -9 -9 -9 -8 -7 -6 -5 -4 -4 -5 -5 -6 -6 -6 -3 -3 -1
-3 -4 -5 -7 -8 -8 -9 -9 -11 -12 -12 -11 -11 -11 -10 -9 -9 -8 -9 -9 -9 -9 -9 -9 -9 -8 -8 -8 -9 -8 -9 -9 -8 -7 -5 -4 -4 -5 -6 -6 -4 -2 -2
-4 -6 -8 -8 -8 -8 -9 -12 -12 -12 -12 -11 -11 -10 -9 -8 -9 -10 -9 -9 -9 -9 -9 -9 -9 -9 -9 -8 -8 -8 -8 -8 -9 -9 -8 -6 -5 -4 -2 -3 -4 -2 -2
-8 -8 -9 -9 -8 -10 -12 -12 -12 -12 -11 -11 -10 -9 -9 -9 -9 -9 -9 -9 -9 -9 -9 -9 -8 -8 -8 -8 -8 -8 -8 -7 -7 -8 -8 -7 -7 -7 -4 -3 -2 -1 -2
-8 -9 -9 -9 -10 -12 -12 -11 -12 -12 -11 -10 -9 -9 -9 -10 -10 -9 -8 -8 -8 -8 -8 -9 -9 -8 -8 -8 -8 -8 -8 -8 -8 -8 -7 -8 -7 -9 -7 -5 -4 -2 -2
-10 -8 -9 -10 -12 -11 -12 -12 -12 -11 -10 -10 -10 -10 -10 -10 -9 -9 -9 -9 -9 -9 -9 -9 -8 -8 -8 -8 -8 -7 -8 -8 -8 -7 -7 -7 -8 -8 -10 -7 -5 -3 -2
-9 -9 -10 -11 -10 -11 -12 -13 -11 -10 -10 -10 -10 -11 -11 -10 -10 -9 -9 -9 -9 -9 -9 -9 -9 -8 -8 -8 -8 -8 -8 -7 -8 -8 -7 -7 -6 -7 -7 -6 -4 -3 -2
-9 -10 -10 -9 -10 -12 -13 -12 -11 -11 -10 -10 -11 -11 -11 -11 -10 -10 -9 -9 -9 -9 -9 -9 -9 -9 -9 -9 -8 -7 -8 -8 -7 -8 -7 -7 -7 -7 -7 -6 -6 -5 -4
-9 -9 -9 -9 -11 -12 -11 -11 -11 -10 -10 -10 -11 -11 -11 -11 -10 -10 -10 -10 -10 -10 -9 -9 -9 -9 -8 -7 -6 -6 -7 -8 -7 -8 -8 -6 -7 -6 -7 -7 -6 -5 -4
-9 -9 -8 -10 -11 -11 -10 -11 -11 -10 -10 -11 -11 -11 -11 -11 -10 -10 -10 -10 -10 -10 -9 -9 -9 -8 -8 -7 -6 -6 -7 -7 -7 -8 -7 -6 -5 -5 -5 -5 -6 -5 -5
-10 -7 -8 -11 -11 -10 -11 -11 -10 -10 -11 -11 -11 -11 -11 -11 -10 -10 -9 -9 -9 -9 -9 -9 -9 -9 -9 -8 -7 -7 -7 -8 -8 -7 -6 -6 -6 -5 -5 -6 -5 -5 -5
-10 -9 -11 -10 -10 -10 -11 -11 -10 -11 -11 -11 -11 -11 -11 -10 -10 -9 -9 -9 -9 -9 -9 -10 -10 -10 -10 -10 -9 -7 -7 -7 -7 -7 -6 -6 -6 -6 -8 -7 -6 -7 -6
-9 -10 -10 -10 -10 -10 -10 -10 -11 -10 -11 -11 -11 -11 -10 -10 -10 -9 -9 -9 -9 -10 -10 -10 -10 -11 -11 -11 -10 -9 -8 -7 -7 -7 -6 -7 -7 -7 -7 -7 -8 -8 -8
-10 -10 -13 -15 -10 -10 -10 -11 -11 -11 -11 -11 -11 -11 -10 -10 -10 -9 -9 -9 -10 -9 -10 -10 -10 -11 -11 -11 -11 -11 -10 -9 -9 -9 -8 -8 -8 -8 -8 -8 -8 -8 -9
-10 -10 -12 -11 -10 -10 -11 -11 -11 -11 -11 -12 -12 -12 -11 -11 -11 -10 -10 -10 -10 -10 -10 -10 -10 -10 -11 -11 -11 -11 -11 -11 -10 -10 -10 -10 -9 -9 -9 -10 -10 -10 -10
-9 -10 -11 -10 -10 -11 -11 -11 -11 -11 -11 -12 -12 -12 -12 -12 -11 -11 -11 -10 -10 -11 -11 -11 -11 -10 -11 -11 -11 -11 -11 -11 -11 -11 -11 -11 -11 -11 -11 -11 -11 -11 -11
-9 -10 -10 -10 -11 -11 -11 -11 -12 -12 -12 -12 -12 -13 -12 -12 -12 -11 -11 -11 -11 -11 -11 -11 -11 -11 -11 -11 -11 -11 -11 -11 -12 -12 -11 -11 -12 -12 -12 -12 -12 -12 -12
-10 -11 -11 -10 -11 -11 -11 -12 -12 -13 -13 -13 -13 -13 -13 -13 -12 -12 -12 -12 -11 -11 -11 -11 -11 -11 -12 -11 -11 -11 -12 -12 -12 -12 -12 -12 -12 -12 -12 -13 -13 -13 -14
-10 -11 -11 -11 -11 -12 -12 -12 -13 -13 -13 -14 -13 -13 -13 -13 -13 -13 -13 -12 -12 -12 -12 -12 -12 -12 -11 -11 -11 -12 -12 -12 -12 -12 -12 -12 -12 -12 -12 -13 -13 -13 -13
-10 -11 -11 -12 -12 -12 -12 -13 -13 -13 -13 -14 -14 -14 -14 -14 -14 -13 -13 -13 -13 -13 -13 -13 -13 -13 -13 -12 -12 -12 -12 -12 -12 -12 -12 -12 -12 -13 -13 -13 -13 -13 -13
-10 -11 -12 -12 -12 -13 -13 -13 -13 -14 -14 -14 -15 -15 -15 -15 -14 -14 -14 -14 -15 -17 -19 -19 -19 -18 -17 -17 -16 -15 -15 -16 -16 -15 -13 -13 -14 -14 -14 -14 -14 -15 -15

GFSGL_850_dewp_006.txt.gz
Dewpoint
-2 -2 -2 -4 -3 -3 -5 -6 -3 -4 -4 -4 -6 -12 -14 -13 -12 -10 -9 -9 -9 -9 -9 -8 -8 -8 -8 -8 -7 -6 -5 -5 -4 -4 -4 -4 -5 -6 -10 -7 -5 -4 -3
-3 -4 -4 -4 -4 -6 -7 -6 -4 -4 -4 -7 -10 -9 -10 -10 -10 -9 -9 -10 -9 -9 -9 -9 -9 -8 -7 -7 -7 -7 -6 -6 -5 -4 -4 -3 -4 -6 -7 -11 -8 -4 -3
-4 -5 -5 -5 -6 -7 -6 -5 -3 -5 -7 -8 -8 -9 -10 -10 -10 -10 -10 -10 -10 -9 -9 -9 -9 -8 -8 -7 -7 -6 -6 -6 -5 -5 -4 -4 -4 -5 -6 -8 -11 -8 -4
-5 -6 -6 -7 -7 -5 -5 -5 -5 -7 -8 -8 -8 -9 -11 -12 -11 -10 -10 -10 -10 -9 -9 -8 -7 -7 -6 -6 -6 -6 -6 -5 -4 -4 -4 -4 -4 -5 -6 -7 -8 -11 -9
-6 -7 -6 -5 -4 -3 -4 -5 -7 -7 -8 -9 -10 -12 -11 -11 -10 -10 -11 -11 -10 -10 -9 -9 -9 -8 -8 -8 -7 -8 -7 -6 -6 -5 -5 -3 -4 -4 -5 -6 -7 -7 -7
-6 -4 -2 -1 -3 -3 -5 -7 -8 -8 -9 -11 -11 -11 -11 -10 -10 -10 -10 -9 -9 -8 -8 -9 -10 -10 -9 -9 -9 -9 -9 -9 -7 -7 -6 -5 -4 -3 -4 -5 -5 -6 -6
-2 -1 -2 -2 -4 -6 -7 -8 -8 -9 -11 -12 -12 -11 -11 -10 -10 -9 -9 -9 -9 -10 -10 -10 -9 -9 -9 -9 -9 -9 -9 -9 -9 -9 -8 -7 -6 -5 -3 -3 -4 -5 -4
-1 -2 -3 -5 -7 -7 -8 -8 -11 -12 -11 -11 -11 -11 -10 -10 -10 -10 -11 -10 -9 -9 -9 -9 -9 -9 -10 -9 -9 -8 -8 -8 -8 -8 -8 -9 -10 -8 -7 -3 -3 -3 -3
-3 -6 -8 -7 -8 -8 -9 -11 -12 -11 -11 -11 -11 -11 -11 -10 -10 -11 -10 -9 -9 -8 -9 -8 -8 -8 -8 -9 -8 -8 -8 -9 -9 -8 -7 -8 -8 -9 -9 -9 -5 -4 -3
-6 -7 -8 -9 -8 -10 -11 -11 -11 -12 -12 -11 -11 -9 -10 -11 -11 -10 -9 -9 -9 -8 -9 -9 -9 -10 -9 -8 -8 -8 -8 -9 -9 -9 -9 -8 -8 -8 -8 -6 -7 -6 -5
-8 -10 -10 -9 -10 -11 -10 -11 -12 -12 -11 -11 -9 -10 -11 -11 -11 -10 -9 -9 -9 -9 -9 -9 -9 -9 -9 -9 -8 -7 -8 -8 -8 -8 -8 -8 -8 -9 -9 -9 -7 -6 -7
-10 -10 -9 -10 -10 -9 -10 -12 -12 -11 -11 -10 -11 -11 -11 -11 -11 -10 -10 -10 -9 -9 -9 -9 -9 -9 -9 -8 -8 -8 -8 -8 -8 -8 -7 -8 -8 -8 -9 -8 -7 -8 -8
-9 -9 -10 -11 -10 -10 -11 -11 -11 -11 -10 -11 -10 -11 -11 -11 -10 -10 -10 -10 -9 -10 -9 -9 -9 -9 -9 -8 -9 -8 -8 -8 -8 -8 -8 -7 -8 -9 -7 -6 -6 -6 -5
-12 -11 -12 -9 -9 -10 -11 -10 -10 -11 -11 -10 -11 -11 -11 -11 -11 -11 -10 -9 -9 -9 -9 -9 -8 -8 -8 -8 -7 -6 -6 -6 -7 -8 -8 -8 -8 -7 -6 -5 -6 -4 -4
-13 -12 -9 -8 -10 -11 -10 -10 -10 -10 -11 -11 -11 -11 -11 -11 -11 -10 -9 -9 -9 -9 -9 -9 -9 -9 -10 -9 -7 -7 -8 -7 -7 -8 -8 -8 -7 -7 -6 -5 -6 -5 -5
-12 -11 -10 -11 -11 -9 -10 -10 -11 -12 -12 -11 -11 -11 -11 -11 -10 -10 -9 -8 -9 -9 -10 -10 -10 -10 -10 -9 -8 -7 -7 -7 -8 -8 -8 -7 -6 -5 -5 -5 -5 -6 -6
-12 -10 -10 -10 -10 -10 -10 -11 -12 -12 -12 -12 -11 -11 -11 -11 -10 -10 -9 -9 -9 -10 -10 -10 -11 -11 -11 -10 -9 -8 -7 -7 -7 -7 -8 -6 -6 -6 -5 -6 -6 -6 -6
-11 -10 -9 -10 -13 -11 -11 -11 -11 -11 -12 -12 -11 -11 -11 -11 -10 -10 -10 -10 -10 -10 -10 -10 -10 -11 -10 -11 -10 -9 -8 -7 -7 -7 -6 -6 -6 -7 -7 -7 -7 -7 -7
-9 -9 -10 -10 -11 -10 -10 -12 -11 -12 -12 -11 -12 -12 -11 -11 -11 -10 -10 -10 -11 -11 -10 -11 -10 -11 -11 -11 -10 -10 -10 -9 -8 -8 -7 -7 -7 -7 -7 -8 -8 -8 -8
-8 -8 -9 -10 -10 -11 -12 -12 -12 -13 -12 -12 -12 -12 -12 -12 -12 -11 -11 -11 -11 -11 -11 -11 -11 -11 -11 -11 -11 -11 -11 -10 -10 -9 -9 -9 -8 -8 -8 -8 -8 -8 -8
-8 -9 -9 -10 -11 -11 -11 -13 -12 -13 -12 -12 -12 -13 -12 -12 -13 -13 -12 -12 -12 -12 -11 -11 -12 -11 -11 -11 -11 -11 -11 -11 -11 -11 -11 -10 -10 -9 -10 -9 -10 -10 -10
-9 -9 -10 -10 -10 -12 -12 -11 -12 -13 -13 -12 -13 -13 -13 -13 -13 -13 -13 -13 -12 -12 -12 -12 -12 -12 -12 -12 -12 -12 -11 -11 -11 -12 -12 -11 -11 -10 -10 -10 -11 -11 -11
-9 -10 -10 -11 -11 -12 -12 -13 -13 -14 -13 -13 -13 -14 -13 -13 -13 -13 -13 -13 -13 -12 -12 -12 -12 -12 -12 -12 -12 -12 -12 -12 -11 -11 -12 -12 -12 -12 -12 -12 -12 -12 -12
-9 -10 -10 -11 -12 -12 -12 -13 -13 -14 -13 -14 -14 -14 -14 -14 -14 -14 -13 -13 -13 -13 -12 -12 -12 -12 -12 -12 -12 -12 -12 -12 -12 -12 -12 -12 -12 -12 -13 -13 -13 -13 -13
-9 -10 -10 -11 -12 -12 -13 -13 -13 -14 -14 -14 -14 -15 -15 -15 -14 -14 -14 -14 -13 -13 -16 -18 -17 -17 -16 -14 -13 -13 -12 -12 -13 -13 -12 -12 -13 -13 -13 -13 -13 -13 -13
-9 -10 -10 -11 -12 -12 -13 -13 -14 -14 -14 -14 -15 -15 -15 -15 -15 -15 -15 -15 -18 -23 -24 -25 -25 -24 -24 -22 -20 -18 -18 -17 -16 -14 -14 -14 -14 -14 -14 -14 -14 -14 -14

GFSGL_850_dewp_009.txt.gz
Dewpoint
-2 -3 -4 -3 -3 -3 -2 -4 -5 -3 -0 -3 -2 -5 -6 -8 -9 -11 -10 -9 -9 -9 -9 -9 -9 -9 -8 -8 -7 -7 -7 -7 -6 -6 -6 -6 -6 -6 -6 -7 -5 -6 -9
-4 -4 -4 -4 -4 -3 -4 -5 -6 -6 -5 -3 -5 -6 -8 -9 -8 -9 -9 -9 -10 -10 -10 -10 -9 -9 -9 -9 -8 -8 -7 -7 -6 -6 -6 -6 -6 -5 -5 -6 -6 -5 -6
-4 -4 -4 -5 -5 -5 -6 -7 -6 -5 -4 -7 -7 -8 -8 -8 -8 -10 -12 -12 -11 -10 -10 -10 -10 -9 -9 -9 -9 -8 -7 -7 -6 -6 -5 -4 -4 -5 -4 -5 -6 -6 -6
-5 -5 -5 -6 -7 -7 -7 -5 -5 -5 -6 -7 -8 -8 -8 -9 -12 -11 -11 -10 -10 -10 -9 -9 -9 -9 -8 -8 -8 -7 -7 -6 -6 -6 -6 -6 -5 -5 -5 -4 -5 -5 -6
-5 -6 -7 -7 -6 -5 -4 -3 -4 -6 -7 -7 -8 -8 -10 -12 -11 -11 -10 -10 -10 -10 -10 -10 -10 -10 -10 -10 -10 -10 -9 -8 -7 -7 -7 -6 -7 -6 -5 -4 -3 -5 -5
-4 -5 -5 -3 -2 -2 -2 -3 -4 -7 -8 -8 -9 -12 -11 -11 -11 -10 -10 -10 -9 -9 -9 -9 -10 -11 -11 -11 -11 -10 -10 -9 -9 -8 -8 -7 -7 -7 -6 -5 -3 -3 -4
0 -0 -1 -1 -2 -4 -4 -6 -7 -8 -8 -11 -12 -12 -12 -11 -10 -10 -10 -11 -11 -11 -10 -10 -9 -9 -9 -9 -10 -10 -10 -10 -9 -9 -8 -8 -8 -8 -8 -8 -7 -5 -3
-0 -2 -4 -4 -4 -7 -7 -8 -8 -9 -11 -12 -13 -12 -11 -11 -11 -11 -11 -10 -10 -10 -10 -10 -10 -10 -10 -10 -8 -8 -9 -9 -9 -9 -9 -9 -8 -8 -8 -8 -9 -8 -5
-4 -4 -7 -7 -7 -8 -9 -9 -10 -11 -12 -12 -12 -12 -11 -11 -10 -12 -11 -10 -10 -10 -10 -10 -10 -8 -10 -10 -9 -8 -9 -9 -9 -10 -10 -9 -9 -8 -7 -7 -7 -7 -7
-6 -7 -7 -8 -10 -9 -10 -11 -11 -11 -11 -12 -12 -10 -9 -11 -12 -12 -11 -9 -10 -10 -10 -10 -10 -10 -10 -10 -9 -8 -9 -9 -9 -9 -9 -9 -9 -9 -8 -7 -7 -7 -7
-7 -8 -9 -10 -10 -10 -10 -11 -11 -11 -12 -10 -10 -11 -11 -12 -12 -11 -10 -10 -10 -10 -9 -9 -10 -9 -9 -9 -9 -9 -9 -9 -8 -8 -8 -8 -8 -9 -8 -8 -8 -7 -7
-8 -9 -11 -11 -11 -12 -11 -10 -11 -11 -10 -10 -11 -12 -13 -12 -11 -11 -10 -10 -9 -9 -9 -9 -9 -9 -9 -9 -9 -9 -8 -8 -8 -8 -8 -8 -8 -8 -8 -9 -9 -8 -8
-9 -12 -14 -13 -12 -10 -9 -12 -11 -10 -10 -10 -11 -12 -12 -11 -11 -11 -11 -10 -9 -9 -9 -9 -9 -9 -9 -9 -9 -9 -8 -8 -8 -8 -9 -8 -8 -9 -8 -7 -7 -7 -7
-13 -14 -12 -12 -10 -10 -12 -10 -10 -10 -10 -11 -11 -11 -11 -11 -12 -11 -10 -10 -9 -9 -9 -9 -11 -10 -10 -9 -9 -8 -7 -7 -6 -7 -8 -8 -8 -8 -8 -8 -7 -7 -6
-10 -12 -12 -11 -11 -12 -12 -10 -10 -12 -12 -11 -11 -10 -11 -11 -11 -10 -10 -9 -9 -10 -11 -12 -11 -11 -10 -9 -7 -8 -8 -8 -7 -7 -8 -8 -8 -8 -7 -7 -6 -6 -6
-13 -13 -11 -11 -11 -12 -13 -11 -12 -11 -11 -13 -11 -11 -11 -11 -10 -10 -10 -9 -9 -10 -10 -11 -11 -11 -10 -9 -8 -7 -7 -7 -8 -8 -8 -8 -8 -7 -7 -7 -6 -6 -5
-13 -12 -11 -10 -10 -12 -12 -10 -12 -11 -12 -13 -11 -11 -11 -11 -11 -11 -10 -9 -10 -10 -11 -10 -11 -11 -11 -10 -9 -8 -7 -7 -7 -8 -8 -7 -7 -6 -6 -6 -6 -5 -6
-10 -8 -8 -9 -9 -11 -11 -11 -12 -11 -13 -12 -11 -12 -11 -12 -11 -11 -10 -10 -10 -11 -11 -11 -11 -11 -11 -10 -10 -9 -8 -7 -7 -6 -6 -7 -6 -6 -6 -6 -6 -6 -6
-8 -8 -8 -9 -10 -11 -11 -11 -13 -12 -14 -12 -12 -12 -12 -12 -12 -11 -11 -11 -11 -11 -11 -11 -11 -11 -11 -11 -10 -10 -9 -9 -8 -7 -7 -7 -7 -7 -7 -7 -8 -7 -7
-9 -8 -9 -9 -10 -11 -11 -12 -13 -12 -14 -12 -12 -13 -13 -12 -12 -12 -12 -12 -12 -12 -12 -12 -12 -12 -12 -11 -11 -11 -11 -11 -10 -9 -9 -8 -8 -8 -8 -8 -8 -8 -8
-9 -9 -10 -10 -10 -10 -11 -12 -12 -13 -14 -13 -13 -13 -13 -13 -13 -13 -13 -13 -12 -12 -12 -12 -12 -12 -12 -12 -12 -11 -12 -11 -12 -11 -10 -10 -9 -8 -8 -8 -9 -9 -9
-9 -10 -10 -11 -11 -11 -12 -12 -13 -14 -14 -14 -13 -14 -13 -13 -13 -14 -13 -13 -13 -13 -12 -12 -12 -12 -12 -12 -12 -12 -12 -12 -12 -12 -11 -11 -10 -10 -10 -9 -9 -10 -10
-9 -9 -10 -11 -11 -12 -12 -13 -13 -13 -14 -14 -14 -14 -14 -14 -14 -14 -14 -14 -13 -13 -13 -12 -12 -12 -12 -12 -12 -12 -12 -12 -12 -12 -12 -12 -12 -12 -11 -11 -11 -11 -11
-9 -9 -10 -11 -11 -12 -13 -13 -13 -14 -14 -14 -15 -15 -15 -15 -15 -14 -14 -14 -14 -14 -15 -16 -16 -14 -13 -13 -13 -13 -12 -12 -12 -12 -12 -12 -12 -12 -12 -12 -12 -12 -12
-9 -9 -10 -11 -12 -12 -12 -13 -13 -14 -14 -14 -15 -15 -15 -15 -15 -15 -15 -15 -17 -23 -24 -23 -23 -21 -19 -18 -18 -16 -14 -13 -13 -13 -13 -13 -13 -13 -13 -13 -13 -13 -13
-9 -10 -10 -11 -12 -12 -13 -14 -14 -14 -15 -14 -15 -16 -16 -15 -15 -15 -16 -23 -28 -31 -33 -33 -33 -34 -33 -32 -29 -24 -21 -19 -17 -15 -16 -16 -15 -14 -13 -13 -13 -13 -14

GFSGL_850_dewp_012.txt.gz
Dewpoint
-1 -0 -1 -3 -4 -4 -3 -3 -4 -5 -5 -2 -1 -4 -5 -8 -8 -8 -8 -8 -8 -9 -9 -9 -10 -10 -10 -10 -9 -9 -9 -8 -7 -6 -7 -6 -6 -6 -6 -7 -10 -9 -6
-0 -1 -2 -4 -4 -3 -3 -4 -5 -5 -3 -5 -6 -9 -9 -8 -8 -8 -8 -8 -9 -11 -13 -13 -12 -11 -10 -10 -10 -9 -9 -9 -9 -7 -7 -7 -6 -6 -5 -5 -6 -7 -11
1 -3 -4 -4 -4 -4 -5 -5 -6 -6 -5 -6 -9 -8 -8 -8 -8 -9 -9 -11 -12 -11 -11 -10 -10 -10 -10 -10 -9 -9 -8 -8 -7 -7 -6 -6 -7 -7 -7 -7 -7 -7 -7
-1 -3 -5 -5 -5 -6 -6 -6 -5 -5 -5 -7 -8 -8 -8 -8 -9 -11 -12 -11 -11 -10 -10 -10 -10 -10 -10 -10 -10 -10 -10 -9 -9 -8 -8 -7 -7 -7 -7 -7 -7 -9 -9
-1 -2 -5 -6 -5 -4 -4 -3 -3 -2 -4 -8 -8 -8 -8 -10 -12 -11 -11 -11 -10 -10 -10 -10 -11 -11 -10 -10 -10 -10 -10 -10 -10 -9 -8 -8 -8 -8 -7 -7 -8 -8 -8
-0 0 -1 -1 -1 -2 -1 -3 -6 -8 -8 -7 -8 -9 -11 -12 -13 -12 -10 -10 -10 -11 -12 -12 -11 -11 -11 -10 -10 -10 -10 -10 -10 -9 -9 -8 -8 -9 -9 -9 -9 -7 -5
-0 -1 -1 -1 -3 -6 -7 -7 -7 -7 -8 -9 -11 -11 -12 -12 -11 -11 -11 -11 -12 -12 -11 -10 -10 -10 -10 -10 -11 -10 -10 -10 -9 -8 -9 -9 -9 -9 -9 -9 -9 -8 -8
-4 -3 -3 -4 -5 -7 -8 -8 -8 -9 -11 -11 -11 -12 -12 -12 -12 -11 -11 -12 -12 -11 -10 -10 -10 -11 -11 -10 -9 -9 -9 -11 -10 -10 -9 -9 -9 -9 -9 -9 -8 -8 -9
-4 -4 -5 -7 -7 -9 -9 -10 -10 -11 -11 -12 -12 -12 -12 -11 -11 -12 -12 -12 -11 -11 -11 -11 -11 -10 -10 -10 -9 -9 -9 -10 -11 -11 -10 -10 -9 -8 -8 -8 -8 -8 -8
-5 -4 -5 -6 -8 -10 -11 -10 -11 -12 -11 -12 -12 -11 -11 -12 -13 -13 -12 -10 -10 -11 -10 -10 -10 -10 -10 -9 -9 -9 -9 -10 -9 -10 -9 -9 -9 -8 -8 -8 -8 -8 -7
-7 -7 -8 -10 -11 -11 -12 -12 -11 -11 -13 -12 -11 -11 -13 -13 -13 -12 -11 -10 -10 -10 -9 -9 -10 -10 -9 -9 -9 -9 -9 -10 -9 -8 -9 -9 -9 -9 -8 -8 -8 -8 -8
-8 -9 -12 -13 -14 -13 -12 -10 -11 -13 -11 -10 -11 -13 -13 -13 -12 -12 -11 -10 -10 -9 -9 -9 -9 -9 -10 -9 -9 -8 -8 -8 -8 -8 -8 -9 -9 -9 -10 -9 -8 -8 -8
-9 -12 -14 -13 -13 -11 -10 -12 -12 -11 -10 -11 -12 -13 -12 -12 -13 -11 -11 -10 -9 -9 -9 -10 -11 -11 -11 -10 -10 -9 -9 -9 -8 -8 -8 -9 -9 -10 -10 -8 -8 -8 -8
-9 -9 -12 -13 -13 -11 -12 -13 -11 -11 -12 -12 -13 -12 -11 -12 -12 -11 -10 -10 -9 -9 -10 -12 -12 -11 -10 -9 -8 -7 -7 -7 -8 -8 -8 -7 -8 -8 -8 -9 -8 -8 -7
-9 -14 -14 -13 -11 -11 -12 -12 -12 -12 -12 -12 -13 -11 -11 -12 -11 -11 -11 -10 -9 -9 -10 -11 -12 -12 -10 -9 -8 -7 -8 -7 -8 -7 -7 -8 -8 -8 -8 -8 -8 -8 -7
-14 -13 -12 -11 -10 -10 -11 -12 -11 -12 -12 -13 -12 -11 -12 -11 -11 -11 -11 -10 -10 -10 -11 -12 -12 -11 -10 -10 -9 -8 -8 -8 -7 -8 -9 -9 -9 -9 -8 -8 -8 -8 -7
-13 -11 -9 -8 -9 -10 -11 -11 -12 -12 -13 -13 -12 -12 -12 -12 -12 -11 -11 -10 -10 -10 -11 -12 -12 -12 -11 -10 -10 -9 -8 -8 -7 -8 -7 -8 -7 -7 -7 -7 -7 -7 -7
-11 -10 -9 -9 -9 -10 -11 -11 -11 -13 -13 -14 -13 -13 -12 -12 -12 -11 -11 -11 -10 -11 -11 -11 -12 -12 -11 -11 -10 -10 -10 -9 -8 -7 -7 -7 -6 -6 -6 -7 -6 -6 -6
-10 -9 -9 -9 -10 -10 -11 -11 -12 -12 -13 -14 -13 -13 -13 -12 -12 -12 -12 -11 -12 -12 -12 -12 -12 -12 -12 -12 -12 -11 -11 -10 -9 -8 -8 -7 -7 -8 -8 -7 -7 -7 -6
-10 -9 -9 -10 -10 -11 -11 -12 -12 -13 -13 -14 -13 -14 -13 -13 -13 -12 -12 -12 -12 -12 -12 -12 -12 -12 -12 -12 -12 -12 -12 -12 -11 -10 -9 -9 -8 -8 -8 -9 -9 -8 -8
-9 -9 -10 -10 -11 -11 -12 -12 -13 -13 -14 -14 -13 -14 -14 -13 -13 -13 -13 -13 -13 -13 -12 -12 -12 -12 -12 -12 -12 -13 -12 -12 -12 -11 -11 -10 -9 -9 -8 -8 -8 -9 -9
-9 -9 -10 -10 -11 -12 -12 -12 -13 -13 -14 -14 -14 -14 -14 -14 -14 -14 -14 -14 -14 -13 -13 -13 -13 -12 -12 -12 -12 -13 -13 -13 -12 -12 -12 -12 -11 -10 -10 -9 -9 -9 -10
-8 -9 -10 -10 -11 -12 -12 -13 -13 -13 -14 -14 -15 -15 -15 -15 -14 -14 -14 -14 -14 -14 -14 -13 -13 -13 -12 -12 -13 -13 -13 -12 -12 -12 -12 -12 -12 -12 -11 -11 -11 -10 -10
-8 -9 -10 -11 -11 -12 -12 -13 -13 -14 -14 -14 -15 -15 -15 -15 -15 -15 -15 -15 -15 -19 -20 -19 -18 -17 -16 -15 -15 -15 -15 -14 -13 -13 -12 -13 -13 -13 -13 -13 -12 -12 -12
-9 -10 -11 -11 -12 -12 -12 -13 -14 -14 -14 -14 -15 -16 -16 -15 -15 -15 -15 -17 -28 -32 -32 -32 -32 -28 -24 -21 -20 -19 -17 -17 -17 -17 -15 -13 -13 -13 -13 -13 -13 -13 -13
-10 -10 -11 -11 -12 -12 -12 -13 -14 -15 -15 -15 -15 -16 -16 -16 -15 -16 -21 -28 -31 -33 -34 -34 -34 -34 -34 -34 -33 -28 -24 -22 -21 -19 -20 -20 -17 -14 -13 -14 -14 -14 -14

GFSGL_850_dewp_015.txt.gz
Dewpoint
-2 -0 0 -4 -4 -4 -4 -4 -4 -4 -4 -5 -4 -2 -2 -8 -8 -8 -8 -8 -8 -8 -8 -9 -12 -14 -15 -15 -13 -12 -11 -10 -9 -8 -8 -9 -10 -10 -11 -13 -13 -13 -15
0 1 -0 -2 -4 -4 -3 -4 -4 -5 -3 -2 -3 -6 -9 -8 -8 -8 -7 -8 -9 -10 -12 -14 -14 -14 -14 -12 -11 -10 -10 -10 -9 -8 -8 -8 -8 -9 -9 -8 -8 -8 -8
1 -1 -1 -2 -4 -4 -5 -5 -5 -5 -4 -4 -7 -8 -7 -7 -8 -8 -8 -9 -11 -13 -12 -12 -12 -11 -10 -10 -10 -10 -10 -10 -9 -9 -8 -7 -8 -9 -9 -9 -10 -12 -14
-1 -1 -3 -2 -4 -5 -6 -5 -5 -4 -4 -4 -3 -5 -7 -8 -8 -9 -11 -13 -13 -13 -12 -11 -11 -10 -11 -11 -11 -11 -11 -11 -11 -10 -9 -8 -8 -8 -9 -9 -9 -10 -11
-2 -4 -1 -1 -3 -4 -3 -3 -3 -3 -4 -7 -8 -7 -8 -8 -10 -12 -13 -13 -12 -12 -12 -12 -12 -13 -13 -12 -11 -11 -9 -8 -8 -8 -8 -8 -8 -9 -9 -9 -9 -10 -10
-4 -4 -1 -1 -2 -2 -3 -4 -5 -5 -5 -6 -7 -8 -10 -12 -12 -13 -12 -12 -12 -12 -13 -13 -13 -12 -12 -11 -11 -10 -10 -9 -9 -9 -9 -9 -9 -9 -9 -9 -9 -10 -9
-5 -5 -4 -4 -4 -4 -4 -4 -5 -5 -7 -9 -10 -11 -12 -13 -12 -13 -13 -12 -12 -13 -12 -13 -12 -11 -11 -11 -11 -11 -11 -11 -10 -9 -9 -9 -9 -9 -9 -9 -9 -9 -9
-2 -2 -2 -3 -3 -5 -8 -8 -9 -10 -10 -11 -12 -13 -12 -13 -13 -13 -14 -14 -13 -13 -12 -11 -11 -11 -11 -10 -10 -9 -10 -10 -10 -10 -9 -9 -10 -9 -9 -9 -9 -9 -9
-2 -3 -5 -5 -5 -6 -7 -10 -11 -11 -12 -13 -12 -13 -13 -14 -15 -16 -13 -13 -12 -11 -11 -11 -10 -10 -10 -10 -9 -9 -9 -10 -10 -10 -10 -10 -10 -10 -9 -9 -8 -8 -8
-5 -6 -7 -7 -9 -10 -11 -12 -13 -12 -12 -12 -14 -13 -14 -15 -15 -13 -13 -12 -10 -10 -11 -11 -10 -9 -10 -9 -9 -9 -9 -10 -9 -9 -10 -9 -9 -9 -9 -9 -8 -8 -8
-5 -6 -9 -11 -14 -14 -13 -12 -11 -11 -13 -13 -14 -14 -15 -14 -13 -13 -13 -10 -10 -10 -10 -10 -10 -10 -10 -10 -10 -10 -10 -9 -9 -9 -9 -9 -9 -9 -9 -9 -9 -8 -8
-5 -9 -10 -11 -13 -13 -12 -12 -12 -13 -14 -14 -14 -15 -15 -14 -13 -13 -11 -10 -10 -10 -9 -9 -10 -11 -11 -12 -12 -11 -10 -10 -9 -8 -8 -9 -9 -9 -9 -10 -9 -8 -8
-8 -8 -8 -12 -14 -13 -11 -12 -13 -13 -13 -13 -12 -13 -14 -13 -13 -12 -12 -11 -11 -10 -9 -10 -10 -11 -12 -10 -9 -9 -9 -8 -8 -8 -8 -8 -8 -8 -8 -9 -8 -8 -8
-8 -9 -13 -13 -13 -11 -11 -11 -13 -12 -12 -12 -12 -13 -12 -13 -13 -12 -11 -11 -11 -10 -10 -10 -11 -11 -10 -9 -9 -8 -8 -8 -8 -8 -8 -8 -8 -8 -9 -8 -8 -8 -8
-13 -13 -13 -12 -11 -11 -10 -11 -11 -12 -12 -12 -13 -12 -11 -13 -12 -11 -11 -11 -11 -10 -10 -10 -12 -12 -11 -10 -9 -8 -8 -8 -8 -8 -8 -8 -8 -8 -9 -9 -8 -8 -8
-12 -12 -11 -10 -9 -10 -10 -11 -11 -12 -12 -13 -14 -12 -13 -12 -12 -12 -11 -11 -11 -10 -11 -11 -12 -12 -11 -11 -10 -10 -9 -9 -8 -8 -8 -8 -8 -8 -8 -8 -8 -8 -8
-11 -12 -11 -9 -9 -10 -10 -11 -12 -12 -13 -13 -14 -13 -13 -12 -12 -12 -11 -11 -11 -11 -11 -12 -12 -12 -12 -11 -11 -10 -10 -9 -8 -8 -8 -8 -7 -8 -8 -8 -7 -7 -7
-9 -10 -10 -10 -10 -10 -11 -11 -11 -12 -12 -14 -15 -14 -13 -13 -13 -12 -12 -12 -11 -11 -12 -12 -12 -11 -12 -12 -12 -12 -11 -10 -9 -8 -8 -7 -7 -7 -7 -7 -7 -7 -7
-8 -9 -10 -10 -10 -11 -11 -11 -12 -13 -13 -14 -15 -14 -14 -13 -13 -13 -12 -12 -12 -12 -12 -12 -12 -12 -12 -12 -12 -12 -12 -11 -10 -9 -9 -8 -8 -9 -8 -8 -8 -8 -7
-8 -9 -10 -10 -10 -11 -11 -12 -13 -13 -13 -14 -14 -14 -14 -14 -13 -13 -13 -13 -13 -13 -13 -13 -12 -12 -12 -12 -12 -12 -12 -12 -12 -11 -10 -10 -9 -9 -9 -9 -9 -9 -9
-8 -9 -9 -10 -10 -11 -12 -13 -13 -13 -13 -14 -14 -15 -14 -14 -14 -14 -14 -13 -13 -13 -13 -13 -13 -12 -12 -12 -12 -12 -12 -12 -12 -12 -12 -11 -10 -10 -10 -10 -10 -10 -9
-9 -9 -9 -10 -10 -11 -12 -12 -13 -13 -13 -14 -15 -15 -15 -15 -15 -14 -14 -14 -14 -14 -14 -14 -13 -13 -13 -13 -13 -13 -12 -12 -12 -12 -12 -12 -12 -11 -11 -11 -10 -10 -10
-9 -9 -9 -10 -11 -12 -12 -13 -13 -14 -14 -14 -15 -15 -15 -15 -15 -15 -15 -15 -14 -14 -16 -18 -16 -15 -15 -14 -14 -15 -15 -14 -13 -12 -13 -13 -13 -12 -12 -12 -11 -11 -11
-9 -9 -10 -10 -11 -12 -12 -13 -13 -14 -14 -15 -15 -16 -16 -16 -16 -16 -15 -15 -21 -30 -31 -32 -28 -24 -21 -20 -19 -17 -16 -16 -16 -15 -13 -13 -13 -13 -13 -13 -12 -12 -12
-9 -10 -10 -11 -11 -12 -12 -13 -14 -14 -15 -15 -15 -16 -17 -16 -16 -15 -16 -23 -31 -33 -34 -34 -34 -33 -32 -30 -26 -23 -20 -19 -20 -21 -20 -16 -14 -14 -14 -13 -13 -13 -13
-10 -10 -10 -11 -11 -12 -12 -12 -13 -15 -15 -15 -16 -19 -18 -20 -20 -17 -21 -29 -32 -33 -35 -35 -35 -35 -35 -35 -34 -33 -32 -31 -28 -27 -25 -24 -23 -18 -15 -14 -14 -14 -14

GFSGL_850_dewp_018.txt.gz
Dewpoint
-8 -6 -4 -4 -4 -4 -4 -4 -3 -3 -3 -3 -3 -2 -2 -2 -8 -8 -7 -7 -7 -8 -8 -10 -11 -13 -15 -15 -15 -14 -13 -11 -9 -10 -10 -11 -12 -11 -11 -14 -13 -14 -17
-4 -2 -3 -4 -5 -4 -3 -4 -4 -4 -3 -3 -2 -3 -5 -7 -7 -7 -7 -7 -8 -9 -10 -13 -16 -16 -15 -14 -13 -12 -11 -10 -9 -9 -9 -9 -10 -11 -9 -10 -11 -10 -13
-1 -1 -2 -4 -5 -2 -4 -5 -4 -3 -3 -3 -2 -3 -4 -5 -6 -8 -8 -9 -10 -13 -14 -15 -15 -14 -12 -11 -11 -11 -11 -11 -11 -10 -10 -10 -10 -12 -12 -12 -14 -14 -14
0 -1 -4 -5 -3 -4 -5 -5 -4 -3 -3 -3 -4 -7 -6 -7 -8 -9 -10 -12 -13 -15 -15 -14 -13 -12 -12 -13 -13 -14 -14 -12 -11 -10 -9 -9 -9 -9 -9 -9 -11 -13 -13
-1 -2 -4 -5 -2 -2 -3 -3 -3 -4 -5 -6 -7 -6 -6 -6 -9 -12 -13 -14 -14 -15 -16 -16 -15 -16 -15 -14 -12 -11 -10 -9 -9 -9 -10 -10 -9 -9 -10 -10 -10 -11 -11
-3 -3 -4 -3 -2 -4 -4 -3 -4 -4 -3 -4 -5 -8 -10 -11 -13 -13 -13 -14 -15 -14 -14 -15 -14 -13 -13 -12 -12 -11 -11 -9 -9 -9 -9 -9 -9 -9 -9 -9 -9 -10 -10
-2 -1 -1 -2 -2 -3 -4 -6 -7 -7 -8 -9 -10 -11 -13 -13 -13 -14 -15 -16 -17 -16 -14 -13 -12 -11 -11 -11 -11 -10 -10 -10 -10 -9 -9 -9 -9 -9 -9 -9 -9 -9 -10
-3 -2 -2 -5 -6 -6 -7 -6 -8 -10 -11 -12 -12 -12 -13 -14 -14 -16 -17 -16 -13 -13 -13 -11 -11 -11 -11 -10 -9 -10 -9 -10 -10 -10 -10 -10 -10 -10 -9 -9 -9 -9 -9
-6 -6 -6 -6 -7 -8 -10 -11 -12 -12 -12 -11 -12 -13 -13 -15 -16 -17 -14 -13 -13 -13 -11 -11 -11 -10 -9 -10 -10 -10 -10 -10 -11 -10 -9 -9 -9 -9 -9 -9 -9 -9 -9
-7 -6 -7 -9 -10 -12 -13 -13 -12 -11 -11 -12 -13 -13 -14 -14 -16 -15 -13 -13 -11 -11 -11 -11 -10 -9 -9 -10 -10 -10 -10 -9 -9 -10 -10 -9 -9 -10 -9 -9 -9 -9 -9
-5 -6 -7 -8 -9 -10 -13 -12 -12 -12 -12 -13 -14 -14 -14 -15 -16 -14 -13 -11 -11 -11 -10 -10 -10 -9 -10 -11 -11 -10 -11 -11 -11 -10 -9 -9 -9 -9 -10 -10 -9 -9 -9
-7 -7 -8 -8 -12 -13 -13 -12 -12 -12 -13 -13 -13 -14 -15 -15 -15 -13 -12 -11 -11 -11 -10 -10 -10 -10 -11 -12 -10 -10 -10 -9 -9 -9 -9 -9 -9 -9 -9 -9 -9 -9 -9
-7 -8 -9 -13 -13 -12 -11 -11 -11 -11 -12 -12 -13 -13 -14 -14 -14 -13 -12 -12 -11 -11 -10 -10 -10 -11 -12 -11 -9 -9 -9 -8 -8 -8 -8 -9 -8 -8 -8 -8 -8 -9 -9
-8 -11 -12 -12 -12 -10 -10 -10 -11 -11 -12 -12 -13 -13 -13 -13 -14 -12 -12 -12 -12 -11 -11 -11 -11 -11 -11 -10 -10 -9 -9 -8 -8 -8 -8 -8 -8 -8 -8 -9 -9 -9 -9
-12 -11 -11 -12 -11 -10 -9 -10 -11 -11 -12 -12 -13 -14 -13 -13 -13 -12 -12 -12 -12 -11 -11 -11 -11 -12 -12 -12 -11 -10 -9 -9 -9 -9 -9 -8 -8 -9 -9 -9 -9 -9 -8
-11 -10 -10 -11 -11 -10 -10 -11 -11 -11 -12 -12 -13 -14 -13 -13 -13 -13 -12 -12 -12 -11 -11 -11 -12 -12 -12 -12 -12 -11 -10 -9 -9 -9 -8 -8 -8 -8 -8 -8 -9 -9 -8
-9 -9 -8 -10 -10 -10 -11 -11 -11 -12 -13 -14 -15 -15 -14 -13 -13 -13 -12 -12 -12 -12 -12 -12 -12 -12 -12 -12 -12 -11 -11 -10 -9 -9 -8 -8 -8 -8 -8 -8 -8 -8 -8
-7 -8 -8 -9 -10 -10 -11 -11 -12 -12 -13 -15 -15 -15 -14 -14 -13 -13 -13 -12 -12 -12 -12 -12 -12 -12 -12 -12 -12 -12 -12 -11 -10 -10 -9 -8 -8 -8 -9 -8 -8 -8 -7
-7 -8 -9 -10 -10 -10 -11 -12 -12 -13 -13 -14 -15 -16 -15 -14 -14 -13 -13 -13 -13 -13 -13 -13 -13 -13 -13 -12 -12 -12 -12 -12 -11 -11 -10 -10 -9 -9 -9 -9 -8 -9 -8
-9 -8 -9 -10 -10 -10 -11 -12 -13 -13 -14 -14 -14 -15 -16 -15 -14 -14 -14 -14 -14 -14 -13 -13 -13 -13 -13 -13 -13 -12 -12 -12 -12 -12 -11 -11 -10 -10 -10 -10 -9 -9 -9
-9 -9 -9 -9 -10 -11 -11 -12 -13 -13 -14 -14 -14 -15 -15 -15 -15 -15 -15 -14 -14 -14 -14 -14 -13 -13 -13 -14 -14 -14 -13 -12 -12 -12 -12 -12 -11 -11 -11 -10 -10 -10 -10
-10 -9 -9 -9 -10 -11 -11 -12 -13 -14 -14 -15 -15 -15 -16 -15 -15 -15 -15 -15 -15 -14 -14 -17 -18 -17 -17 -17 -16 -16 -16 -15 -13 -13 -12 -12 -12 -12 -11 -11 -11 -11 -11
-9 -9 -9 -10 -10 -11 -12 -12 -13 -14 -14 -15 -15 -16 -16 -16 -16 -16 -16 -15 -17 -23 -31 -32 -28 -25 -22 -20 -18 -17 -17 -18 -18 -14 -13 -13 -13 -13 -12 -12 -12 -12 -12
-9 -9 -10 -11 -11 -11 -12 -12 -13 -15 -15 -15 -16 -17 -17 -16 -16 -16 -16 -24 -31 -33 -33 -33 -33 -32 -31 -28 -24 -22 -20 -19 -21 -20 -16 -14 -13 -13 -13 -13 -13 -13 -13
-10 -10 -10 -11 -11 -11 -12 -12 -12 -13 -15 -16 -16 -19 -20 -18 -16 -16 -17 -27 -32 -33 -35 -35 -35 -35 -34 -33 -32 -31 -29 -26 -27 -24 -23 -23 -18 -15 -14 -14 -14 -14 -13
-10 -10 -10 -11 -11 -11 -11 -12 -12 -13 -14 -15 -16 -22 -24 -27 -29 -22 -17 -16 -27 -33 -34 -36 -35 -35 -34 -34 -34 -34 -34 -34 -33 -33 -30 -30 -32 -30 -27 -22 -19 -17 -16

GFSGL_850_dewp_021.txt.gz
Dewpoint
0 -0 -0 -0 -2 -4 -6 -4 -4 -3 -2 -1 -2 -3 -2 -3 -4 -4 -5 -5 -6 -7 -8 -9 -10 -11 -12 -10 -9 -9 -9 -9 -9 -10 -9 -9 -8 -8 -8 -8 -8 -7 -8
0 1 0 -2 -4 -5 -6 -3 -4 -2 -2 -3 -3 -3 -3 -4 -4 -5 -6 -7 -8 -9 -10 -12 -14 -14 -11 -9 -9 -8 -8 -8 -8 -9 -9 -9 -8 -8 -8 -8 -8 -9 -9
1 1 -1 -4 -4 -5 -3 -3 -4 -3 -3 -3 -3 -5 -7 -6 -6 -7 -8 -9 -10 -12 -14 -15 -15 -14 -11 -9 -9 -9 -9 -10 -10 -10 -10 -10 -10 -9 -9 -8 -8 -8 -8
0 -1 -2 -4 -4 -3 -3 -3 -3 -3 -4 -5 -5 -6 -7 -6 -6 -7 -9 -11 -14 -15 -15 -15 -14 -13 -11 -10 -10 -10 -10 -10 -9 -9 -9 -9 -9 -9 -8 -8 -8 -7 -7
-1 -3 -2 -2 -2 -3 -4 -3 -4 -5 -6 -6 -4 -4 -5 -8 -10 -11 -13 -14 -14 -16 -17 -17 -16 -17 -17 -15 -11 -9 -9 -8 -8 -9 -8 -9 -9 -9 -8 -8 -8 -8 -8
-3 -2 -2 -2 -2 -2 -4 -7 -6 -6 -7 -8 -9 -10 -10 -11 -13 -13 -14 -15 -16 -17 -12 -12 -14 -13 -11 -12 -11 -11 -10 -9 -9 -9 -8 -9 -9 -9 -9 -9 -9 -8 -8
-4 -4 -3 -5 -6 -6 -6 -6 -7 -9 -10 -10 -11 -12 -13 -13 -13 -14 -15 -16 -15 -12 -12 -11 -10 -10 -10 -10 -10 -10 -9 -9 -10 -10 -9 -9 -9 -9 -9 -8 -8 -8 -8
-5 -6 -6 -6 -7 -8 -10 -12 -13 -14 -13 -12 -12 -12 -13 -14 -14 -15 -16 -16 -11 -11 -12 -10 -10 -10 -10 -10 -9 -10 -10 -9 -9 -9 -9 -9 -9 -9 -9 -9 -8 -8 -9
-4 -7 -5 -7 -8 -9 -9 -10 -13 -13 -13 -13 -13 -13 -13 -14 -14 -15 -15 -11 -11 -12 -10 -10 -10 -10 -10 -10 -10 -10 -9 -9 -9 -10 -10 -9 -9 -10 -9 -9 -9 -9 -9
-4 -5 -7 -8 -8 -8 -11 -13 -13 -12 -12 -12 -13 -13 -13 -13 -14 -15 -14 -11 -11 -11 -10 -10 -10 -10 -10 -10 -10 -10 -10 -10 -10 -10 -10 -9 -9 -9 -9 -9 -9 -9 -9
-5 -7 -7 -8 -8 -13 -13 -13 -12 -12 -11 -11 -12 -12 -13 -14 -15 -15 -14 -11 -11 -11 -10 -10 -10 -10 -10 -10 -11 -11 -10 -10 -10 -9 -10 -9 -9 -9 -9 -9 -9 -9 -8
-7 -7 -7 -9 -13 -13 -12 -11 -10 -11 -11 -11 -12 -12 -12 -13 -14 -15 -13 -12 -12 -11 -11 -11 -10 -11 -11 -11 -11 -10 -9 -9 -9 -9 -9 -8 -8 -8 -8 -8 -8 -9 -9
-7 -8 -10 -12 -12 -12 -11 -10 -10 -11 -11 -11 -11 -11 -12 -12 -12 -13 -12 -12 -12 -11 -11 -11 -11 -11 -11 -12 -10 -10 -9 -9 -9 -8 -9 -9 -9 -8 -8 -9 -8 -8 -8
-9 -11 -11 -10 -11 -11 -11 -10 -10 -10 -11 -11 -11 -12 -12 -12 -12 -12 -12 -12 -12 -12 -12 -11 -11 -11 -11 -11 -11 -10 -10 -9 -9 -9 -9 -9 -8 -8 -8 -8 -8 -9 -9
-9 -11 -10 -9 -9 -10 -10 -10 -11 -10 -11 -12 -12 -12 -13 -13 -13 -13 -13 -12 -12 -12 -12 -12 -11 -12 -12 -12 -11 -11 -10 -10 -9 -9 -9 -8 -8 -8 -8 -9 -8 -9 -9
-11 -10 -9 -8 -9 -10 -11 -11 -11 -12 -12 -13 -14 -14 -13 -14 -13 -13 -13 -13 -13 -12 -12 -12 -12 -12 -12 -12 -12 -12 -11 -11 -10 -9 -8 -8 -8 -8 -8 -8 -8 -9 -8
-10 -9 -7 -8 -9 -10 -11 -11 -11 -13 -14 -15 -15 -16 -15 -14 -14 -14 -13 -13 -13 -12 -12 -13 -13 -12 -13 -13 -12 -12 -12 -11 -11 -10 -9 -9 -8 -8 -8 -8 -7 -8 -8
-8 -7 -8 -9 -10 -10 -10 -11 -12 -13 -14 -15 -15 -16 -16 -15 -14 -14 -14 -13 -13 -13 -13 -13 -13 -13 -13 -13 -13 -13 -12 -12 -12 -11 -10 -10 -9 -9 -10 -9 -8 -8 -8
-8 -9 -8 -9 -10 -10 -10 -11 -12 -13 -14 -15 -16 -17 -17 -16 -14 -14 -14 -14 -14 -14 -14 -14 -13 -13 -13 -13 -13 -13 -12 -12 -12 -12 -11 -11 -10 -10 -10 -9 -9 -9 -9
-11 -9 -9 -9 -9 -10 -10 -11 -12 -14 -15 -15 -15 -16 -17 -15 -15 -15 -15 -15 -15 -14 -14 -14 -14 -14 -15 -15 -15 -14 -13 -13 -13 -13 -12 -12 -11 -11 -10 -10 -10 -9 -9
-10 -10 -9 -9 -9 -10 -11 -11 -12 -14 -15 -15 -16 -16 -17 -16 -15 -15 -16 -15 -15 -15 -15 -17 -19 -18 -18 -17 -16 -17 -17 -15 -13 -13 -13 -13 -12 -11 -11 -10 -10 -10 -10
-10 -10 -9 -9 -10 -10 -11 -12 -12 -14 -17 -16 -18 -18 -18 -16 -16 -16 -16 -16 -18 -25 -31 -30 -26 -23 -22 -20 -18 -18 -19 -20 -17 -14 -13 -13 -13 -12 -12 -11 -11 -11 -11
-10 -9 -9 -10 -10 -11 -11 -12 -12 -13 -16 -17 -19 -21 -19 -16 -16 -16 -17 -23 -29 -32 -32 -32 -31 -29 -25 -22 -22 -21 -21 -23 -21 -19 -15 -14 -13 -13 -13 -13 -13 -12 -12
-11 -10 -10 -11 -11 -11 -11 -11 -12 -12 -14 -17 -18 -20 -21 -18 -16 -16 -16 -23 -30 -32 -33 -33 -32 -32 -32 -30 -29 -27 -27 -26 -25 -25 -25 -21 -17 -15 -14 -14 -13 -13 -13
-11 -11 -11 -11 -11 -11 -11 -11 -12 -12 -13 -15 -17 -21 -25 -26 -28 -19 -16 -15 -18 -32 -34 -34 -34 -33 -33 -32 -32 -33 -33 -32 -32 -30 -31 -32 -29 -26 -21 -18 -17 -15 -14
-11 -11 -11 -11 -11 -11 -11 -11 -11 -12 -12 -14 -17 -22 -29 -30 -29 -26 -25 -25 -26 -32 -35 -36 -35 -34 -34 -34 -33 -33 -32 -32 -32 -32 -32 -32 -32 -32 -31 -27 -23 -20 -19

GFSGL_850_dewp_024.txt.gz
Dewpoint
2 1 1 1 1 -1 -2 -2 -1 -1 -1 -1 -2 -2 -2 -3 -4 -4 -4 -4 -4 -4 -4 -5 -6 -7 -9 -9 -9 -9 -9 -10 -10 -11 -11 -11 -10 -9 -9 -8 -8 -8 -8
-1 -1 -0 -0 -0 -2 -2 -2 -2 -2 -2 -3 -2 -3 -4 -4 -4 -4 -4 -5 -6 -7 -7 -8 -9 -11 -10 -10 -10 -9 -10 -10 -10 -11 -11 -11 -10 -10 -9 -8 -8 -9 -9
-3 -2 -1 -1 -2 -1 -1 -3 -4 -4 -4 -4 -3 -3 -4 -5 -6 -6 -7 -7 -7 -8 -9 -9 -9 -9 -9 -9 -9 -10 -10 -11 -11 -11 -11 -11 -11 -11 -10 -10 -9 -9 -9
-2 -2 -2 -1 -2 -2 -2 -4 -3 -3 -3 -3 -4 -4 -5 -4 -6 -7 -8 -8 -8 -9 -9 -9 -9 -8 -9 -9 -10 -10 -11 -11 -11 -11 -11 -11 -11 -11 -10 -10 -9 -9 -9
-2 -3 -2 -1 -2 -2 -2 -3 -3 -3 -4 -4 -6 -7 -7 -8 -10 -11 -12 -10 -10 -10 -10 -9 -9 -9 -10 -13 -11 -10 -10 -10 -11 -10 -9 -9 -9 -9 -9 -9 -8 -8 -8
-3 -3 -2 -2 -3 -3 -3 -4 -6 -7 -8 -8 -9 -8 -9 -9 -9 -12 -14 -12 -11 -10 -9 -9 -10 -10 -10 -9 -9 -9 -9 -9 -8 -8 -8 -8 -8 -8 -8 -8 -7 -7 -7
-3 -4 -4 -5 -5 -6 -7 -8 -8 -8 -9 -9 -9 -9 -9 -9 -9 -13 -15 -15 -10 -9 -9 -10 -10 -11 -10 -9 -9 -9 -9 -9 -9 -9 -9 -8 -8 -8 -8 -8 -8 -7 -8
-4 -4 -5 -5 -6 -7 -7 -7 -8 -9 -9 -9 -9 -9 -9 -10 -10 -13 -14 -13 -9 -9 -9 -10 -10 -9 -9 -9 -10 -9 -9 -9 -9 -9 -8 -8 -8 -9 -8 -8 -8 -8 -8
-4 -4 -4 -5 -7 -7 -7 -9 -9 -9 -9 -9 -9 -9 -9 -9 -9 -14 -15 -10 -9 -10 -10 -9 -9 -9 -10 -10 -10 -10 -9 -8 -9 -9 -9 -10 -10 -10 -10 -8 -8 -8 -8
-6 -6 -6 -6 -7 -7 -9 -9 -9 -10 -10 -9 -8 -9 -9 -9 -10 -12 -12 -11 -11 -10 -10 -10 -10 -10 -10 -10 -10 -9 -9 -9 -9 -9 -9 -9 -9 -10 -10 -10 -9 -8 -8
-7 -6 -7 -6 -7 -10 -9 -10 -10 -9 -8 -9 -9 -10 -10 -10 -11 -11 -12 -12 -11 -11 -10 -10 -9 -9 -10 -10 -11 -10 -10 -10 -10 -9 -9 -9 -9 -9 -8 -8 -8 -8 -8
-6 -6 -7 -7 -9 -9 -9 -9 -9 -9 -9 -9 -10 -10 -10 -11 -11 -11 -13 -12 -12 -12 -11 -10 -10 -11 -11 -11 -11 -11 -11 -10 -9 -9 -9 -8 -8 -8 -8 -8 -8 -8 -8
-6 -7 -7 -8 -8 -8 -8 -9 -9 -9 -9 -10 -10 -10 -10 -11 -11 -12 -13 -12 -12 -12 -11 -11 -11 -11 -11 -11 -11 -11 -10 -10 -9 -9 -9 -8 -8 -8 -8 -8 -8 -8 -8
-7 -7 -8 -8 -8 -8 -8 -9 -9 -9 -10 -10 -10 -11 -11 -11 -12 -12 -12 -12 -12 -12 -12 -12 -12 -12 -12 -12 -12 -11 -11 -10 -10 -10 -9 -9 -8 -8 -8 -8 -8 -8 -8
-7 -7 -8 -8 -7 -7 -8 -9 -9 -10 -11 -11 -11 -12 -12 -12 -12 -13 -13 -13 -13 -12 -12 -12 -12 -12 -12 -12 -12 -11 -11 -11 -10 -10 -9 -9 -8 -8 -8 -8 -8 -8 -8
-7 -7 -7 -8 -7 -8 -8 -9 -9 -10 -12 -14 -15 -15 -13 -13 -14 -14 -13 -13 -13 -13 -12 -13 -13 -13 -13 -12 -12 -12 -12 -12 -11 -11 -10 -9 -9 -8 -8 -8 -7 -8 -8
-11 -9 -8 -8 -8 -8 -9 -9 -9 -10 -11 -12 -13 -15 -16 -15 -14 -14 -14 -13 -13 -13 -13 -13 -13 -13 -13 -13 -13 -13 -12 -12 -12 -11 -11 -10 -10 -10 -8 -8 -8 -8 -8
-9 -8 -9 -8 -9 -9 -9 -10 -10 -10 -11 -11 -12 -13 -15 -15 -14 -14 -14 -14 -14 -14 -14 -14 -14 -14 -13 -14 -14 -14 -13 -13 -13 -12 -12 -11 -10 -10 -9 -9 -9 -8 -8
-8 -9 -9 -9 -9 -9 -10 -10 -10 -11 -11 -11 -12 -12 -14 -15 -15 -15 -15 -15 -15 -15 -14 -14 -14 -14 -15 -15 -15 -14 -14 -13 -13 -13 -13 -12 -11 -11 -10 -10 -10 -9 -9
-9 -9 -9 -9 -9 -9 -10 -10 -11 -11 -11 -12 -12 -13 -14 -14 -15 -15 -16 -16 -16 -16 -15 -15 -16 -16 -16 -15 -15 -15 -14 -14 -14 -13 -13 -13 -12 -11 -11 -11 -10 -10 -9
-9 -9 -9 -9 -9 -10 -10 -10 -11 -11 -12 -12 -12 -14 -19 -15 -15 -15 -16 -16 -18 -22 -25 -22 -20 -19 -18 -17 -17 -16 -15 -15 -14 -13 -13 -13 -13 -12 -12 -11 -11 -11 -10
-10 -9 -9 -9 -10 -10 -10 -11 -11 -12 -12 -12 -13 -14 -16 -15 -15 -16 -16 -19 -27 -31 -31 -29 -26 -25 -23 -22 -21 -20 -19 -19 -21 -18 -15 -13 -13 -12 -12 -12 -12 -11 -11
-10 -10 -10 -10 -10 -10 -10 -11 -11 -11 -12 -12 -13 -14 -14 -15 -15 -16 -16 -20 -27 -32 -33 -32 -31 -31 -30 -28 -27 -27 -27 -26 -26 -27 -26 -16 -14 -14 -13 -12 -12 -12 -12
-10 -10 -10 -10 -10 -10 -10 -11 -11 -11 -12 -13 -13 -14 -14 -15 -15 -15 -15 -15 -18 -31 -34 -33 -33 -32 -32 -32 -32 -32 -31 -32 -31 -30 -31 -29 -21 -18 -14 -14 -13 -13 -13
-10 -10 -10 -10 -10 -10 -10 -10 -11 -11 -12 -12 -13 -14 -14 -16 -18 -23 -23 -18 -18 -24 -34 -35 -34 -33 -33 -33 -32 -32 -32 -32 -32 -32 -32 -32 -31 -30 -27 -17 -17 -14 -14
-10 -10 -10 -10 -10 -10 -10 -10 -11 -11 -11 -12 -13 -14 -15 -18 -26 -25 -25 -26 -28 -31 -32 -33 -34 -33 -33 -32 -32 -31 -31 -32 -33 -33 -33 -33 -32 -32 -31 -30 -28 -17 -15

GFSGL_850_dewp_027.txt.gz
Dewpoint
-2 -3 -3 -2 -2 -2 -2 -2 -2 -2 -1 -2 -3 -4 -3 -3 -3 -3 -3 -3 -4 -4 -4 -4 -4 -5 -7 -8 -8 -7 -5 -6 -7 -8 -10 -10 -10 -10 -9 -9 -8 -8 -7
-6 -5 -4 -3 -3 -2 -2 -3 -2 -2 -2 -2 -3 -3 -2 -3 -4 -5 -5 -6 -6 -6 -6 -7 -9 -10 -10 -10 -10 -10 -10 -10 -10 -10 -10 -11 -11 -10 -10 -9 -9 -9 -9
-4 -4 -3 -3 -2 -2 -2 -2 -2 -2 -2 -2 -2 -3 -3 -5 -6 -6 -7 -7 -8 -9 -9 -10 -10 -9 -9 -9 -9 -9 -10 -10 -11 -11 -11 -12 -12 -11 -11 -11 -10 -9 -9
-4 -4 -4 -2 -1 -1 -2 -3 -2 -2 -3 -3 -4 -5 -7 -8 -9 -9 -9 -8 -9 -10 -10 -9 -9 -9 -9 -9 -9 -9 -10 -10 -11 -11 -11 -11 -11 -11 -11 -10 -10 -10 -9
-4 -4 -4 -3 -2 -3 -3 -3 -3 -4 -6 -7 -8 -9 -9 -10 -11 -10 -10 -9 -10 -10 -10 -10 -10 -9 -9 -10 -10 -10 -10 -10 -10 -10 -10 -10 -11 -10 -10 -10 -9 -9 -8
-4 -5 -4 -4 -4 -4 -4 -5 -6 -6 -6 -8 -10 -10 -10 -10 -10 -9 -10 -10 -11 -10 -10 -10 -10 -9 -10 -10 -10 -10 -9 -9 -9 -9 -8 -9 -8 -8 -8 -8 -7 -7 -7
-5 -6 -5 -5 -5 -5 -5 -6 -7 -7 -10 -10 -10 -10 -10 -10 -9 -9 -10 -11 -10 -9 -9 -9 -9 -10 -10 -9 -8 -9 -9 -9 -9 -9 -9 -9 -8 -8 -8 -8 -7 -7 -7
-7 -6 -6 -5 -5 -6 -7 -8 -9 -10 -10 -10 -10 -10 -10 -10 -8 -9 -10 -10 -9 -9 -9 -9 -9 -10 -9 -10 -9 -9 -9 -9 -8 -8 -9 -8 -8 -8 -8 -8 -7 -8 -8
-8 -7 -6 -5 -7 -8 -8 -9 -10 -10 -10 -11 -10 -8 -8 -8 -9 -9 -10 -10 -10 -10 -10 -10 -9 -9 -9 -9 -9 -9 -9 -9 -9 -8 -8 -9 -10 -11 -11 -11 -9 -9 -7
-9 -8 -7 -7 -7 -8 -9 -10 -10 -11 -11 -9 -8 -8 -9 -9 -9 -11 -11 -11 -11 -11 -10 -10 -11 -10 -10 -10 -9 -10 -10 -10 -9 -9 -10 -9 -9 -9 -9 -9 -10 -9 -9
-8 -7 -6 -7 -8 -9 -10 -10 -11 -11 -9 -7 -9 -10 -9 -9 -10 -10 -10 -11 -11 -11 -11 -11 -11 -10 -9 -10 -10 -10 -10 -10 -10 -10 -9 -9 -8 -8 -8 -8 -8 -8 -9
-6 -6 -6 -7 -8 -10 -10 -10 -10 -10 -8 -8 -9 -10 -10 -10 -10 -10 -11 -12 -12 -12 -11 -11 -10 -11 -12 -11 -11 -11 -11 -11 -10 -9 -9 -9 -8 -7 -7 -7 -7 -7 -8
-5 -6 -6 -6 -9 -10 -10 -10 -10 -9 -8 -9 -9 -10 -10 -10 -10 -10 -12 -13 -12 -12 -12 -11 -12 -11 -11 -11 -11 -11 -11 -10 -10 -10 -9 -9 -8 -8 -8 -8 -8 -8 -8
-6 -5 -5 -7 -9 -9 -9 -10 -9 -8 -9 -9 -10 -10 -11 -11 -11 -11 -13 -13 -13 -12 -12 -12 -11 -11 -11 -11 -11 -11 -11 -10 -10 -10 -10 -9 -9 -8 -8 -8 -8 -7 -7
-5 -5 -6 -8 -8 -7 -8 -9 -9 -9 -9 -10 -11 -11 -12 -12 -12 -13 -13 -13 -13 -13 -12 -12 -12 -12 -12 -12 -12 -12 -11 -11 -11 -10 -10 -9 -9 -8 -8 -7 -8 -8 -7
-5 -6 -7 -7 -7 -7 -8 -8 -8 -9 -10 -11 -11 -12 -13 -14 -14 -14 -14 -14 -13 -13 -13 -13 -13 -13 -13 -13 -12 -12 -12 -12 -11 -11 -11 -10 -9 -9 -9 -8 -7 -7 -8
-7 -7 -7 -7 -7 -8 -8 -8 -9 -9 -10 -11 -11 -11 -13 -14 -14 -14 -15 -14 -13 -14 -13 -13 -13 -14 -14 -13 -13 -13 -13 -13 -12 -12 -11 -11 -10 -10 -9 -9 -9 -8 -7
-8 -8 -7 -8 -8 -8 -8 -9 -9 -9 -10 -10 -10 -11 -12 -14 -15 -15 -15 -14 -13 -14 -14 -14 -14 -14 -14 -14 -14 -13 -13 -13 -13 -12 -12 -12 -11 -11 -10 -10 -9 -9 -9
-7 -8 -8 -9 -8 -9 -9 -9 -9 -10 -10 -10 -10 -11 -12 -14 -14 -14 -15 -15 -15 -14 -15 -15 -15 -15 -15 -15 -15 -14 -14 -13 -13 -13 -12 -12 -12 -11 -11 -10 -10 -9 -9
-8 -8 -9 -9 -9 -9 -9 -9 -9 -10 -11 -10 -11 -11 -12 -14 -13 -14 -14 -15 -15 -15 -15 -15 -15 -15 -15 -15 -15 -15 -14 -14 -14 -14 -13 -12 -12 -12 -11 -11 -11 -10 -10
-8 -9 -9 -9 -9 -9 -9 -9 -10 -10 -10 -11 -11 -12 -13 -16 -14 -14 -14 -15 -16 -16 -17 -16 -16 -16 -16 -16 -16 -16 -15 -15 -15 -15 -14 -13 -12 -12 -12 -11 -11 -11 -11
-9 -9 -9 -9 -9 -9 -9 -10 -10 -10 -11 -11 -11 -12 -13 -13 -14 -14 -14 -15 -16 -19 -29 -23 -17 -18 -21 -19 -19 -17 -16 -18 -18 -16 -15 -14 -13 -13 -12 -12 -12 -12 -11
-9 -9 -9 -9 -9 -9 -10 -10 -10 -10 -11 -11 -11 -12 -12 -13 -14 -14 -15 -15 -16 -20 -33 -33 -31 -31 -31 -31 -30 -29 -30 -31 -30 -29 -21 -15 -14 -14 -13 -13 -13 -12 -12
-9 -9 -9 -9 -10 -10 -10 -10 -10 -10 -11 -11 -12 -12 -12 -13 -14 -14 -15 -15 -15 -17 -30 -34 -33 -33 -33 -32 -32 -32 -31 -32 -32 -32 -29 -16 -16 -18 -14 -14 -13 -13 -13
-10 -10 -9 -9 -10 -10 -10 -10 -10 -10 -11 -11 -12 -12 -12 -13 -14 -14 -15 -15 -16 -19 -27 -31 -33 -33 -32 -32 -31 -31 -31 -32 -33 -33 -33 -24 -28 -28 -21 -15 -20 -13 -14
-9 -10 -10 -10 -10 -10 -10 -10 -10 -10 -11 -11 -11 -12 -12 -13 -14 -14 -15 -16 -17 -25 -29 -30 -31 -31 -31 -31 -30 -29 -30 -31 -32 -33 -33 -33 -33 -33 -33 -23 -29 -15 -15

GFSGL_850_dewp_030.txt.gz
Dewpoint
-5 -5 -6 -5 -3 -2 -2 -2 -2 -3 -4 -3 -2 -3 -3 -3 -3 -3 -3 -5 -4 -5 -5 -5 -5 -6 -7 -8 -8 -9 -7 -6 -4 -5 -7 -7 -8 -8 -7 -7 -6 -7 -8
-6 -5 -4 -3 -3 -2 -2 -2 -3 -2 -2 -2 -3 -3 -3 -4 -5 -5 -6 -6 -7 -6 -6 -8 -9 -9 -9 -9 -9 -9 -9 -9 -9 -9 -9 -9 -10 -10 -10 -10 -10 -9 -8
-5 -4 -4 -4 -3 -3 -4 -1 -4 -4 -3 -4 -4 -5 -5 -6 -7 -8 -9 -9 -8 -8 -10 -11 -10 -9 -9 -9 -9 -8 -8 -9 -9 -9 -10 -10 -11 -11 -11 -11 -11 -10 -10
-5 -4 -4 -4 -3 -5 -3 -4 -4 -5 -4 -5 -6 -7 -7 -9 -9 -9 -10 -9 -9 -10 -11 -13 -10 -10 -10 -9 -9 -9 -9 -8 -9 -9 -10 -10 -10 -10 -10 -11 -9 -9 -9
-5 -4 -4 -4 -3 -5 -5 -4 -4 -5 -5 -6 -7 -9 -10 -10 -10 -10 -10 -10 -9 -10 -11 -13 -11 -10 -9 -9 -9 -9 -9 -10 -11 -10 -9 -8 -8 -8 -8 -8 -9 -9 -9
-7 -6 -5 -5 -5 -4 -4 -5 -5 -6 -6 -8 -10 -10 -10 -10 -9 -10 -10 -9 -10 -10 -11 -12 -9 -8 -9 -9 -8 -8 -9 -9 -9 -9 -10 -10 -11 -10 -10 -9 -9 -10 -10
-8 -7 -7 -4 -5 -6 -6 -5 -6 -7 -9 -10 -10 -10 -9 -9 -9 -9 -9 -8 -9 -10 -10 -9 -9 -9 -9 -9 -9 -9 -9 -9 -11 -11 -10 -10 -10 -11 -10 -10 -10 -10 -9
-7 -8 -9 -6 -6 -6 -5 -7 -7 -9 -10 -10 -10 -10 -10 -10 -10 -9 -9 -10 -11 -12 -11 -11 -11 -11 -11 -11 -11 -11 -11 -9 -10 -9 -9 -9 -8 -8 -8 -8 -8 -8 -8
-6 -8 -7 -7 -6 -6 -7 -7 -8 -10 -10 -11 -10 -10 -10 -10 -11 -10 -9 -11 -12 -13 -13 -12 -11 -12 -12 -11 -10 -10 -11 -11 -11 -10 -9 -9 -8 -9 -10 -9 -9 -9 -9
-6 -5 -5 -4 -5 -6 -5 -6 -10 -10 -10 -10 -10 -9 -10 -11 -10 -10 -11 -10 -10 -11 -13 -13 -13 -12 -11 -10 -10 -10 -10 -10 -10 -11 -11 -11 -11 -11 -10 -9 -8 -8 -8
-7 -3 -5 -4 -4 -6 -6 -9 -10 -10 -10 -9 -9 -10 -11 -10 -10 -11 -10 -10 -11 -12 -13 -12 -12 -11 -10 -10 -11 -11 -11 -11 -11 -11 -11 -10 -9 -9 -8 -8 -8 -8 -8
-6 -5 -4 -4 -5 -6 -8 -9 -10 -10 -9 -9 -9 -11 -11 -10 -10 -11 -10 -11 -12 -13 -12 -12 -12 -12 -11 -11 -11 -11 -11 -11 -11 -10 -10 -9 -9 -8 -8 -8 -8 -8 -8
-5 -4 -4 -4 -5 -6 -7 -9 -10 -9 -9 -9 -10 -10 -10 -11 -12 -11 -12 -13 -14 -13 -13 -12 -12 -11 -11 -11 -11 -11 -11 -11 -10 -9 -9 -9 -9 -9 -9 -8 -8 -8 -7
-5 -4 -5 -6 -6 -7 -8 -9 -9 -9 -10 -10 -9 -10 -12 -13 -13 -14 -16 -14 -13 -13 -13 -12 -12 -12 -12 -12 -11 -11 -11 -10 -10 -10 -10 -9 -9 -8 -8 -7 -7 -9 -9
-6 -5 -6 -6 -6 -7 -7 -9 -8 -9 -9 -9 -10 -11 -11 -12 -13 -13 -13 -14 -14 -13 -13 -12 -12 -13 -13 -13 -12 -12 -11 -11 -11 -11 -10 -10 -10 -9 -9 -9 -7 -7 -8
-6 -6 -6 -6 -7 -8 -9 -9 -9 -9 -9 -9 -11 -11 -11 -12 -12 -14 -14 -14 -14 -13 -13 -13 -13 -13 -13 -13 -13 -13 -13 -12 -12 -12 -11 -11 -11 -10 -10 -9 -9 -8 -8
-6 -7 -7 -7 -8 -8 -9 -8 -9 -9 -10 -10 -11 -10 -10 -11 -13 -13 -14 -14 -13 -13 -14 -14 -14 -14 -14 -14 -14 -14 -13 -13 -12 -12 -12 -11 -11 -11 -10 -10 -10 -9 -9
-7 -8 -7 -7 -8 -8 -9 -9 -9 -9 -10 -10 -11 -10 -10 -12 -14 -14 -13 -14 -15 -14 -14 -14 -15 -15 -14 -14 -14 -14 -13 -13 -13 -13 -12 -12 -11 -11 -10 -11 -11 -10 -10
-7 -7 -8 -9 -9 -9 -9 -9 -9 -10 -10 -11 -11 -10 -10 -12 -15 -13 -14 -15 -15 -15 -15 -15 -15 -15 -15 -15 -15 -15 -14 -14 -14 -14 -13 -12 -12 -11 -11 -11 -11 -10 -10
-8 -7 -8 -9 -9 -9 -9 -9 -10 -10 -10 -11 -11 -11 -11 -13 -15 -14 -14 -15 -15 -16 -18 -16 -15 -16 -16 -16 -16 -16 -15 -15 -15 -15 -14 -13 -12 -12 -11 -11 -11 -11 -10
-8 -8 -9 -9 -9 -9 -9 -10 -10 -10 -10 -11 -11 -11 -11 -13 -13 -14 -14 -15 -15 -16 -23 -25 -18 -19 -22 -21 -20 -19 -20 -24 -22 -22 -16 -14 -13 -13 -12 -12 -12 -12 -12
-9 -9 -9 -9 -9 -9 -10 -10 -10 -10 -11 -11 -11 -11 -12 -13 -12 -13 -14 -14 -15 -15 -24 -31 -30 -30 -30 -29 -28 -28 -30 -31 -31 -30 -21 -16 -14 -14 -13 -13 -13 -13 -12
-9 -9 -9 -9 -10 -10 -10 -10 -10 -10 -10 -11 -11 -12 -12 -12 -13 -14 -14 -15 -15 -15 -20 -32 -33 -32 -32 -32 -31 -31 -31 -31 -32 -32 -25 -20 -17 -18 -14 -14 -13 -13 -14
-10 -9 -9 -9 -10 -10 -10 -10 -9 -10 -11 -11 -11 -11 -12 -12 -13 -14 -14 -14 -15 -17 -19 -27 -31 -33 -32 -32 -31 -30 -30 -31 -32 -33 -29 -25 -22 -23 -20 -19 -14 -14 -15
-10 -9 -10 -10 -10 -10 -10 -10 -10 -10 -10 -11 -11 -11 -11 -12 -12 -13 -14 -14 -15 -19 -25 -29 -30 -31 -31 -30 -30 -29 -29 -30 -32 -33 -33 -32 -31 -31 -28 -24 -22 -17 -18
-10 -10 -10 -10 -10 -10 -10 -10 -10 -10 -11 -11 -11 -11 -11 -12 -12 -13 -14 -16 -18 -21 -24 -25 -27 -28 -29 -29 -29 -28 -28 -29 -32 -33 -33 -34 -34 -34 -34 -33 -31 -29 -26

GFSGL_850_dewp_033.txt.gz
Dewpoint
-3 -5 -6 -8 -4 -4 -3 -3 -3 -6 -4 -3 -3 -3 -3 -3 -4 -5 -4 -5 -5 -5 -6 -5 -5 -7 -8 -9 -9 -9 -9 -8 -7 -7 -8 -8 -9 -9 -9 -7 -6 -6 -4
-5 -6 -6 -4 -4 -4 -4 -3 -5 -4 -5 -4 -3 -4 -5 -5 -6 -6 -8 -8 -8 -8 -8 -7 -8 -10 -13 -13 -10 -9 -9 -9 -8 -8 -8 -8 -9 -10 -10 -10 -10 -9 -8
-5 -6 -5 -4 -4 -4 -4 -4 -8 -6 -5 -5 -5 -5 -6 -7 -9 -9 -10 -9 -9 -9 -9 -9 -10 -11 -14 -15 -10 -10 -10 -9 -9 -8 -8 -8 -9 -10 -11 -12 -13 -13 -12
-6 -7 -8 -5 -4 -5 -4 -6 -9 -6 -5 -5 -6 -6 -9 -10 -10 -10 -10 -10 -10 -10 -10 -10 -10 -12 -13 -11 -9 -9 -8 -9 -9 -10 -12 -12 -12 -11 -10 -10 -10 -8 -8
-6 -7 -7 -7 -6 -5 -4 -6 -7 -7 -5 -6 -6 -8 -10 -10 -10 -9 -9 -9 -10 -10 -10 -10 -11 -12 -10 -8 -8 -8 -8 -7 -8 -9 -10 -10 -10 -12 -13 -11 -9 -8 -8
-5 -6 -7 -8 -5 -5 -4 -9 -8 -6 -6 -7 -8 -10 -10 -10 -10 -9 -10 -11 -10 -10 -11 -13 -14 -12 -10 -9 -8 -9 -9 -8 -8 -8 -8 -9 -11 -12 -11 -11 -11 -11 -11
-4 -4 -5 -5 -6 -4 -5 -5 -7 -6 -7 -9 -10 -10 -10 -10 -10 -10 -11 -12 -11 -11 -13 -14 -14 -13 -12 -12 -11 -12 -11 -11 -10 -10 -9 -11 -10 -10 -9 -9 -9 -10 -10
-7 -7 -5 -4 -4 -3 -3 -5 -6 -7 -8 -10 -10 -10 -10 -10 -9 -11 -11 -11 -11 -12 -12 -12 -13 -13 -12 -12 -12 -12 -12 -12 -11 -10 -10 -11 -10 -9 -8 -9 -9 -9 -9
-9 -9 -8 -7 -4 -3 -3 -4 -5 -6 -11 -10 -10 -10 -10 -9 -11 -11 -11 -11 -11 -11 -12 -12 -13 -13 -13 -11 -11 -11 -11 -11 -11 -10 -10 -10 -10 -11 -9 -9 -8 -9 -9
-9 -6 -6 -6 -6 -4 -5 -6 -8 -10 -10 -9 -9 -9 -9 -11 -12 -10 -11 -11 -11 -12 -12 -13 -14 -13 -12 -11 -11 -11 -11 -13 -12 -12 -12 -12 -12 -11 -11 -11 -10 -9 -9
-9 -8 -9 -8 -6 -4 -5 -7 -8 -9 -10 -10 -10 -9 -10 -12 -11 -10 -11 -11 -11 -12 -13 -14 -14 -13 -12 -12 -11 -11 -11 -11 -11 -11 -11 -10 -9 -9 -9 -8 -7 -7 -8
-8 -8 -10 -5 -4 -5 -5 -6 -7 -9 -10 -10 -9 -11 -12 -12 -13 -14 -14 -14 -14 -13 -13 -13 -13 -11 -11 -11 -11 -11 -11 -11 -11 -10 -10 -9 -9 -9 -9 -8 -8 -8 -8
-8 -9 -8 -5 -5 -5 -6 -7 -9 -9 -10 -9 -11 -11 -11 -12 -13 -14 -16 -15 -14 -14 -13 -12 -12 -12 -12 -12 -12 -11 -11 -10 -10 -10 -10 -10 -9 -9 -8 -8 -7 -7 -8
-8 -8 -7 -7 -6 -6 -7 -7 -8 -10 -9 -10 -10 -10 -11 -12 -12 -13 -15 -14 -14 -14 -13 -13 -13 -13 -13 -12 -12 -12 -12 -12 -11 -11 -11 -10 -10 -9 -9 -8 -8 -7 -8
-6 -8 -6 -6 -6 -6 -6 -8 -9 -8 -9 -10 -10 -10 -11 -11 -12 -12 -13 -13 -13 -13 -13 -13 -14 -14 -14 -13 -13 -13 -12 -12 -12 -12 -11 -11 -11 -10 -9 -9 -9 -9 -8
-5 -7 -7 -7 -7 -7 -8 -9 -9 -9 -10 -10 -11 -11 -10 -11 -12 -12 -13 -13 -14 -14 -14 -14 -14 -14 -14 -14 -14 -14 -13 -13 -13 -12 -12 -11 -11 -11 -10 -10 -10 -9 -9
-6 -7 -7 -8 -7 -8 -8 -9 -9 -10 -10 -11 -11 -11 -11 -11 -12 -12 -13 -14 -15 -14 -15 -15 -15 -15 -15 -15 -15 -14 -14 -14 -13 -13 -12 -12 -11 -11 -10 -11 -11 -10 -10
-7 -7 -7 -8 -9 -9 -9 -9 -9 -10 -10 -11 -11 -11 -11 -11 -11 -14 -13 -15 -16 -16 -16 -15 -15 -15 -15 -16 -16 -15 -14 -14 -14 -13 -13 -12 -11 -11 -11 -11 -11 -10 -10
-8 -8 -8 -8 -9 -9 -9 -9 -10 -10 -10 -11 -11 -11 -11 -11 -12 -15 -15 -15 -15 -16 -21 -20 -16 -16 -17 -18 -17 -17 -16 -16 -16 -15 -13 -13 -12 -12 -11 -11 -11 -11 -10
-8 -8 -8 -9 -9 -9 -9 -10 -10 -10 -10 -11 -11 -11 -11 -11 -13 -14 -13 -15 -15 -15 -23 -28 -21 -20 -22 -22 -22 -21 -25 -29 -26 -20 -14 -13 -13 -13 -12 -12 -12 -12 -11
-8 -8 -8 -10 -10 -10 -10 -10 -10 -10 -10 -11 -10 -10 -11 -12 -13 -13 -13 -14 -15 -15 -19 -31 -31 -31 -30 -29 -28 -29 -30 -31 -31 -24 -17 -15 -15 -14 -13 -13 -12 -13 -12
-9 -9 -9 -9 -10 -10 -10 -10 -10 -10 -10 -10 -10 -11 -12 -12 -12 -12 -13 -14 -15 -17 -16 -27 -33 -32 -32 -32 -31 -31 -31 -31 -32 -31 -22 -20 -21 -16 -14 -14 -13 -14 -14
-10 -10 -10 -10 -10 -10 -10 -10 -10 -9 -9 -10 -11 -11 -11 -11 -12 -12 -12 -14 -15 -17 -20 -22 -28 -32 -32 -32 -31 -30 -29 -30 -31 -32 -29 -24 -26 -24 -18 -18 -14 -15 -16
-9 -11 -10 -10 -10 -10 -10 -10 -10 -10 -10 -10 -10 -10 -11 -11 -11 -12 -13 -13 -15 -17 -21 -25 -29 -30 -30 -30 -30 -29 -29 -29 -31 -32 -32 -30 -31 -31 -28 -25 -21 -20 -21
-9 -10 -10 -10 -10 -10 -10 -10 -10 -10 -10 -11 -11 -11 -11 -10 -11 -12 -13 -13 -15 -19 -22 -24 -26 -28 -28 -29 -29 -28 -28 -28 -30 -32 -32 -33 -33 -33 -34 -31 -31 -30 -28
-9 -9 -10 -10 -11 -11 -11 -10 -10 -10 -10 -10 -10 -11 -11 -11 -12 -12 -12 -13 -13 -19 -23 -21 -18 -17 -17 -20 -21 -21 -24 -27 -30 -33 -33 -34 -35 -34 -32 -32 -33 -32 -32

GFSGL_850_dewp_036.txt.gz
Dewpoint
-3 -4 -4 -6 -9 -11 -10 -7 -5 -4 -4 -11 -7 -5 -4 -5 -6 -6 -7 -7 -8 -8 -8 -7 -6 -6 -7 -8 -8 -12 -13 -10 -9 -9 -9 -8 -9 -9 -9 -10 -10 -9 -6
-3 -5 -6 -8 -9 -9 -9 -9 -5 -4 -5 -11 -8 -7 -6 -6 -7 -8 -9 -10 -9 -9 -8 -8 -9 -10 -10 -11 -12 -14 -16 -12 -10 -10 -9 -10 -9 -9 -8 -9 -10 -11 -11
-4 -5 -6 -7 -7 -7 -5 -5 -4 -5 -10 -8 -8 -6 -6 -8 -9 -10 -10 -9 -9 -10 -10 -10 -10 -11 -11 -12 -13 -13 -13 -11 -9 -8 -9 -9 -9 -11 -13 -12 -10 -10 -11
-5 -5 -5 -6 -6 -6 -5 -5 -4 -5 -8 -6 -6 -6 -6 -7 -10 -10 -10 -10 -10 -10 -12 -13 -12 -12 -13 -12 -9 -8 -8 -8 -8 -8 -8 -8 -9 -11 -12 -12 -13 -13 -10
-5 -4 -4 -4 -5 -5 -4 -4 -3 -3 -6 -5 -5 -7 -8 -10 -10 -10 -10 -10 -11 -12 -13 -12 -13 -14 -15 -11 -9 -9 -9 -9 -9 -8 -8 -8 -9 -10 -11 -12 -13 -12 -13
-7 -7 -5 -6 -5 -5 -4 -4 -4 -4 -5 -6 -7 -8 -10 -11 -10 -10 -10 -10 -12 -12 -12 -12 -13 -13 -14 -13 -12 -12 -11 -10 -10 -10 -10 -10 -11 -12 -13 -11 -10 -10 -10
-11 -9 -9 -9 -8 -5 -5 -4 -4 -3 -5 -7 -6 -10 -10 -10 -10 -9 -11 -12 -12 -12 -12 -12 -12 -12 -13 -15 -13 -13 -13 -12 -12 -11 -10 -10 -10 -10 -10 -11 -10 -10 -10
-10 -10 -9 -9 -8 -9 -8 -8 -4 -5 -5 -6 -10 -10 -10 -9 -9 -11 -12 -11 -11 -12 -12 -13 -13 -13 -15 -13 -12 -11 -11 -11 -11 -11 -11 -11 -11 -12 -10 -10 -11 -9 -10
-10 -10 -9 -9 -9 -10 -6 -4 -7 -6 -9 -10 -9 -9 -9 -9 -11 -12 -12 -13 -13 -12 -12 -13 -15 -14 -12 -12 -11 -11 -12 -12 -13 -13 -13 -12 -10 -10 -10 -10 -11 -8 -9
-9 -9 -8 -8 -10 -7 -4 -5 -8 -8 -7 -8 -8 -9 -9 -11 -12 -13 -15 -15 -17 -18 -17 -16 -14 -13 -12 -12 -11 -11 -11 -12 -12 -12 -12 -12 -12 -12 -12 -12 -12 -11 -11
-8 -8 -8 -9 -8 -4 -5 -7 -8 -7 -7 -9 -9 -9 -11 -11 -12 -14 -14 -16 -16 -13 -14 -14 -13 -12 -12 -11 -12 -12 -11 -11 -11 -11 -11 -11 -10 -10 -9 -9 -9 -8 -8
-7 -6 -8 -8 -7 -7 -5 -5 -6 -7 -9 -9 -9 -10 -11 -11 -12 -13 -14 -17 -14 -14 -14 -13 -12 -12 -12 -13 -12 -11 -11 -11 -10 -10 -10 -10 -10 -9 -9 -9 -8 -9 -9
-6 -5 -5 -7 -7 -6 -6 -6 -7 -7 -8 -9 -9 -11 -11 -12 -12 -13 -15 -15 -15 -14 -13 -13 -13 -13 -13 -13 -13 -12 -12 -11 -11 -11 -11 -10 -10 -10 -9 -8 -8 -7 -8
-5 -4 -5 -7 -6 -6 -6 -7 -7 -8 -8 -9 -11 -11 -11 -12 -12 -13 -13 -13 -14 -14 -13 -14 -14 -13 -13 -13 -13 -13 -13 -12 -12 -12 -11 -11 -11 -10 -10 -9 -8 -8 -8
-5 -5 -6 -7 -7 -7 -7 -8 -9 -9 -9 -10 -11 -11 -11 -12 -12 -12 -12 -13 -14 -14 -14 -14 -14 -14 -14 -14 -14 -13 -13 -13 -13 -12 -12 -11 -11 -11 -10 -9 -9 -9 -9
-6 -6 -7 -7 -7 -8 -8 -8 -8 -9 -10 -10 -10 -10 -11 -12 -12 -12 -12 -13 -15 -15 -15 -15 -15 -15 -15 -15 -15 -14 -14 -14 -13 -13 -12 -12 -11 -11 -10 -10 -11 -10 -10
-7 -7 -8 -8 -8 -9 -9 -9 -9 -10 -10 -11 -11 -12 -12 -12 -11 -12 -13 -16 -15 -16 -20 -16 -15 -15 -15 -17 -16 -16 -15 -14 -14 -13 -13 -12 -11 -11 -11 -11 -11 -10 -10
-7 -8 -8 -8 -9 -9 -10 -10 -10 -10 -10 -11 -11 -12 -12 -12 -12 -13 -14 -15 -16 -16 -25 -25 -18 -18 -19 -19 -18 -17 -17 -18 -17 -14 -13 -12 -12 -12 -11 -12 -11 -11 -10
-8 -8 -8 -8 -9 -10 -10 -10 -10 -10 -10 -11 -11 -12 -12 -11 -12 -13 -13 -14 -15 -16 -21 -31 -27 -23 -24 -24 -22 -22 -27 -29 -23 -16 -13 -13 -13 -12 -12 -12 -12 -11 -11
-8 -8 -8 -9 -9 -10 -10 -10 -10 -10 -10 -11 -10 -10 -11 -12 -12 -12 -13 -13 -14 -16 -16 -30 -33 -32 -31 -30 -28 -29 -30 -31 -30 -19 -15 -14 -14 -13 -13 -13 -13 -13 -13
-9 -9 -9 -9 -10 -10 -10 -10 -10 -10 -10 -10 -10 -11 -11 -12 -11 -12 -13 -13 -14 -15 -17 -20 -31 -33 -33 -32 -31 -30 -30 -31 -32 -27 -20 -19 -19 -15 -14 -13 -13 -14 -14
-11 -11 -10 -10 -10 -10 -10 -10 -11 -10 -10 -10 -10 -11 -10 -11 -11 -11 -12 -12 -13 -15 -18 -20 -24 -29 -31 -31 -31 -30 -29 -30 -31 -32 -27 -24 -23 -21 -17 -17 -14 -15 -17
-10 -9 -10 -11 -10 -10 -10 -11 -10 -11 -10 -10 -10 -10 -10 -11 -11 -11 -12 -13 -13 -14 -17 -21 -26 -29 -29 -29 -28 -29 -28 -28 -30 -32 -32 -30 -29 -29 -24 -22 -19 -21 -22
-8 -9 -9 -9 -10 -11 -11 -11 -11 -11 -10 -10 -10 -11 -11 -11 -11 -11 -12 -12 -13 -14 -18 -22 -24 -26 -28 -29 -29 -28 -27 -27 -29 -31 -32 -33 -33 -33 -33 -30 -29 -30 -28
-8 -9 -9 -9 -9 -10 -10 -11 -11 -11 -10 -10 -10 -9 -10 -11 -12 -11 -12 -12 -13 -13 -17 -22 -21 -19 -18 -20 -25 -21 -17 -19 -25 -31 -33 -34 -35 -34 -33 -32 -33 -33 -32
-8 -8 -8 -9 -9 -10 -10 -10 -11 -11 -11 -11 -10 -11 -11 -11 -11 -12 -12 -12 -13 -14 -16 -21 -20 -15 -15 -15 -15 -16 -20 -24 -26 -29 -32 -34 -34 -33 -31 -29 -28 -29 -30

GFSGL_850_dewp_039.txt.gz
Dewpoint
-3 -3 -5 -5 -5 -6 -7 -7 -6 -5 -4 -4 -5 -11 -10 -7 -6 -7 -7 -9 -10 -10 -10 -9 -8 -8 -7 -7 -9 -9 -11 -12 -14 -14 -14 -13 -10 -10 -10 -10 -9 -10 -10
-4 -4 -5 -5 -5 -6 -6 -6 -5 -4 -4 -5 -8 -6 -6 -6 -7 -8 -9 -10 -10 -9 -9 -9 -9 -10 -11 -13 -13 -13 -12 -13 -12 -11 -11 -10 -8 -9 -9 -10 -11 -13 -10
-4 -4 -5 -4 -6 -5 -5 -5 -4 -3 -4 -4 -4 -7 -5 -6 -7 -8 -10 -10 -10 -10 -10 -11 -12 -13 -14 -14 -14 -14 -12 -10 -8 -8 -9 -8 -8 -8 -9 -10 -12 -13 -14
-3 -4 -5 -6 -4 -6 -5 -5 -7 -4 -5 -4 -4 -4 -5 -6 -9 -10 -11 -11 -10 -10 -11 -12 -13 -13 -13 -14 -15 -12 -9 -9 -9 -9 -8 -8 -8 -8 -9 -10 -11 -13 -14
-11 -12 -12 -12 -10 -7 -9 -8 -6 -6 -4 -4 -4 -5 -7 -8 -9 -11 -10 -9 -10 -12 -13 -12 -13 -13 -13 -13 -13 -14 -13 -12 -11 -10 -10 -10 -10 -9 -10 -10 -11 -13 -14
-13 -14 -12 -10 -10 -10 -9 -8 -8 -7 -4 -3 -4 -7 -6 -8 -10 -10 -9 -10 -12 -12 -12 -13 -13 -12 -13 -12 -13 -15 -14 -11 -12 -11 -11 -11 -11 -10 -11 -12 -11 -12 -11
-12 -10 -10 -9 -9 -9 -9 -10 -7 -5 -5 -5 -6 -6 -7 -9 -9 -9 -10 -11 -11 -11 -12 -13 -13 -13 -13 -14 -16 -14 -13 -12 -11 -11 -11 -11 -11 -11 -11 -10 -10 -10 -10
-10 -9 -9 -9 -8 -9 -11 -7 -4 -4 -5 -6 -9 -9 -9 -9 -9 -10 -12 -13 -14 -15 -17 -18 -17 -16 -15 -12 -12 -12 -12 -12 -12 -11 -11 -11 -11 -10 -10 -11 -11 -9 -11
-9 -9 -8 -8 -7 -10 -11 -5 -5 -6 -7 -8 -8 -8 -8 -9 -11 -12 -13 -14 -15 -19 -20 -16 -15 -14 -13 -12 -12 -11 -11 -12 -12 -12 -12 -12 -12 -13 -11 -9 -9 -10 -10
-9 -7 -7 -6 -7 -8 -9 -6 -7 -7 -7 -7 -7 -8 -9 -10 -11 -12 -13 -14 -17 -18 -16 -15 -13 -12 -12 -12 -12 -12 -12 -12 -11 -12 -11 -11 -11 -11 -12 -13 -12 -11 -12
-7 -6 -6 -5 -5 -7 -8 -6 -7 -7 -6 -7 -8 -9 -10 -11 -11 -12 -13 -15 -17 -15 -14 -14 -13 -13 -12 -12 -12 -12 -12 -11 -11 -11 -10 -10 -10 -10 -10 -10 -11 -11 -10
-6 -5 -5 -5 -5 -6 -6 -6 -6 -7 -8 -8 -8 -9 -10 -11 -11 -12 -13 -14 -15 -15 -14 -14 -13 -13 -13 -13 -13 -12 -12 -12 -11 -11 -11 -10 -10 -10 -9 -9 -9 -9 -9
-6 -5 -5 -5 -6 -6 -6 -6 -7 -7 -8 -8 -9 -10 -11 -11 -12 -12 -13 -14 -14 -15 -14 -14 -14 -14 -14 -14 -13 -13 -13 -12 -12 -12 -12 -11 -11 -10 -10 -9 -8 -8 -8
-7 -7 -6 -6 -7 -7 -7 -7 -8 -8 -8 -9 -10 -11 -11 -11 -12 -12 -13 -13 -15 -16 -15 -15 -15 -15 -14 -14 -14 -13 -13 -13 -13 -12 -12 -12 -11 -11 -10 -10 -9 -8 -8
-7 -7 -6 -8 -7 -7 -8 -8 -8 -9 -9 -10 -10 -11 -11 -11 -12 -12 -12 -13 -16 -16 -17 -17 -16 -16 -15 -15 -15 -14 -14 -14 -13 -13 -12 -12 -11 -11 -10 -10 -10 -9 -9
-7 -7 -7 -8 -8 -8 -9 -9 -9 -9 -10 -9 -10 -11 -11 -12 -12 -12 -13 -15 -17 -16 -22 -28 -18 -16 -16 -19 -19 -18 -16 -16 -15 -13 -13 -12 -11 -11 -11 -10 -10 -10 -10
-8 -8 -8 -9 -9 -9 -10 -10 -10 -10 -10 -10 -11 -11 -12 -12 -12 -12 -14 -14 -16 -16 -20 -32 -26 -21 -21 -22 -20 -19 -20 -23 -18 -14 -13 -12 -12 -11 -11 -11 -11 -10 -10
-8 -8 -8 -9 -9 -9 -10 -10 -10 -10 -10 -11 -11 -11 -12 -12 -12 -12 -13 -13 -15 -17 -17 -29 -32 -28 -27 -25 -24 -25 -30 -29 -24 -15 -13 -13 -13 -12 -12 -12 -12 -11 -11
-8 -8 -9 -9 -8 -9 -10 -10 -10 -10 -10 -11 -11 -11 -11 -11 -12 -12 -12 -13 -14 -16 -17 -21 -32 -33 -32 -31 -29 -29 -30 -31 -28 -18 -14 -14 -14 -13 -13 -13 -13 -12 -12
-8 -9 -9 -9 -9 -10 -10 -10 -11 -10 -11 -11 -11 -10 -11 -11 -12 -12 -12 -13 -13 -15 -18 -17 -24 -32 -32 -32 -31 -30 -30 -31 -32 -26 -21 -19 -18 -14 -14 -13 -13 -14 -14
-9 -8 -9 -10 -10 -11 -11 -11 -11 -11 -11 -11 -11 -10 -10 -11 -11 -11 -12 -12 -13 -14 -16 -20 -20 -23 -28 -31 -31 -30 -29 -29 -31 -31 -27 -24 -24 -21 -16 -16 -15 -14 -17
-8 -9 -10 -10 -11 -10 -11 -11 -11 -11 -10 -10 -10 -10 -10 -11 -11 -11 -12 -12 -13 -14 -16 -19 -23 -27 -28 -27 -24 -27 -28 -28 -29 -31 -31 -29 -28 -28 -23 -22 -19 -19 -22
-8 -9 -9 -9 -9 -10 -11 -11 -11 -11 -10 -10 -11 -11 -11 -11 -11 -11 -12 -12 -12 -14 -16 -20 -23 -23 -26 -28 -28 -28 -27 -25 -27 -30 -31 -32 -33 -33 -33 -31 -30 -29 -28
-8 -9 -9 -9 -9 -9 -9 -10 -11 -11 -11 -11 -10 -10 -10 -10 -10 -12 -12 -12 -12 -13 -14 -19 -22 -20 -19 -20 -23 -27 -21 -17 -19 -27 -31 -33 -34 -34 -33 -33 -33 -33 -32
-7 -8 -8 -8 -9 -9 -9 -10 -10 -10 -10 -11 -11 -11 -11 -10 -11 -12 -12 -12 -12 -13 -14 -15 -20 -19 -15 -15 -15 -15 -15 -19 -23 -26 -30 -33 -34 -33 -31 -30 -29 -29 -30
-8 -7 -7 -8 -8 -8 -8 -9 -10 -10 -10 -10 -11 -11 -11 -11 -10 -11 -11 -11 -12 -12 -13 -15 -17 -17 -15 -15 -15 -15 -18 -22 -24 -26 -28 -31 -32 -31 -30 -29 -29 -29 -29

GFSGL_850_dewp_042.txt.gz
Dewpoint
-2 -4 -4 -4 -5 -5 -6 -6 -5 -5 -4 -3 -4 -5 -5 -6 -6 -6 -6 -8 -9 -10 -10 -9 -9 -9 -9 -10 -11 -11 -12 -12 -11 -14 -13 -14 -14 -14 -10 -9 -10 -11 -11
-4 -4 -4 -3 -4 -5 -5 -5 -5 -5 -6 -3 -4 -4 -4 -4 -6 -5 -8 -9 -10 -10 -10 -10 -10 -10 -11 -13 -13 -14 -14 -14 -12 -11 -12 -12 -11 -11 -7 -8 -10 -11 -12
-4 -4 -6 -10 -14 -12 -7 -7 -9 -8 -6 -5 -4 -4 -3 -4 -5 -6 -8 -10 -10 -10 -10 -10 -11 -13 -13 -13 -13 -14 -14 -14 -11 -10 -10 -10 -9 -8 -8 -8 -9 -10 -11
-10 -12 -14 -14 -13 -11 -11 -11 -11 -10 -8 -6 -4 -4 -3 -5 -5 -8 -8 -10 -10 -10 -10 -12 -13 -13 -13 -12 -11 -11 -12 -12 -14 -13 -12 -10 -10 -11 -9 -9 -8 -9 -11
-12 -14 -13 -11 -10 -10 -10 -10 -11 -9 -6 -5 -3 -4 -4 -5 -7 -7 -8 -9 -9 -10 -12 -13 -12 -12 -11 -11 -11 -11 -11 -12 -12 -12 -12 -11 -12 -12 -11 -10 -10 -11 -12
-14 -13 -11 -10 -9 -9 -8 -9 -11 -8 -4 -4 -6 -5 -6 -6 -7 -8 -9 -9 -10 -13 -13 -14 -15 -16 -15 -14 -13 -14 -12 -12 -12 -12 -11 -11 -12 -12 -12 -11 -10 -10 -11
-14 -11 -10 -9 -8 -8 -7 -10 -11 -6 -4 -5 -7 -7 -8 -9 -8 -8 -9 -11 -13 -13 -15 -17 -19 -18 -16 -15 -14 -13 -13 -13 -12 -12 -11 -11 -11 -11 -11 -10 -11 -10 -10
-15 -13 -9 -8 -7 -6 -7 -8 -9 -6 -8 -8 -8 -9 -8 -8 -7 -9 -11 -12 -13 -15 -18 -18 -16 -15 -14 -13 -12 -12 -12 -12 -11 -11 -11 -12 -12 -12 -12 -12 -10 -10 -11
-17 -15 -9 -7 -6 -6 -6 -7 -7 -7 -8 -8 -7 -7 -7 -8 -9 -11 -12 -13 -15 -16 -18 -16 -15 -13 -13 -12 -12 -12 -13 -13 -11 -11 -11 -11 -11 -11 -11 -11 -10 -10 -10
-17 -15 -11 -6 -5 -6 -5 -6 -7 -6 -6 -7 -7 -7 -8 -9 -10 -11 -12 -13 -14 -16 -17 -16 -14 -13 -12 -13 -12 -12 -13 -12 -12 -12 -11 -11 -11 -11 -11 -11 -12 -11 -10
-16 -14 -9 -6 -6 -5 -6 -6 -6 -6 -6 -7 -8 -8 -8 -10 -11 -11 -12 -13 -14 -16 -16 -15 -14 -13 -13 -13 -13 -13 -13 -13 -12 -12 -11 -11 -10 -10 -10 -10 -10 -12 -12
-15 -12 -8 -6 -6 -6 -7 -6 -7 -6 -7 -8 -8 -9 -9 -11 -11 -12 -12 -13 -14 -16 -16 -16 -15 -14 -14 -14 -13 -13 -13 -13 -13 -12 -12 -12 -11 -11 -10 -10 -9 -9 -9
-13 -10 -10 -8 -7 -7 -7 -7 -7 -7 -8 -8 -9 -10 -11 -11 -11 -12 -12 -13 -16 -17 -16 -17 -17 -15 -15 -15 -14 -14 -13 -13 -13 -13 -12 -12 -12 -11 -11 -10 -9 -9 -9
-10 -8 -8 -7 -7 -8 -7 -7 -8 -8 -9 -9 -9 -10 -11 -11 -11 -12 -12 -14 -17 -18 -17 -23 -22 -16 -16 -15 -16 -14 -14 -14 -14 -13 -13 -12 -12 -11 -10 -10 -9 -9 -8
-9 -8 -8 -8 -8 -9 -8 -8 -9 -9 -9 -10 -10 -10 -11 -11 -12 -12 -12 -14 -15 -19 -17 -25 -31 -20 -17 -19 -22 -20 -19 -18 -16 -13 -13 -12 -12 -11 -11 -10 -10 -10 -9
-8 -8 -8 -8 -9 -9 -9 -9 -10 -10 -10 -10 -10 -11 -11 -11 -12 -12 -13 -14 -15 -18 -17 -22 -33 -28 -26 -23 -25 -25 -29 -27 -19 -14 -13 -13 -12 -12 -11 -11 -11 -10 -10
-7 -8 -8 -8 -8 -9 -10 -10 -11 -11 -10 -10 -10 -11 -11 -12 -12 -12 -13 -13 -14 -16 -18 -18 -31 -32 -31 -29 -27 -28 -30 -31 -25 -15 -14 -13 -13 -12 -12 -12 -11 -11 -10
-7 -8 -8 -8 -8 -9 -8 -10 -10 -11 -11 -11 -11 -11 -11 -11 -11 -12 -13 -13 -13 -15 -20 -17 -23 -32 -32 -32 -30 -30 -30 -31 -29 -18 -15 -14 -13 -13 -13 -13 -13 -12 -12
-8 -8 -9 -9 -9 -9 -10 -10 -11 -11 -11 -10 -11 -11 -11 -10 -11 -12 -12 -12 -13 -13 -18 -20 -18 -23 -31 -32 -31 -30 -29 -30 -31 -28 -21 -19 -18 -15 -14 -13 -13 -13 -14
-8 -8 -9 -9 -10 -10 -10 -11 -11 -11 -11 -11 -11 -11 -10 -10 -11 -11 -12 -12 -13 -13 -15 -20 -21 -20 -22 -27 -30 -29 -28 -28 -29 -31 -27 -24 -23 -21 -17 -16 -16 -15 -16
-8 -8 -8 -9 -11 -10 -10 -10 -10 -11 -11 -11 -11 -11 -10 -10 -11 -11 -11 -12 -12 -13 -14 -18 -21 -23 -26 -27 -23 -23 -26 -27 -28 -30 -31 -29 -28 -28 -22 -22 -20 -18 -22
-8 -8 -8 -9 -9 -9 -10 -11 -11 -11 -11 -11 -11 -11 -10 -10 -11 -11 -11 -11 -12 -13 -13 -16 -21 -22 -22 -26 -28 -28 -27 -26 -25 -29 -31 -31 -32 -32 -31 -29 -28 -28 -25
-7 -8 -9 -9 -9 -9 -9 -10 -10 -10 -11 -11 -11 -11 -10 -10 -10 -11 -11 -11 -11 -12 -12 -13 -18 -21 -20 -19 -20 -24 -27 -20 -17 -21 -30 -32 -34 -34 -33 -32 -32 -32 -31
-8 -8 -8 -8 -8 -9 -9 -9 -9 -9 -10 -10 -11 -11 -11 -11 -11 -11 -10 -12 -12 -12 -12 -13 -14 -18 -19 -16 -15 -15 -16 -16 -19 -23 -28 -31 -33 -33 -31 -29 -29 -29 -30
-8 -8 -8 -8 -8 -8 -8 -8 -8 -9 -9 -9 -10 -11 -11 -11 -11 -11 -10 -11 -11 -12 -12 -13 -14 -15 -18 -16 -15 -15 -15 -18 -21 -24 -27 -30 -32 -31 -30 -29 -29 -29 -29
-8 -8 -8 -8 -8 -8 -8 -8 -8 -8 -8 -9 -9 -10 -11 -10 -11 -11 -11 -10 -11 -11 -12 -13 -13 -14 -16 -16 -15 -15 -16 -20 -23 -23 -25 -28 -30 -30 -29 -29 -29 -29 -29

GFSGL_850_dewp_045.txt.gz
Dewpoint
-3 -4 -4 -4 -4 -4 -7 -10 -5 -5 -6 -7 -8 -5 -3 -5 -4 -5 -5 -5 -7 -8 -10 -10 -10 -10 -10 -10 -11 -10 -10 -10 -10 -12 -11 -10 -9 -9 -8 -8 -8 -8 -9
-7 -5 -5 -8 -12 -15 -15 -12 -11 -12 -12 -10 -8 -4 -3 -4 -4 -3 -4 -8 -7 -10 -11 -10 -10 -10 -11 -11 -10 -10 -11 -10 -11 -11 -11 -10 -10 -9 -9 -8 -8 -9 -9
-8 -9 -11 -13 -17 -14 -11 -10 -11 -13 -13 -11 -8 -4 -3 -3 -4 -4 -5 -8 -8 -10 -10 -9 -10 -11 -10 -9 -9 -10 -10 -10 -10 -10 -11 -11 -11 -10 -9 -9 -9 -8 -8
-12 -12 -16 -15 -11 -10 -10 -10 -12 -12 -12 -12 -8 -5 -5 -5 -4 -5 -7 -7 -9 -9 -9 -10 -12 -11 -9 -9 -10 -10 -10 -10 -10 -11 -12 -12 -12 -11 -11 -10 -10 -10 -9
-14 -17 -15 -11 -11 -10 -10 -10 -11 -10 -11 -9 -6 -5 -7 -6 -5 -6 -7 -9 -9 -9 -11 -13 -14 -15 -16 -16 -11 -11 -10 -11 -11 -12 -12 -12 -12 -12 -12 -11 -10 -10 -10
-17 -16 -13 -12 -12 -11 -9 -8 -8 -8 -10 -5 -6 -7 -7 -6 -7 -9 -9 -8 -9 -11 -13 -14 -16 -18 -16 -15 -15 -14 -12 -12 -11 -11 -11 -11 -11 -12 -11 -10 -10 -10 -10
-18 -19 -18 -15 -11 -9 -7 -6 -7 -8 -8 -7 -8 -6 -8 -8 -8 -8 -8 -10 -12 -13 -14 -16 -18 -15 -13 -12 -12 -12 -12 -12 -12 -11 -11 -11 -11 -11 -11 -10 -10 -10 -10
-19 -20 -19 -16 -12 -7 -6 -6 -7 -7 -7 -6 -7 -8 -8 -8 -8 -9 -10 -12 -13 -14 -16 -17 -15 -12 -12 -12 -12 -11 -12 -11 -11 -11 -11 -11 -11 -10 -10 -10 -10 -10 -10
-20 -19 -18 -15 -11 -7 -6 -6 -6 -7 -7 -5 -6 -7 -7 -7 -9 -9 -12 -12 -13 -15 -16 -17 -14 -13 -13 -13 -12 -12 -12 -12 -12 -12 -12 -12 -11 -11 -11 -11 -10 -10 -10
-18 -18 -16 -14 -11 -7 -7 -7 -7 -8 -7 -7 -7 -7 -8 -9 -9 -11 -12 -12 -14 -14 -13 -13 -13 -13 -13 -13 -13 -13 -13 -12 -12 -12 -12 -11 -11 -10 -11 -10 -10 -11 -10
-16 -16 -15 -13 -11 -9 -8 -7 -8 -7 -6 -6 -7 -8 -8 -9 -11 -12 -12 -12 -12 -12 -12 -13 -13 -16 -14 -14 -14 -14 -13 -13 -13 -13 -12 -12 -11 -11 -10 -10 -10 -10 -10
-15 -14 -13 -12 -12 -10 -8 -8 -8 -7 -7 -7 -8 -8 -10 -11 -12 -11 -12 -12 -13 -14 -16 -14 -17 -21 -16 -15 -14 -14 -14 -14 -13 -13 -13 -12 -12 -11 -11 -11 -10 -9 -9
-13 -14 -12 -12 -11 -8 -9 -8 -8 -8 -7 -8 -9 -10 -11 -11 -11 -11 -12 -13 -13 -15 -18 -17 -24 -26 -16 -16 -18 -19 -15 -14 -14 -13 -13 -13 -12 -12 -11 -10 -10 -9 -9
-13 -11 -10 -10 -10 -8 -9 -8 -8 -8 -9 -9 -9 -10 -10 -11 -11 -12 -12 -13 -14 -15 -19 -18 -24 -30 -21 -19 -23 -23 -21 -23 -18 -14 -13 -13 -12 -11 -11 -10 -10 -9 -9
-10 -8 -8 -10 -9 -9 -9 -9 -9 -10 -11 -9 -10 -10 -10 -10 -10 -12 -12 -12 -13 -14 -18 -18 -21 -31 -28 -25 -24 -28 -30 -29 -22 -14 -13 -13 -12 -12 -11 -11 -10 -10 -9
-7 -7 -7 -8 -8 -8 -9 -10 -10 -11 -11 -10 -11 -11 -11 -11 -11 -12 -12 -12 -13 -14 -16 -19 -18 -27 -31 -31 -28 -29 -30 -31 -26 -16 -14 -13 -13 -12 -12 -12 -11 -11 -10
-7 -8 -8 -8 -8 -8 -8 -9 -9 -10 -11 -11 -11 -11 -11 -11 -11 -11 -11 -12 -13 -13 -14 -20 -18 -21 -28 -31 -31 -30 -29 -30 -31 -22 -16 -14 -14 -13 -13 -12 -12 -12 -11
-8 -8 -8 -8 -8 -9 -9 -9 -9 -10 -10 -10 -12 -11 -11 -11 -11 -10 -11 -12 -12 -13 -13 -16 -20 -18 -21 -28 -30 -30 -29 -28 -29 -30 -24 -21 -19 -16 -14 -13 -13 -13 -13
-8 -8 -8 -8 -9 -9 -11 -11 -11 -11 -10 -10 -11 -11 -11 -11 -11 -10 -11 -11 -12 -12 -13 -14 -18 -21 -20 -21 -23 -26 -27 -27 -28 -30 -29 -25 -24 -22 -17 -15 -15 -14 -15
-8 -8 -8 -8 -9 -9 -9 -10 -10 -11 -10 -10 -10 -11 -11 -11 -11 -11 -10 -11 -11 -12 -13 -13 -15 -20 -21 -24 -24 -21 -21 -24 -26 -29 -30 -28 -27 -27 -22 -21 -19 -17 -20
-7 -8 -8 -8 -9 -9 -9 -10 -10 -11 -11 -11 -11 -12 -11 -11 -10 -11 -10 -10 -11 -11 -12 -13 -14 -17 -20 -21 -24 -27 -25 -24 -24 -26 -30 -30 -30 -31 -29 -27 -25 -25 -20
-8 -7 -8 -8 -8 -8 -9 -9 -9 -10 -10 -11 -11 -12 -12 -11 -11 -11 -11 -11 -12 -11 -11 -12 -13 -15 -19 -19 -19 -21 -24 -25 -19 -19 -27 -30 -32 -32 -32 -32 -31 -30 -26
-7 -8 -8 -8 -8 -8 -8 -9 -9 -9 -9 -10 -10 -10 -11 -12 -12 -11 -11 -11 -10 -11 -12 -12 -12 -13 -16 -19 -17 -16 -17 -19 -17 -20 -25 -29 -32 -33 -31 -29 -29 -30 -29
-9 -9 -8 -9 -9 -8 -8 -8 -8 -8 -8 -9 -9 -9 -9 -10 -11 -11 -11 -11 -11 -10 -12 -12 -13 -13 -14 -17 -17 -15 -15 -15 -17 -21 -24 -28 -31 -31 -30 -28 -28 -29 -29
-9 -9 -9 -9 -9 -9 -8 -8 -8 -8 -8 -8 -8 -8 -9 -9 -10 -11 -11 -11 -11 -10 -11 -12 -12 -13 -14 -15 -17 -15 -15 -15 -18 -22 -24 -26 -29 -30 -29 -28 -28 -29 -29
-10 -10 -9 -9 -9 -9 -9 -9 -9 -9 -9 -8 -8 -8 -8 -9 -9 -11 -11 -11 -11 -11 -10 -11 -12 -13 -13 -14 -16 -15 -15 -16 -19 -22 -23 -25 -27 -28 -28 -27 -28 -28 -28

GFSGL_850_dewp_048.txt.gz
Dewpoint
-3 -3 -3 -4 -6 -6 -6 -6 -7 -7 -8 -8 -8 -6 -5 -5 -3 -3 -3 -4 -4 -4 -6 -6 -8 -8 -9 -10 -10 -11 -11 -12 -12 -13 -13 -13 -12 -12 -11 -9 -8 -10 -10
-3 -5 -7 -7 -7 -8 -8 -8 -8 -8 -7 -7 -6 -4 -4 -4 -3 -4 -5 -4 -4 -5 -6 -7 -8 -9 -9 -10 -11 -11 -11 -11 -11 -12 -12 -12 -12 -12 -12 -11 -10 -10 -10
-9 -9 -8 -9 -10 -9 -8 -7 -7 -6 -6 -5 -4 -4 -4 -3 -3 -4 -4 -5 -6 -6 -7 -7 -8 -9 -10 -10 -10 -10 -11 -11 -11 -10 -11 -11 -12 -12 -12 -11 -10 -10 -10
-9 -10 -12 -11 -8 -8 -7 -7 -6 -5 -5 -4 -4 -4 -6 -6 -7 -7 -5 -5 -5 -6 -7 -7 -9 -9 -9 -10 -10 -11 -12 -12 -11 -10 -10 -11 -12 -12 -11 -11 -12 -11 -10
-13 -14 -11 -8 -7 -7 -6 -5 -5 -4 -4 -4 -4 -5 -7 -6 -5 -5 -5 -6 -7 -7 -8 -9 -11 -11 -14 -15 -11 -11 -11 -11 -11 -11 -12 -11 -12 -11 -11 -12 -12 -11 -11
-18 -11 -10 -9 -7 -6 -6 -5 -5 -5 -5 -4 -4 -4 -5 -5 -8 -9 -9 -7 -8 -9 -10 -11 -12 -13 -12 -12 -11 -12 -12 -11 -11 -11 -11 -10 -11 -11 -11 -10 -10 -11 -10
-14 -12 -11 -11 -8 -7 -6 -5 -5 -5 -4 -4 -4 -4 -5 -5 -8 -8 -8 -9 -9 -10 -10 -11 -12 -13 -11 -11 -11 -12 -11 -10 -11 -11 -11 -11 -10 -10 -10 -10 -11 -11 -10
-18 -18 -15 -11 -11 -7 -5 -5 -5 -5 -4 -5 -5 -5 -5 -6 -8 -8 -9 -9 -9 -9 -10 -10 -11 -11 -11 -12 -12 -11 -11 -11 -11 -11 -11 -11 -10 -11 -10 -10 -10 -9 -10
-14 -12 -12 -13 -7 -5 -5 -5 -5 -5 -5 -6 -5 -6 -6 -6 -8 -9 -10 -9 -9 -9 -10 -10 -11 -11 -11 -13 -13 -12 -11 -11 -12 -11 -12 -12 -12 -12 -11 -10 -10 -9 -9
-10 -16 -13 -7 -5 -5 -5 -5 -5 -6 -5 -6 -6 -6 -7 -7 -8 -10 -11 -10 -10 -10 -10 -11 -11 -12 -16 -13 -13 -13 -12 -12 -12 -12 -12 -11 -11 -10 -10 -10 -9 -9 -10
-15 -12 -9 -7 -6 -7 -10 -6 -6 -6 -6 -6 -7 -7 -7 -8 -9 -12 -12 -12 -10 -10 -10 -11 -11 -12 -25 -17 -14 -13 -13 -14 -13 -12 -12 -11 -11 -10 -10 -10 -10 -9 -9
-10 -8 -8 -6 -6 -6 -6 -6 -6 -6 -7 -7 -7 -7 -8 -8 -9 -11 -12 -12 -13 -12 -11 -11 -12 -18 -27 -19 -15 -18 -22 -15 -13 -13 -12 -12 -11 -11 -11 -11 -11 -10 -9
-11 -8 -6 -6 -6 -6 -6 -6 -7 -7 -7 -7 -8 -8 -8 -8 -8 -9 -11 -12 -13 -13 -12 -16 -19 -19 -28 -17 -16 -23 -16 -13 -14 -13 -13 -12 -12 -12 -11 -10 -10 -9 -9
-7 -7 -10 -9 -7 -6 -7 -7 -7 -7 -7 -8 -8 -8 -9 -9 -9 -9 -9 -10 -11 -11 -11 -12 -17 -17 -19 -17 -13 -13 -14 -16 -17 -14 -13 -13 -13 -12 -11 -11 -10 -9 -9
-7 -7 -7 -7 -7 -7 -7 -7 -7 -8 -8 -9 -9 -9 -9 -9 -9 -10 -11 -10 -11 -11 -13 -12 -12 -12 -14 -15 -14 -14 -14 -16 -16 -14 -14 -13 -13 -12 -12 -11 -11 -10 -9
-6 -7 -7 -7 -7 -7 -8 -8 -8 -9 -9 -11 -12 -11 -11 -10 -10 -11 -11 -12 -12 -13 -13 -12 -12 -12 -13 -14 -14 -14 -14 -15 -23 -21 -14 -14 -14 -13 -13 -12 -11 -11 -10
-8 -7 -7 -8 -8 -8 -8 -8 -8 -8 -9 -9 -10 -11 -11 -11 -11 -11 -11 -11 -12 -13 -12 -11 -11 -12 -13 -13 -15 -15 -15 -17 -25 -24 -16 -15 -14 -14 -13 -12 -12 -12 -11
-8 -7 -7 -8 -8 -8 -8 -8 -8 -8 -9 -9 -9 -10 -10 -11 -11 -11 -11 -11 -11 -11 -12 -11 -11 -12 -13 -13 -15 -15 -17 -22 -21 -27 -23 -18 -15 -15 -13 -13 -13 -13 -12
-7 -7 -7 -8 -8 -8 -8 -8 -9 -9 -9 -9 -9 -9 -10 -11 -11 -11 -11 -11 -11 -10 -11 -11 -11 -12 -12 -13 -14 -20 -20 -17 -21 -25 -23 -21 -19 -16 -14 -14 -13 -13 -13
-6 -7 -7 -8 -8 -8 -8 -8 -8 -9 -9 -9 -9 -9 -10 -10 -10 -10 -11 -10 -10 -11 -10 -11 -11 -12 -12 -13 -14 -18 -19 -15 -17 -21 -24 -20 -21 -20 -15 -15 -14 -14 -14
-7 -7 -7 -8 -8 -8 -8 -8 -8 -9 -9 -9 -9 -9 -10 -10 -10 -10 -10 -10 -10 -10 -10 -11 -11 -12 -12 -13 -14 -17 -18 -21 -21 -19 -20 -24 -30 -22 -23 -17 -15 -15 -14
-9 -8 -7 -8 -8 -8 -8 -8 -8 -8 -8 -9 -9 -9 -9 -10 -10 -10 -10 -10 -11 -11 -11 -11 -11 -11 -12 -13 -14 -16 -17 -18 -21 -17 -19 -24 -27 -18 -17 -16 -18 -16 -17
-9 -8 -8 -9 -9 -9 -9 -8 -8 -8 -8 -8 -8 -8 -8 -9 -9 -9 -10 -10 -11 -11 -11 -11 -11 -11 -12 -13 -15 -17 -16 -16 -17 -16 -20 -24 -26 -22 -22 -16 -17 -21 -26
-8 -9 -9 -9 -9 -9 -9 -9 -9 -9 -9 -9 -9 -8 -8 -8 -8 -9 -9 -10 -11 -11 -11 -11 -11 -12 -12 -12 -14 -16 -16 -15 -15 -17 -21 -24 -27 -27 -28 -21 -21 -27 -28
-8 -9 -9 -9 -10 -9 -9 -9 -9 -9 -9 -9 -9 -9 -9 -9 -9 -8 -8 -9 -10 -10 -11 -11 -10 -11 -12 -12 -13 -15 -16 -15 -15 -17 -21 -23 -26 -28 -28 -27 -27 -25 -28
-10 -10 -10 -11 -10 -10 -10 -9 -10 -10 -10 -10 -9 -9 -9 -9 -9 -9 -9 -9 -10 -10 -11 -11 -11 -10 -11 -12 -13 -14 -15 -15 -15 -17 -21 -22 -24 -25 -26 -26 -26 -26 -27

GFSGL_850_dewp_051.txt.gz
Dewpoint
-2 1 -0 -2 -4 -5 -6 -6 -7 -7 -7 -7 -7 -7 -6 -5 -6 -5 -4 -3 -4 -4 -5 -4 -5 -6 -7 -7 -8 -9 -11 -12 -11 -11 -12 -12 -12 -12 -12 -11 -11 -10 -10
1 -4 -5 -6 -6 -7 -8 -8 -7 -7 -6 -6 -6 -6 -5 -6 -6 -5 -4 -4 -4 -4 -4 -4 -5 -6 -7 -8 -10 -11 -11 -11 -11 -11 -11 -12 -12 -11 -11 -11 -11 -11 -10
-4 -8 -8 -8 -9 -9 -8 -7 -7 -6 -6 -5 -5 -5 -5 -4 -3 -6 -4 -4 -5 -5 -5 -5 -6 -6 -8 -10 -10 -10 -11 -12 -12 -12 -12 -11 -10 -10 -11 -11 -11 -10 -11
-9 -9 -11 -10 -8 -8 -7 -7 -6 -6 -5 -5 -5 -5 -4 -5 -4 -4 -5 -5 -5 -5 -5 -6 -7 -10 -10 -9 -10 -11 -11 -11 -12 -12 -12 -12 -11 -11 -11 -11 -10 -10 -10
-8 -11 -11 -9 -8 -8 -7 -6 -6 -5 -5 -6 -5 -5 -4 -5 -4 -5 -5 -5 -6 -6 -7 -10 -11 -11 -11 -13 -12 -11 -10 -11 -11 -12 -12 -11 -11 -11 -10 -9 -10 -10 -10
-10 -11 -11 -10 -10 -9 -7 -6 -6 -6 -6 -5 -4 -5 -4 -4 -5 -6 -9 -7 -7 -8 -10 -10 -11 -11 -12 -12 -11 -10 -11 -11 -11 -11 -11 -10 -10 -11 -10 -9 -9 -9 -9
-11 -12 -12 -11 -10 -9 -9 -8 -6 -6 -6 -4 -5 -5 -5 -4 -5 -6 -9 -8 -8 -9 -10 -10 -11 -12 -11 -11 -10 -12 -11 -11 -11 -11 -11 -10 -10 -9 -10 -10 -10 -10 -9
-11 -11 -11 -10 -9 -8 -7 -6 -6 -6 -6 -5 -5 -4 -7 -5 -5 -7 -8 -9 -9 -9 -9 -10 -10 -11 -11 -11 -12 -12 -11 -11 -11 -11 -11 -11 -10 -11 -11 -11 -11 -11 -11
-12 -11 -10 -9 -8 -7 -6 -6 -6 -6 -6 -6 -5 -5 -5 -5 -6 -8 -9 -9 -8 -8 -9 -10 -10 -11 -11 -13 -19 -12 -12 -11 -11 -11 -11 -12 -13 -13 -12 -11 -11 -9 -9
-11 -10 -9 -7 -7 -6 -6 -5 -5 -6 -7 -5 -6 -5 -5 -6 -6 -8 -9 -12 -9 -9 -9 -10 -10 -10 -11 -14 -24 -13 -12 -12 -12 -12 -12 -12 -11 -11 -10 -10 -10 -9 -9
-9 -8 -7 -7 -7 -6 -7 -6 -6 -6 -6 -7 -7 -6 -7 -7 -7 -8 -9 -12 -10 -9 -9 -10 -10 -10 -14 -21 -24 -15 -13 -21 -17 -13 -12 -12 -11 -11 -11 -11 -11 -10 -10
-8 -7 -7 -6 -6 -7 -7 -7 -6 -6 -6 -7 -7 -8 -7 -8 -8 -8 -9 -11 -12 -12 -10 -10 -10 -14 -18 -22 -21 -16 -19 -15 -12 -13 -12 -12 -11 -11 -11 -11 -10 -10 -9
-7 -7 -7 -6 -7 -6 -7 -7 -6 -6 -7 -7 -8 -7 -8 -8 -8 -8 -9 -10 -10 -12 -11 -11 -13 -16 -16 -16 -13 -14 -14 -12 -13 -13 -12 -12 -12 -11 -12 -11 -11 -10 -10
-7 -7 -6 -6 -6 -7 -6 -7 -7 -7 -7 -8 -8 -8 -9 -8 -9 -8 -8 -9 -10 -10 -10 -10 -12 -12 -11 -12 -12 -12 -12 -12 -13 -13 -13 -12 -12 -12 -11 -11 -11 -11 -9
-7 -7 -6 -6 -6 -7 -6 -7 -7 -7 -7 -8 -8 -8 -9 -9 -9 -9 -9 -10 -10 -10 -11 -13 -11 -10 -11 -11 -12 -12 -12 -13 -13 -14 -13 -13 -13 -12 -12 -12 -11 -11 -10
-6 -6 -6 -6 -6 -7 -7 -7 -7 -7 -8 -8 -9 -10 -11 -11 -10 -10 -10 -11 -12 -12 -12 -11 -10 -10 -11 -11 -11 -12 -12 -13 -13 -14 -14 -13 -13 -13 -12 -12 -11 -11 -11
-6 -6 -6 -6 -6 -7 -7 -7 -7 -8 -8 -8 -9 -9 -9 -10 -11 -11 -10 -11 -11 -11 -11 -11 -11 -11 -10 -11 -11 -12 -13 -13 -15 -13 -14 -13 -14 -13 -13 -12 -12 -11 -11
-5 -6 -6 -6 -7 -7 -7 -8 -8 -8 -8 -8 -8 -8 -9 -10 -11 -11 -10 -11 -10 -10 -11 -10 -11 -11 -11 -11 -12 -12 -12 -13 -13 -14 -14 -14 -14 -14 -13 -13 -13 -12 -12
-6 -6 -6 -7 -7 -7 -8 -8 -8 -8 -9 -9 -9 -9 -9 -9 -10 -10 -11 -11 -10 -10 -10 -10 -10 -11 -11 -11 -12 -12 -13 -13 -13 -14 -14 -14 -14 -14 -14 -13 -13 -13 -13
-6 -7 -7 -7 -7 -8 -8 -7 -7 -8 -8 -8 -8 -8 -9 -8 -9 -10 -10 -10 -11 -11 -11 -11 -10 -11 -11 -11 -11 -12 -13 -13 -13 -13 -14 -14 -14 -14 -14 -14 -14 -14 -14
-6 -6 -7 -7 -7 -7 -7 -7 -7 -7 -8 -8 -8 -9 -9 -9 -9 -9 -9 -10 -10 -10 -10 -11 -11 -11 -11 -11 -12 -12 -12 -13 -13 -14 -14 -14 -15 -15 -14 -14 -14 -14 -14
-6 -7 -9 -9 -8 -7 -8 -9 -9 -9 -9 -8 -8 -8 -8 -8 -8 -9 -9 -9 -10 -11 -10 -10 -11 -11 -11 -11 -11 -12 -13 -13 -13 -14 -14 -17 -16 -14 -14 -14 -14 -14 -14
-6 -7 -8 -8 -8 -9 -9 -9 -9 -9 -9 -8 -8 -8 -8 -8 -8 -8 -8 -9 -9 -9 -10 -11 -11 -11 -11 -11 -11 -12 -13 -13 -13 -14 -16 -19 -18 -14 -17 -14 -14 -14 -18
-7 -7 -8 -8 -9 -9 -9 -9 -9 -8 -8 -9 -8 -8 -8 -8 -8 -8 -8 -8 -8 -9 -9 -10 -11 -11 -10 -10 -11 -12 -13 -15 -15 -15 -16 -19 -23 -17 -19 -15 -14 -16 -21
-7 -8 -8 -9 -9 -9 -9 -9 -9 -8 -8 -9 -9 -10 -9 -9 -9 -8 -8 -8 -8 -9 -9 -9 -10 -11 -11 -10 -11 -12 -13 -14 -16 -15 -16 -19 -22 -24 -26 -25 -21 -20 -20
-8 -9 -9 -9 -10 -10 -10 -11 -11 -10 -10 -9 -9 -9 -9 -9 -10 -9 -9 -9 -9 -9 -9 -9 -10 -10 -11 -11 -11 -11 -12 -13 -15 -15 -15 -18 -21 -21 -18 -18 -19 -23 -19

GFSGL_850_dewp_054.txt.gz
Dewpoint
0 -1 1 1 0 -3 -5 -5 -6 -7 -6 -6 -6 -6 -6 -5 -5 -6 -5 -5 -5 -4 -4 -5 -6 -4 -4 -5 -6 -8 -9 -9 -9 -10 -10 -10 -10 -11 -11 -12 -13 -13 -12
-1 1 1 -3 -5 -6 -6 -8 -7 -7 -6 -6 -5 -5 -5 -5 -5 -5 -4 -4 -4 -5 -7 -5 -4 -5 -5 -7 -9 -9 -9 -9 -10 -10 -11 -12 -12 -11 -11 -11 -14 -13 -12
0 -5 -6 -7 -7 -8 -8 -8 -7 -7 -6 -5 -5 -5 -5 -5 -5 -8 -7 -6 -5 -6 -5 -6 -6 -8 -7 -8 -10 -10 -10 -12 -13 -11 -11 -12 -12 -12 -12 -12 -13 -12 -11
-6 -6 -8 -10 -10 -8 -7 -7 -6 -6 -5 -5 -5 -6 -5 -5 -6 -6 -6 -6 -6 -7 -6 -6 -7 -8 -10 -10 -11 -12 -13 -12 -12 -11 -12 -12 -12 -13 -13 -11 -10 -11 -10
-7 -8 -10 -10 -9 -8 -8 -8 -7 -5 -5 -5 -6 -5 -4 -7 -4 -5 -5 -7 -6 -5 -6 -7 -9 -10 -11 -11 -12 -12 -10 -10 -11 -12 -12 -12 -12 -11 -11 -11 -10 -10 -12
-8 -10 -10 -11 -11 -11 -11 -10 -8 -7 -7 -6 -5 -5 -5 -6 -4 -4 -4 -5 -9 -8 -8 -9 -10 -11 -11 -12 -11 -10 -10 -11 -12 -11 -11 -11 -12 -13 -10 -10 -10 -11 -11
-9 -11 -11 -12 -11 -10 -9 -8 -8 -7 -6 -5 -5 -5 -7 -6 -6 -6 -5 -5 -9 -10 -9 -9 -9 -10 -11 -10 -11 -12 -14 -19 -12 -12 -11 -11 -10 -11 -11 -11 -13 -14 -13
-11 -11 -11 -10 -10 -9 -8 -7 -6 -6 -6 -6 -5 -6 -6 -6 -6 -5 -5 -7 -9 -10 -9 -8 -10 -9 -9 -10 -12 -13 -18 -18 -13 -12 -11 -11 -12 -12 -14 -13 -12 -12 -12
-10 -9 -11 -10 -9 -7 -7 -6 -6 -6 -6 -6 -6 -6 -7 -5 -6 -5 -6 -8 -9 -11 -10 -11 -9 -9 -10 -11 -12 -16 -22 -17 -13 -12 -14 -15 -13 -13 -12 -11 -11 -10 -11
-11 -11 -13 -10 -7 -7 -6 -6 -6 -7 -7 -6 -6 -6 -8 -6 -6 -7 -7 -8 -9 -12 -13 -10 -10 -9 -10 -11 -13 -19 -22 -16 -20 -19 -14 -14 -13 -12 -12 -11 -10 -10 -10
-11 -11 -12 -8 -7 -7 -7 -7 -7 -6 -6 -5 -6 -7 -8 -7 -6 -6 -7 -8 -9 -12 -10 -10 -10 -10 -10 -11 -18 -21 -18 -16 -16 -14 -14 -14 -13 -13 -12 -12 -12 -12 -11
-11 -12 -10 -7 -7 -8 -8 -6 -6 -6 -6 -6 -7 -8 -8 -9 -8 -7 -8 -9 -9 -10 -11 -12 -11 -10 -12 -16 -16 -16 -14 -14 -13 -12 -15 -13 -14 -13 -13 -12 -11 -10 -10
-12 -8 -7 -7 -6 -8 -9 -10 -6 -6 -6 -8 -9 -9 -9 -9 -9 -9 -8 -8 -9 -10 -11 -12 -12 -12 -13 -12 -13 -12 -12 -13 -13 -14 -14 -14 -14 -14 -13 -12 -12 -12 -12
-8 -8 -7 -7 -7 -7 -7 -8 -7 -6 -6 -6 -7 -7 -7 -7 -8 -10 -8 -9 -8 -9 -10 -10 -11 -12 -11 -11 -11 -11 -12 -12 -12 -13 -13 -16 -14 -13 -14 -13 -12 -11 -11
-8 -7 -7 -7 -6 -6 -6 -7 -7 -7 -7 -6 -6 -7 -7 -9 -11 -10 -9 -8 -8 -9 -10 -10 -11 -12 -10 -11 -12 -12 -12 -13 -12 -13 -15 -15 -14 -14 -15 -14 -12 -12 -12
-8 -9 -9 -8 -7 -7 -6 -7 -7 -7 -8 -8 -8 -8 -8 -8 -9 -10 -11 -10 -10 -10 -11 -11 -11 -11 -11 -11 -12 -12 -12 -13 -12 -13 -14 -14 -14 -14 -15 -13 -12 -13 -12
-6 -6 -6 -6 -6 -7 -7 -8 -8 -8 -8 -8 -8 -8 -8 -9 -8 -9 -11 -11 -10 -10 -11 -11 -11 -11 -11 -11 -12 -12 -11 -12 -13 -13 -13 -14 -14 -14 -15 -13 -13 -13 -13
-6 -7 -6 -6 -6 -7 -7 -7 -8 -8 -9 -9 -10 -10 -9 -9 -9 -9 -9 -10 -11 -11 -11 -11 -11 -11 -11 -11 -12 -11 -11 -12 -13 -13 -14 -14 -14 -14 -15 -14 -14 -13 -14
-8 -6 -5 -6 -6 -7 -7 -7 -8 -7 -7 -8 -8 -9 -9 -8 -8 -9 -9 -9 -11 -11 -11 -10 -10 -11 -10 -10 -11 -12 -12 -12 -13 -14 -14 -14 -14 -14 -15 -14 -15 -15 -14
-6 -5 -5 -6 -6 -6 -7 -7 -7 -7 -7 -7 -7 -8 -8 -8 -8 -9 -9 -9 -9 -10 -11 -11 -11 -11 -11 -11 -10 -11 -12 -12 -13 -13 -13 -14 -14 -14 -15 -14 -15 -15 -14
-4 -5 -5 -5 -5 -6 -7 -7 -7 -8 -8 -8 -9 -9 -8 -8 -8 -8 -8 -8 -9 -9 -9 -9 -9 -10 -10 -10 -10 -11 -12 -12 -13 -13 -13 -14 -14 -17 -14 -15 -14 -14 -15
-7 -7 -5 -6 -6 -7 -8 -9 -9 -9 -9 -9 -9 -9 -8 -8 -8 -8 -8 -8 -9 -9 -9 -9 -9 -9 -10 -10 -10 -11 -12 -12 -12 -13 -14 -15 -16 -17 -14 -15 -14 -14 -15
-9 -8 -7 -6 -7 -8 -8 -8 -9 -9 -9 -8 -8 -8 -8 -8 -8 -8 -8 -8 -8 -8 -8 -9 -9 -9 -10 -10 -10 -10 -11 -11 -12 -13 -14 -15 -17 -20 -17 -18 -15 -15 -21
-10 -11 -7 -7 -7 -8 -8 -8 -8 -8 -8 -8 -8 -8 -8 -9 -9 -9 -8 -8 -8 -8 -8 -8 -8 -9 -9 -10 -10 -11 -11 -11 -12 -14 -15 -15 -17 -21 -21 -22 -18 -17 -20
-10 -10 -8 -8 -8 -9 -9 -10 -10 -10 -10 -10 -10 -10 -9 -9 -9 -9 -9 -9 -9 -9 -9 -9 -9 -9 -9 -10 -10 -11 -11 -11 -13 -14 -16 -15 -17 -20 -23 -25 -24 -22 -20
-9 -9 -9 -10 -10 -10 -11 -11 -12 -12 -12 -12 -12 -12 -11 -11 -10 -10 -10 -9 -9 -9 -10 -9 -9 -9 -9 -10 -10 -11 -11 -11 -11 -12 -15 -15 -16 -19 -21 -20 -20 -21 -21

GFSGL_850_dewp_057.txt.gz
Dewpoint
5 4 3 0 2 -0 -2 -3 -5 -5 -6 -7 -7 -7 -7 -7 -6 -5 -5 -5 -4 -4 -4 -4 -5 -6 -4 -4 -4 -5 -6 -8 -8 -9 -9 -10 -10 -11 -12 -11 -11 -12 -12
3 2 0 -0 -3 -4 -5 -6 -7 -7 -7 -7 -7 -6 -8 -6 -5 -5 -5 -8 -10 -8 -7 -6 -5 -5 -6 -6 -6 -7 -8 -9 -10 -11 -12 -16 -16 -14 -12 -12 -12 -13 -14
1 -0 -3 -5 -5 -5 -8 -8 -8 -8 -7 -8 -7 -7 -6 -5 -5 -5 -5 -8 -7 -9 -8 -8 -6 -6 -6 -7 -9 -10 -10 -11 -13 -14 -14 -15 -15 -15 -13 -14 -14 -13 -12
-0 -6 -6 -6 -5 -10 -9 -8 -8 -9 -7 -6 -6 -7 -5 -5 -5 -5 -6 -6 -7 -7 -7 -6 -6 -7 -9 -10 -10 -11 -12 -13 -13 -12 -13 -15 -13 -13 -13 -12 -14 -14 -13
-5 -8 -7 -8 -10 -10 -10 -11 -11 -10 -9 -7 -6 -6 -5 -5 -5 -6 -6 -5 -5 -6 -6 -6 -7 -9 -9 -10 -12 -11 -11 -11 -11 -13 -17 -13 -12 -13 -12 -11 -10 -11 -13
-7 -8 -8 -9 -12 -16 -16 -15 -19 -14 -9 -8 -6 -6 -5 -5 -5 -8 -7 -6 -6 -5 -6 -8 -9 -9 -10 -11 -11 -10 -10 -12 -14 -19 -15 -12 -12 -12 -10 -11 -12 -13 -14
-7 -9 -11 -12 -13 -11 -11 -18 -12 -8 -7 -6 -5 -5 -6 -5 -6 -9 -7 -7 -6 -6 -8 -10 -9 -9 -9 -10 -10 -10 -11 -14 -18 -19 -13 -12 -11 -11 -12 -12 -13 -13 -13
-9 -11 -7 -7 -6 -11 -11 -10 -8 -7 -6 -6 -6 -5 -6 -6 -6 -8 -5 -6 -6 -8 -9 -11 -10 -9 -9 -10 -10 -12 -12 -15 -21 -16 -12 -12 -13 -14 -12 -11 -12 -11 -12
-9 -6 -4 -7 -11 -12 -12 -8 -7 -7 -8 -9 -10 -6 -6 -6 -6 -8 -6 -6 -7 -7 -8 -10 -12 -11 -10 -10 -11 -11 -14 -19 -19 -18 -20 -14 -14 -13 -12 -11 -11 -11 -11
-7 -2 -8 -9 -13 -9 -7 -7 -7 -7 -7 -6 -6 -6 -6 -6 -8 -7 -6 -6 -7 -8 -9 -11 -13 -11 -11 -10 -11 -13 -17 -19 -17 -16 -16 -18 -15 -13 -13 -12 -12 -11 -11
-6 -6 -8 -9 -12 -10 -9 -8 -7 -6 -6 -6 -6 -6 -6 -7 -9 -9 -7 -7 -7 -8 -10 -11 -12 -12 -12 -11 -11 -14 -16 -15 -15 -14 -15 -16 -15 -15 -14 -14 -13 -11 -11
-8 -9 -10 -12 -9 -7 -8 -11 -12 -11 -6 -6 -6 -6 -8 -10 -9 -9 -8 -8 -8 -8 -9 -10 -11 -11 -12 -11 -13 -13 -13 -13 -13 -14 -14 -14 -17 -15 -14 -14 -13 -12 -12
-10 -12 -12 -10 -9 -8 -8 -10 -10 -10 -10 -7 -6 -7 -8 -8 -8 -9 -9 -10 -9 -9 -9 -9 -11 -12 -12 -12 -12 -12 -12 -12 -13 -13 -13 -14 -15 -16 -14 -15 -14 -13 -12
-10 -11 -10 -9 -8 -8 -10 -8 -7 -9 -11 -9 -8 -7 -7 -6 -7 -7 -8 -10 -10 -9 -9 -9 -10 -10 -11 -12 -11 -11 -12 -12 -12 -12 -12 -13 -15 -16 -16 -16 -13 -12 -13
-9 -8 -8 -9 -10 -12 -9 -8 -8 -9 -9 -8 -8 -8 -8 -8 -8 -8 -8 -9 -10 -9 -9 -9 -10 -10 -11 -12 -12 -11 -12 -12 -12 -13 -13 -13 -15 -15 -17 -16 -13 -13 -12
-9 -8 -8 -8 -9 -8 -8 -9 -9 -10 -10 -9 -9 -9 -9 -9 -9 -8 -8 -9 -9 -11 -9 -10 -11 -11 -12 -12 -11 -10 -11 -12 -11 -12 -13 -14 -14 -15 -16 -16 -14 -14 -13
-8 -7 -6 -6 -5 -7 -7 -7 -8 -10 -8 -8 -8 -9 -9 -10 -9 -9 -9 -9 -9 -10 -10 -11 -11 -11 -12 -12 -11 -11 -11 -12 -11 -12 -13 -14 -14 -15 -15 -16 -15 -15 -15
-7 -7 -7 -8 -8 -7 -6 -7 -7 -6 -6 -8 -9 -8 -8 -8 -8 -9 -8 -9 -9 -10 -10 -11 -11 -12 -12 -11 -12 -11 -11 -12 -12 -12 -13 -14 -14 -14 -15 -15 -16 -15 -15
-7 -6 -5 -5 -5 -5 -4 -5 -6 -6 -6 -8 -8 -9 -9 -7 -7 -8 -8 -8 -9 -9 -9 -10 -11 -11 -11 -10 -11 -10 -10 -11 -11 -12 -13 -14 -14 -14 -14 -15 -15 -15 -15
-13 -13 -11 -10 -7 -7 -5 -5 -5 -6 -7 -7 -8 -8 -9 -9 -9 -8 -8 -8 -8 -8 -9 -9 -10 -11 -12 -11 -11 -11 -10 -11 -12 -12 -13 -14 -13 -14 -15 -15 -15 -14 -15
-10 -10 -9 -9 -10 -7 -7 -6 -6 -7 -8 -9 -10 -9 -8 -8 -8 -8 -9 -7 -8 -8 -8 -9 -9 -9 -9 -10 -10 -10 -10 -11 -11 -12 -13 -13 -14 -15 -16 -15 -14 -15 -16
-11 -10 -10 -10 -10 -12 -7 -6 -8 -8 -9 -9 -10 -9 -9 -9 -9 -8 -8 -8 -8 -8 -8 -8 -9 -9 -9 -9 -9 -10 -10 -10 -11 -12 -13 -13 -14 -15 -18 -16 -15 -15 -19
-16 -14 -13 -12 -12 -9 -8 -7 -8 -8 -8 -8 -9 -9 -10 -8 -8 -8 -8 -8 -8 -8 -8 -8 -8 -8 -9 -9 -9 -10 -10 -10 -11 -11 -12 -13 -15 -16 -19 -20 -19 -18 -20
-11 -10 -9 -9 -9 -9 -9 -9 -9 -10 -10 -10 -10 -11 -10 -10 -10 -9 -9 -9 -8 -9 -9 -9 -8 -8 -8 -8 -9 -9 -10 -10 -10 -11 -12 -13 -15 -15 -19 -21 -22 -21 -23
-13 -13 -12 -12 -12 -12 -12 -12 -12 -12 -12 -12 -12 -13 -13 -12 -12 -11 -11 -10 -10 -9 -9 -9 -10 -9 -9 -8 -8 -9 -10 -10 -11 -11 -12 -14 -15 -16 -18 -22 -24 -23 -23
-15 -15 -15 -14 -14 -14 -14 -14 -14 -14 -14 -14 -14 -14 -14 -14 -13 -13 -12 -12 -10 -10 -9 -9 -10 -11 -9 -9 -9 -9 -10 -11 -11 -11 -11 -13 -15 -15 -18 -21 -22 -20 -22

GFSGL_850_dewp_060.txt.gz
Dewpoint
5 5 5 5 2 2 2 1 1 -6 -7 -8 -9 -8 -8 -9 -9 -12 -7 -6 -6 -6 -8 -10 -7 -5 -5 -5 -5 -4 -6 -7 -7 -8 -9 -11 -13 -17 -18 -19 -18 -16 -14
5 5 4 2 2 2 -4 -1 -4 -6 -8 -8 -7 -7 -9 -7 -9 -6 -5 -5 -5 -5 -9 -10 -9 -6 -6 -6 -7 -7 -7 -9 -10 -11 -13 -16 -17 -18 -19 -18 -17 -15 -14
4 3 2 3 -2 -5 -4 -4 -8 -8 -7 -7 -10 -10 -6 -7 -7 -5 -5 -5 -5 -7 -7 -8 -9 -7 -6 -7 -8 -9 -10 -10 -12 -12 -14 -16 -18 -20 -17 -15 -14 -14 -14
3 3 -2 -5 -6 -4 -6 -8 -9 -10 -12 -11 -12 -8 -7 -6 -6 -5 -5 -5 -7 -5 -6 -6 -6 -6 -7 -8 -9 -10 -10 -12 -12 -12 -13 -16 -19 -17 -14 -13 -12 -11 -12
1 -4 -6 -7 -7 -6 -7 -12 -13 -8 -7 -13 -10 -8 -6 -6 -5 -5 -5 -6 -7 -6 -5 -5 -6 -7 -8 -8 -9 -10 -11 -11 -11 -12 -15 -19 -18 -14 -12 -12 -11 -13 -14
-2 -5 -8 -8 -7 -10 -10 -9 -4 -5 -13 -14 -8 -7 -6 -5 -5 -5 -6 -8 -9 -7 -7 -5 -7 -7 -8 -9 -9 -10 -10 -10 -11 -13 -17 -20 -15 -12 -12 -12 -14 -13 -12
-5 -8 -9 -11 -10 -7 -3 -4 -9 -12 -11 -9 -7 -6 -6 -6 -5 -6 -6 -6 -8 -7 -6 -7 -9 -9 -9 -9 -9 -9 -10 -11 -11 -14 -20 -17 -17 -16 -15 -15 -13 -11 -12
-7 -9 -10 -7 -3 -5 -10 -11 -13 -11 -10 -9 -9 -11 -11 -9 -6 -6 -6 -7 -8 -6 -7 -8 -8 -9 -10 -10 -9 -10 -11 -12 -13 -19 -18 -18 -18 -14 -13 -12 -11 -12 -12
-9 -9 -5 -4 -6 -9 -10 -13 -11 -9 -8 -9 -8 -9 -8 -7 -6 -6 -7 -9 -6 -6 -7 -7 -8 -10 -11 -12 -11 -11 -12 -13 -17 -18 -16 -15 -16 -16 -13 -13 -13 -12 -12
-7 -5 -2 -9 -9 -10 -12 -12 -10 -10 -9 -8 -7 -7 -6 -6 -6 -6 -9 -9 -8 -7 -7 -8 -9 -11 -12 -11 -12 -11 -12 -15 -16 -16 -16 -16 -17 -17 -16 -14 -13 -12 -12
-3 -3 -8 -8 -10 -11 -12 -10 -10 -11 -12 -12 -12 -7 -6 -6 -6 -9 -9 -9 -9 -7 -8 -8 -8 -10 -11 -12 -12 -12 -14 -14 -14 -14 -14 -15 -15 -15 -17 -16 -14 -13 -13
-7 -10 -14 -15 -15 -13 -11 -10 -11 -12 -12 -11 -11 -12 -8 -6 -7 -8 -9 -10 -10 -9 -10 -10 -9 -8 -10 -12 -13 -13 -13 -12 -13 -12 -13 -14 -14 -14 -16 -16 -16 -16 -13
-15 -16 -15 -14 -13 -12 -11 -11 -11 -12 -11 -11 -12 -13 -12 -10 -7 -7 -7 -7 -8 -8 -9 -10 -9 -9 -9 -11 -11 -11 -12 -12 -12 -12 -13 -14 -13 -13 -15 -17 -18 -14 -13
-14 -13 -12 -11 -12 -11 -10 -10 -11 -11 -9 -9 -10 -12 -11 -10 -9 -9 -8 -7 -8 -8 -9 -10 -9 -8 -9 -10 -10 -11 -12 -11 -12 -12 -12 -13 -13 -13 -16 -17 -16 -13 -14
-10 -10 -9 -9 -9 -8 -8 -8 -8 -9 -9 -8 -8 -9 -9 -10 -10 -9 -8 -8 -9 -8 -9 -10 -11 -9 -9 -10 -11 -11 -12 -11 -11 -12 -12 -12 -12 -14 -16 -17 -16 -14 -14
-8 -8 -7 -7 -7 -7 -6 -5 -6 -6 -8 -8 -7 -7 -8 -9 -10 -10 -9 -8 -8 -8 -9 -9 -10 -10 -10 -11 -11 -12 -12 -11 -11 -12 -12 -12 -12 -14 -16 -16 -17 -16 -15
-8 -9 -9 -9 -8 -7 -6 -5 -5 -6 -6 -6 -7 -7 -6 -8 -8 -8 -8 -8 -8 -8 -9 -9 -10 -10 -10 -11 -11 -12 -11 -12 -11 -12 -12 -11 -12 -15 -15 -16 -16 -17 -16
-15 -13 -13 -15 -16 -14 -12 -9 -7 -6 -6 -6 -5 -6 -6 -7 -8 -8 -7 -7 -8 -8 -9 -9 -9 -9 -10 -11 -11 -11 -12 -11 -11 -11 -11 -11 -13 -14 -15 -15 -17 -16 -16
-21 -24 -24 -21 -14 -9 -8 -8 -9 -7 -7 -8 -6 -6 -7 -8 -9 -9 -10 -8 -7 -8 -8 -8 -9 -9 -9 -11 -11 -11 -11 -11 -11 -11 -11 -11 -13 -14 -15 -15 -17 -16 -16
-27 -24 -22 -20 -17 -12 -12 -12 -12 -10 -8 -7 -7 -8 -10 -10 -10 -9 -9 -9 -8 -8 -8 -8 -8 -8 -9 -9 -11 -12 -11 -10 -10 -10 -11 -11 -13 -14 -14 -16 -16 -17 -16
-27 -25 -19 -16 -13 -12 -11 -11 -10 -8 -7 -8 -9 -9 -8 -8 -9 -9 -9 -9 -8 -8 -8 -8 -8 -8 -8 -9 -9 -10 -11 -11 -10 -10 -10 -12 -13 -14 -14 -17 -16 -17 -17
-17 -13 -11 -11 -10 -10 -11 -10 -9 -9 -8 -9 -9 -9 -9 -9 -9 -9 -9 -8 -8 -8 -8 -8 -8 -8 -8 -8 -9 -9 -9 -10 -10 -10 -10 -12 -12 -13 -15 -18 -17 -20 -18
-17 -15 -15 -13 -13 -13 -13 -12 -12 -11 -11 -11 -11 -10 -11 -11 -10 -10 -9 -10 -9 -9 -9 -9 -9 -9 -8 -8 -8 -9 -9 -10 -10 -10 -10 -11 -12 -13 -15 -18 -20 -22 -20
-18 -17 -16 -16 -15 -15 -14 -14 -14 -14 -14 -14 -13 -13 -13 -13 -13 -12 -12 -11 -11 -11 -10 -9 -9 -9 -9 -9 -9 -8 -9 -9 -10 -10 -10 -11 -11 -13 -15 -16 -20 -24 -23
-20 -18 -17 -17 -16 -16 -15 -15 -15 -15 -15 -15 -15 -15 -15 -15 -14 -14 -13 -13 -12 -12 -11 -11 -10 -9 -9 -9 -9 -9 -9 -9 -10 -10 -11 -11 -12 -14 -15 -16 -21 -24 -23
-21 -20 -18 -17 -17 -17 -16 -16 -17 -16 -16 -16 -16 -16 -16 -16 -16 -15 -16 -15 -14 -13 -12 -11 -10 -10 -10 -11 -10 -9 -9 -9 -10 -11 -11 -11 -12 -14 -15 -16 -20 -22 -22

GFSGL_850_dewp_063.txt.gz
Dewpoint
6 5 5 5 4 3 2 2 3 3 -3 -5 -7 -8 -8 -11 -12 -9 -11 -10 -7 -5 -5 -6 -9 -10 -9 -8 -6 -6 -7 -7 -8 -9 -10 -11 -13 -16 -18 -19 -20 -20 -19
6 5 5 4 3 1 2 4 -2 -4 -6 -8 -8 -8 -12 -11 -9 -10 -9 -7 -5 -5 -5 -7 -8 -8 -8 -7 -6 -6 -7 -8 -10 -10 -11 -13 -15 -17 -19 -20 -18 -17 -15
5 3 2 2 2 3 1 -3 -2 -6 -8 -8 -15 -10 -9 -10 -8 -7 -6 -5 -4 -5 -6 -8 -7 -7 -7 -7 -6 -7 -8 -10 -10 -11 -12 -13 -15 -19 -20 -18 -16 -15 -14
4 3 3 3 4 2 -4 -5 -7 -8 -14 -14 -9 -9 -11 -10 -8 -6 -5 -4 -5 -5 -8 -8 -6 -5 -6 -6 -6 -8 -8 -9 -10 -11 -11 -13 -16 -20 -19 -16 -17 -15 -17
4 4 4 3 -1 -5 -6 -7 -12 -12 -8 -6 -6 -13 -14 -10 -8 -6 -5 -5 -5 -6 -7 -8 -7 -7 -7 -6 -7 -8 -9 -10 -10 -10 -11 -14 -17 -20 -16 -17 -16 -17 -15
4 3 1 -5 -6 -8 -11 -9 -8 -4 -4 -10 -16 -15 -12 -10 -9 -8 -6 -5 -6 -6 -7 -8 -8 -6 -7 -8 -8 -9 -9 -9 -10 -10 -12 -14 -19 -17 -18 -18 -14 -13 -12
2 -3 -7 -9 -10 -10 -6 -3 -3 -10 -16 -17 -14 -12 -11 -11 -11 -11 -7 -6 -6 -7 -8 -7 -6 -8 -9 -8 -8 -9 -9 -9 -10 -11 -12 -17 -18 -17 -16 -16 -15 -12 -12
-6 -8 -10 -8 -4 -3 -3 -6 -12 -18 -17 -14 -13 -13 -13 -13 -11 -9 -7 -6 -6 -7 -9 -6 -7 -8 -8 -8 -9 -9 -9 -10 -10 -12 -15 -18 -17 -16 -16 -15 -12 -13 -14
-9 -9 -5 -5 -1 -1 -9 -11 -16 -18 -14 -13 -14 -15 -15 -14 -8 -6 -5 -6 -7 -9 -9 -7 -7 -7 -8 -10 -11 -10 -10 -11 -12 -15 -17 -16 -15 -16 -16 -16 -16 -15 -15
-8 -7 -5 -2 -0 -9 -13 -17 -18 -15 -13 -13 -14 -14 -13 -14 -11 -6 -6 -6 -9 -10 -9 -8 -7 -8 -8 -9 -11 -11 -11 -12 -13 -15 -15 -15 -15 -15 -15 -15 -16 -14 -13
-4 -1 -0 -7 -10 -16 -18 -17 -15 -13 -13 -14 -14 -13 -12 -13 -13 -9 -6 -6 -8 -10 -9 -9 -8 -9 -8 -8 -10 -11 -12 -12 -13 -13 -13 -14 -14 -14 -14 -14 -16 -16 -15
-1 -4 -10 -15 -16 -16 -15 -14 -14 -13 -13 -13 -13 -12 -12 -13 -13 -13 -10 -7 -7 -8 -9 -9 -9 -9 -8 -9 -9 -11 -12 -11 -12 -12 -12 -13 -13 -13 -13 -14 -16 -18 -16
-14 -15 -14 -14 -13 -12 -11 -11 -10 -10 -10 -10 -10 -10 -10 -11 -11 -11 -11 -10 -8 -7 -7 -8 -8 -8 -8 -9 -9 -10 -11 -10 -11 -11 -12 -12 -13 -13 -13 -14 -16 -18 -16
-12 -11 -10 -9 -9 -9 -8 -8 -8 -8 -7 -7 -6 -7 -8 -8 -9 -9 -10 -10 -9 -9 -9 -8 -9 -9 -9 -8 -9 -9 -10 -10 -11 -11 -12 -12 -12 -12 -13 -13 -16 -18 -18
-12 -11 -10 -9 -8 -8 -7 -7 -6 -6 -6 -5 -5 -5 -5 -6 -7 -7 -8 -10 -10 -9 -9 -9 -8 -9 -10 -10 -10 -9 -10 -11 -11 -11 -11 -12 -12 -12 -12 -14 -16 -18 -18
-11 -11 -11 -12 -12 -13 -14 -16 -16 -16 -15 -11 -8 -6 -6 -5 -5 -6 -6 -8 -8 -8 -8 -9 -9 -9 -9 -10 -10 -10 -11 -11 -12 -11 -11 -12 -12 -12 -12 -15 -16 -17 -18
-19 -18 -19 -23 -29 -30 -29 -23 -16 -21 -10 -12 -13 -9 -8 -8 -6 -6 -7 -7 -8 -7 -8 -9 -8 -9 -9 -9 -10 -10 -10 -11 -11 -11 -12 -11 -11 -12 -13 -15 -15 -18 -18
-24 -31 -33 -33 -32 -31 -28 -19 -12 -12 -14 -18 -20 -10 -8 -7 -7 -7 -7 -8 -8 -8 -7 -8 -8 -9 -9 -9 -9 -10 -11 -11 -11 -11 -12 -11 -12 -12 -13 -14 -15 -17 -17
-34 -33 -31 -29 -24 -19 -13 -12 -11 -10 -10 -10 -10 -9 -7 -8 -8 -9 -9 -8 -9 -9 -9 -8 -8 -8 -8 -8 -9 -9 -11 -11 -11 -11 -11 -11 -11 -12 -13 -14 -16 -17 -17
-31 -29 -25 -21 -16 -13 -12 -11 -11 -11 -10 -10 -9 -9 -9 -8 -9 -10 -10 -9 -8 -8 -8 -8 -8 -8 -8 -8 -8 -9 -9 -12 -11 -11 -11 -11 -11 -12 -12 -14 -16 -17 -18
-29 -26 -22 -20 -16 -13 -12 -13 -14 -13 -14 -12 -11 -11 -11 -10 -9 -9 -9 -9 -9 -10 -9 -9 -9 -8 -8 -8 -8 -8 -9 -10 -12 -11 -11 -11 -11 -12 -13 -14 -17 -18 -19
-25 -24 -21 -20 -18 -16 -15 -15 -15 -15 -14 -14 -13 -13 -12 -12 -11 -11 -11 -10 -10 -10 -10 -9 -9 -9 -9 -9 -9 -8 -9 -9 -10 -10 -10 -11 -11 -11 -12 -14 -17 -20 -21
-24 -23 -22 -21 -19 -18 -17 -16 -16 -16 -15 -15 -15 -15 -15 -14 -14 -13 -13 -12 -12 -11 -10 -10 -10 -9 -9 -9 -9 -9 -9 -9 -9 -9 -10 -10 -10 -11 -12 -15 -16 -20 -22
-23 -23 -23 -21 -20 -19 -18 -17 -17 -16 -16 -16 -16 -16 -16 -16 -15 -15 -14 -14 -13 -13 -12 -12 -11 -10 -10 -9 -9 -9 -9 -9 -9 -9 -10 -10 -10 -11 -12 -14 -15 -20 -23
-22 -22 -22 -21 -20 -19 -19 -18 -18 -17 -17 -17 -17 -17 -17 -17 -17 -16 -16 -15 -15 -16 -14 -13 -12 -12 -11 -10 -9 -9 -9 -9 -9 -9 -9 -11 -11 -11 -12 -14 -15 -19 -23
-21 -21 -20 -20 -20 -19 -19 -19 -19 -19 -19 -19 -19 -19 -18 -18 -18 -17 -17 -16 -17 -18 -21 -16 -13 -13 -12 -11 -11 -10 -11 -10 -9 -9 -10 -10 -11 -11 -13 -15 -16 -19 -22

GFSGL_850_dewp_066.txt.gz
Dewpoint
7 7 6 6 6 7 6 5 4 3 4 3 -2 -6 -7 -8 -10 -9 -7 -9 -8 -7 -6 -5 -5 -8 -10 -9 -9 -8 -7 -7 -7 -8 -9 -10 -11 -12 -15 -18 -20 -21 -20
8 9 7 7 6 5 3 2 3 4 2 -3 -7 -7 -8 -9 -8 -8 -8 -7 -7 -6 -5 -5 -6 -9 -9 -8 -7 -7 -7 -6 -7 -8 -9 -10 -11 -13 -15 -18 -20 -19 -18
9 7 5 4 3 2 1 3 3 -1 -5 -7 -8 -12 -12 -9 -10 -10 -8 -7 -6 -5 -4 -5 -7 -9 -7 -7 -6 -6 -6 -6 -8 -9 -9 -10 -11 -13 -16 -20 -19 -19 -20
7 5 5 4 3 2 3 0 -3 -6 -7 -9 -14 -10 -7 -10 -13 -12 -10 -9 -5 -5 -5 -6 -7 -8 -8 -7 -6 -6 -6 -7 -8 -9 -10 -10 -11 -14 -17 -19 -19 -20 -20
6 5 3 4 3 3 -3 -5 -7 -8 -12 -9 -4 -6 -13 -15 -15 -14 -13 -10 -7 -6 -6 -7 -8 -8 -7 -6 -6 -6 -7 -8 -9 -9 -9 -10 -12 -14 -18 -18 -18 -19 -20
4 4 4 3 1 -4 -7 -8 -9 -6 -3 -2 -12 -17 -17 -15 -13 -13 -12 -11 -9 -7 -8 -8 -7 -8 -7 -6 -7 -8 -9 -9 -9 -9 -9 -10 -12 -14 -18 -17 -17 -17 -14
4 4 2 -2 -6 -9 -9 -7 -3 -2 -2 -14 -19 -16 -15 -15 -14 -13 -11 -10 -9 -8 -7 -7 -8 -10 -6 -7 -9 -9 -8 -8 -9 -9 -10 -11 -12 -17 -16 -16 -16 -16 -16
3 1 -4 -9 -7 -4 -3 -2 -2 -6 -12 -18 -16 -15 -16 -16 -16 -16 -15 -10 -7 -6 -6 -7 -10 -9 -7 -7 -8 -8 -9 -10 -9 -9 -10 -12 -16 -16 -15 -16 -16 -17 -18
-3 -7 -7 -4 -4 -3 -1 -3 -7 -10 -16 -16 -15 -15 -16 -16 -15 -15 -16 -13 -8 -6 -7 -8 -10 -10 -7 -8 -8 -9 -10 -12 -10 -10 -11 -14 -15 -15 -14 -14 -15 -15 -17
-8 -6 -6 -3 -2 -2 -4 -9 -15 -17 -16 -16 -15 -15 -16 -16 -14 -13 -14 -14 -10 -8 -8 -7 -9 -10 -10 -7 -8 -9 -9 -11 -10 -10 -12 -14 -14 -14 -14 -14 -14 -14 -15
-5 -3 -4 -1 -4 -9 -14 -16 -15 -15 -15 -15 -14 -13 -12 -11 -11 -11 -10 -12 -13 -12 -11 -9 -8 -10 -9 -8 -9 -8 -10 -10 -11 -11 -12 -12 -12 -13 -13 -14 -14 -14 -15
-4 -3 -4 -11 -13 -12 -11 -11 -10 -10 -9 -9 -8 -8 -8 -7 -7 -7 -8 -9 -10 -11 -12 -10 -7 -7 -8 -9 -8 -8 -9 -9 -12 -11 -11 -12 -12 -12 -13 -13 -14 -14 -16
-4 -12 -12 -13 -12 -11 -10 -10 -10 -9 -8 -8 -7 -7 -6 -6 -6 -5 -5 -6 -8 -9 -11 -11 -9 -7 -7 -8 -8 -8 -9 -9 -10 -10 -11 -11 -12 -12 -12 -13 -13 -14 -16
-12 -12 -12 -12 -12 -12 -11 -11 -11 -11 -13 -14 -14 -15 -12 -10 -8 -8 -8 -6 -6 -7 -10 -10 -9 -9 -9 -9 -9 -9 -9 -9 -9 -10 -10 -11 -11 -12 -12 -12 -13 -15 -17
-13 -13 -15 -18 -21 -23 -25 -28 -32 -35 -30 -21 -14 -9 -9 -12 -16 -12 -8 -7 -7 -7 -8 -9 -9 -9 -10 -10 -9 -9 -10 -10 -10 -10 -10 -11 -11 -11 -12 -12 -12 -15 -16
-21 -22 -23 -25 -30 -35 -37 -37 -36 -33 -26 -22 -19 -17 -19 -12 -10 -10 -9 -7 -7 -7 -7 -8 -9 -9 -10 -10 -9 -9 -9 -10 -10 -10 -11 -12 -11 -11 -12 -12 -13 -15 -16
-23 -28 -33 -36 -36 -35 -32 -28 -28 -32 -23 -19 -14 -11 -9 -9 -8 -8 -8 -8 -8 -7 -7 -8 -8 -8 -9 -9 -9 -9 -9 -9 -10 -10 -11 -12 -11 -12 -12 -12 -13 -15 -16
-33 -35 -34 -33 -31 -28 -24 -19 -15 -13 -13 -15 -14 -11 -11 -11 -9 -8 -8 -8 -8 -8 -8 -8 -8 -9 -8 -8 -8 -8 -8 -9 -10 -11 -11 -11 -11 -12 -12 -12 -13 -14 -16
-34 -33 -32 -31 -28 -25 -21 -17 -15 -14 -14 -14 -14 -14 -13 -12 -10 -9 -9 -8 -9 -9 -9 -8 -9 -8 -8 -8 -8 -8 -9 -9 -9 -11 -11 -12 -12 -11 -12 -12 -13 -14 -16
-32 -30 -29 -28 -27 -25 -22 -19 -19 -17 -16 -16 -15 -15 -15 -14 -13 -12 -11 -12 -11 -10 -10 -9 -9 -9 -9 -9 -9 -9 -9 -9 -9 -10 -11 -11 -11 -11 -12 -12 -13 -15 -17
-29 -28 -27 -27 -26 -24 -22 -20 -19 -18 -17 -17 -16 -16 -15 -15 -14 -13 -13 -12 -12 -12 -11 -11 -10 -9 -9 -9 -9 -10 -9 -9 -9 -9 -11 -11 -11 -12 -12 -12 -13 -15 -18
-27 -26 -25 -25 -24 -23 -23 -21 -20 -18 -17 -17 -17 -17 -17 -16 -16 -16 -15 -14 -14 -14 -13 -12 -12 -11 -10 -10 -9 -9 -9 -10 -9 -9 -10 -11 -11 -11 -11 -12 -13 -16 -19
-25 -25 -24 -24 -23 -23 -22 -21 -20 -19 -18 -18 -18 -18 -18 -17 -17 -17 -17 -16 -15 -15 -14 -14 -13 -12 -12 -11 -10 -10 -9 -10 -10 -9 -9 -10 -10 -11 -11 -12 -13 -16 -19
-25 -24 -23 -23 -22 -22 -21 -20 -20 -19 -19 -19 -19 -19 -19 -19 -18 -18 -18 -17 -16 -16 -15 -15 -14 -14 -13 -12 -11 -10 -10 -9 -9 -10 -10 -9 -10 -10 -11 -12 -13 -15 -19
-23 -23 -22 -22 -21 -21 -21 -20 -20 -20 -20 -20 -21 -21 -22 -22 -22 -22 -23 -22 -21 -18 -16 -16 -16 -16 -14 -13 -13 -12 -11 -10 -10 -9 -10 -10 -9 -10 -11 -11 -13 -15 -19
-22 -22 -21 -21 -21 -21 -20 -20 -20 -21 -21 -22 -23 -23 -23 -23 -23 -23 -23 -23 -23 -23 -23 -21 -18 -19 -21 -15 -13 -13 -11 -11 -10 -10 -9 -10 -10 -10 -11 -12 -13 -15 -19

GFSGL_850_dewp_069.txt.gz
Dewpoint
8 9 9 9 7 8 8 8 5 5 3 3 4 2 -6 -8 -7 -8 -9 -8 -9 -8 -7 -6 -5 -5 -6 -8 -10 -7 -6 -5 -6 -7 -6 -7 -9 -9 -10 -12 -16 -19 -21
7 9 8 8 8 8 8 7 5 3 4 4 3 -5 -5 -6 -9 -9 -8 -9 -7 -6 -6 -5 -4 -5 -6 -8 -8 -6 -5 -5 -6 -6 -7 -9 -9 -10 -11 -13 -17 -20 -21
6 6 7 9 9 7 6 5 3 4 4 -1 -6 -5 -7 -9 -9 -8 -10 -9 -8 -7 -6 -4 -5 -5 -7 -7 -6 -5 -6 -6 -6 -6 -7 -9 -9 -10 -11 -12 -15 -20 -20
6 7 9 8 5 4 4 3 3 1 -3 -7 -7 -10 -5 -4 -6 -11 -12 -11 -11 -10 -7 -6 -6 -7 -8 -7 -5 -5 -6 -6 -6 -7 -8 -9 -9 -10 -11 -12 -14 -13 -13
9 8 6 3 2 4 3 0 -2 -2 -7 -10 -6 -3 -5 -12 -14 -14 -14 -14 -15 -14 -12 -10 -8 -8 -8 -8 -7 -6 -6 -7 -7 -7 -9 -9 -10 -10 -11 -13 -13 -13 -12
7 5 3 2 5 3 -3 -1 -4 -7 -3 -3 -2 -5 -14 -17 -15 -14 -15 -15 -16 -14 -12 -11 -8 -7 -7 -9 -10 -6 -6 -7 -7 -8 -9 -9 -9 -10 -11 -12 -12 -12 -12
6 3 3 4 -1 -4 -3 -4 -4 -3 -1 -4 -9 -14 -17 -16 -15 -16 -17 -16 -15 -15 -11 -8 -7 -6 -8 -10 -11 -7 -8 -9 -9 -8 -8 -8 -9 -10 -12 -12 -12 -12 -12
3 4 2 -4 -6 -4 -3 -2 -2 -3 -5 -8 -11 -16 -14 -15 -16 -16 -16 -15 -14 -15 -13 -9 -6 -7 -8 -9 -9 -7 -8 -8 -9 -10 -10 -9 -10 -11 -14 -11 -11 -12 -12
3 -0 -5 -5 -3 -3 -1 -2 -3 -7 -11 -16 -16 -15 -15 -16 -15 -15 -13 -12 -13 -12 -13 -13 -11 -9 -8 -9 -9 -7 -8 -8 -9 -10 -11 -10 -11 -13 -14 -12 -11 -11 -11
-4 -5 -5 -4 -2 -2 -2 -7 -12 -16 -16 -15 -15 -13 -11 -10 -9 -8 -8 -8 -7 -7 -9 -11 -12 -13 -9 -8 -8 -8 -8 -8 -9 -9 -10 -11 -12 -13 -13 -13 -12 -12 -11
-5 -5 -3 -3 -2 -7 -12 -15 -16 -15 -14 -13 -12 -11 -10 -9 -8 -7 -7 -6 -6 -6 -6 -7 -9 -11 -11 -7 -8 -9 -9 -10 -9 -9 -10 -10 -12 -12 -11 -11 -12 -12 -12
-4 -4 -2 -4 -10 -14 -15 -14 -13 -12 -11 -11 -12 -15 -18 -23 -27 -27 -24 -17 -7 -6 -6 -6 -7 -9 -11 -9 -7 -8 -9 -9 -8 -9 -10 -11 -11 -11 -11 -11 -11 -12 -12
-1 -2 -12 -13 -14 -13 -13 -13 -15 -20 -27 -33 -34 -35 -31 -18 -11 -12 -12 -13 -17 -11 -8 -7 -7 -7 -9 -9 -9 -8 -8 -8 -8 -9 -10 -10 -10 -10 -11 -12 -12 -12 -13
-13 -13 -14 -14 -15 -19 -24 -28 -34 -35 -32 -26 -17 -15 -17 -13 -11 -11 -10 -10 -10 -8 -9 -9 -7 -7 -8 -8 -9 -10 -10 -9 -9 -9 -9 -9 -10 -10 -11 -11 -12 -12 -12
-14 -16 -20 -23 -25 -30 -35 -35 -34 -29 -25 -21 -17 -15 -12 -11 -10 -10 -9 -8 -8 -8 -8 -8 -7 -8 -8 -8 -8 -10 -11 -9 -9 -10 -9 -10 -10 -10 -11 -11 -12 -12 -12
-21 -23 -26 -31 -34 -35 -35 -34 -32 -29 -25 -21 -17 -15 -13 -13 -12 -11 -10 -9 -9 -8 -8 -8 -8 -8 -8 -8 -8 -9 -9 -9 -9 -9 -10 -10 -10 -11 -11 -11 -12 -12 -12
-26 -30 -33 -35 -35 -35 -34 -33 -30 -27 -27 -25 -22 -19 -15 -14 -14 -13 -11 -10 -9 -9 -8 -8 -8 -8 -8 -8 -8 -8 -8 -8 -8 -9 -9 -10 -11 -11 -11 -11 -12 -12 -12
-32 -34 -34 -34 -34 -33 -31 -29 -28 -26 -25 -24 -23 -22 -20 -18 -17 -15 -14 -12 -12 -10 -9 -9 -9 -9 -9 -9 -9 -9 -9 -8 -8 -9 -9 -10 -11 -11 -11 -12 -12 -12 -13
-33 -33 -32 -31 -30 -29 -28 -27 -27 -26 -25 -24 -23 -23 -23 -21 -19 -18 -16 -14 -13 -12 -12 -11 -11 -10 -10 -9 -9 -9 -9 -9 -9 -9 -9 -10 -11 -12 -11 -12 -12 -12 -13
-31 -30 -29 -29 -28 -27 -26 -26 -25 -24 -23 -22 -22 -21 -21 -21 -20 -19 -18 -17 -15 -14 -14 -13 -12 -12 -11 -11 -10 -10 -10 -10 -10 -9 -9 -10 -11 -12 -12 -11 -11 -12 -13
-29 -28 -28 -27 -26 -26 -25 -24 -24 -23 -21 -21 -20 -20 -19 -19 -18 -18 -18 -17 -17 -16 -15 -15 -14 -13 -13 -12 -11 -10 -10 -10 -10 -10 -10 -10 -10 -11 -11 -11 -12 -12 -14
-27 -27 -26 -26 -25 -24 -24 -23 -22 -21 -21 -20 -20 -20 -20 -19 -19 -19 -19 -18 -18 -17 -16 -16 -15 -15 -14 -14 -13 -12 -11 -10 -10 -11 -11 -10 -10 -11 -11 -11 -11 -12 -14
-26 -26 -25 -24 -24 -23 -22 -22 -21 -21 -20 -20 -20 -20 -20 -21 -21 -21 -22 -22 -22 -21 -20 -17 -16 -16 -15 -14 -14 -13 -12 -11 -11 -11 -11 -11 -10 -10 -11 -11 -11 -12 -14
-25 -24 -24 -23 -23 -22 -22 -21 -21 -21 -20 -20 -21 -21 -23 -24 -24 -24 -24 -24 -23 -23 -23 -23 -21 -17 -16 -15 -14 -14 -13 -13 -12 -11 -10 -10 -11 -10 -10 -10 -11 -12 -15
-24 -23 -23 -22 -22 -22 -21 -21 -21 -21 -21 -22 -23 -24 -24 -24 -24 -23 -23 -23 -23 -23 -23 -23 -22 -22 -20 -17 -16 -15 -14 -13 -12 -11 -10 -10 -10 -10 -10 -10 -11 -12 -15
-22 -22 -22 -21 -21 -21 -21 -21 -21 -22 -23 -24 -24 -24 -24 -23 -23 -23 -22 -22 -22 -21 -21 -21 -21 -21 -22 -23 -22 -19 -19 -14 -13 -12 -11 -10 -10 -10 -10 -10 -11 -12 -15

GFSGL_850_dewp_072.txt.gz
Dewpoint
7 7 8 9 9 10 9 9 8 6 5 5 3 3 4 2 -7 -6 -3 -3 -3 -3 -3 -3 -4 -4 -4 -5 -6 -6 -7 -7 -8 -9 -9 -9 -6 -6 -8 -8 -9 -10 -12
9 9 9 10 9 10 9 8 8 6 5 4 5 4 0 -5 -5 -4 -4 -4 -3 -3 -4 -3 -4 -4 -4 -5 -6 -6 -7 -7 -8 -7 -7 -8 -6 -7 -8 -8 -9 -11 -13
8 9 8 8 8 9 8 8 6 5 4 4 4 -2 -5 -5 -5 -3 -3 -3 -3 -4 -4 -4 -4 -5 -5 -5 -6 -7 -8 -8 -8 -7 -7 -8 -7 -7 -9 -9 -11 -12 -13
9 7 8 8 6 7 8 4 5 3 4 1 1 -4 -7 -7 -3 -3 -4 -5 -5 -5 -5 -5 -5 -5 -5 -6 -6 -7 -8 -8 -7 -7 -6 -6 -7 -8 -9 -11 -12 -13 -14
9 9 8 8 8 6 4 4 3 3 -0 2 -4 -10 -5 -2 -4 -6 -7 -6 -6 -6 -6 -5 -4 -5 -5 -8 -8 -7 -8 -7 -6 -6 -6 -7 -9 -10 -11 -11 -12 -13 -13
8 8 8 7 5 4 5 4 1 0 1 -6 -5 -1 -3 -5 -9 -16 -15 -14 -8 -7 -7 -7 -6 -6 -5 -6 -7 -7 -9 -7 -6 -6 -6 -7 -9 -11 -10 -10 -11 -13 -13
8 7 5 3 4 4 1 -1 -2 -2 -3 -2 -2 -7 -7 -6 -11 -16 -16 -16 -12 -9 -8 -8 -7 -8 -7 -6 -6 -6 -7 -9 -7 -6 -6 -7 -8 -8 -9 -10 -12 -13 -13
5 4 2 3 3 -3 -4 -3 -3 -1 -2 -3 -4 -5 -6 -8 -16 -16 -15 -14 -9 -8 -7 -7 -7 -7 -7 -7 -7 -7 -7 -7 -7 -8 -8 -9 -9 -9 -9 -11 -12 -11 -11
3 3 3 -3 -4 -3 -3 0 -2 -3 -4 -6 -7 -7 -7 -7 -7 -11 -9 -8 -6 -6 -6 -6 -6 -6 -6 -7 -6 -6 -7 -7 -7 -8 -9 -9 -9 -10 -11 -10 -10 -10 -10
3 -2 -4 -3 -4 -1 -2 -3 -5 -9 -11 -7 -7 -7 -8 -10 -7 -9 -9 -8 -8 -6 -6 -6 -6 -6 -6 -6 -8 -7 -7 -7 -7 -7 -8 -10 -11 -10 -11 -12 -10 -10 -11
-3 -4 -4 -3 -3 -3 -6 -12 -14 -8 -9 -11 -14 -15 -16 -21 -20 -21 -27 -23 -12 -10 -8 -9 -8 -7 -6 -7 -7 -8 -7 -7 -7 -8 -8 -8 -9 -9 -10 -10 -10 -10 -10
-4 -4 -4 -2 -3 -11 -14 -13 -12 -11 -15 -20 -29 -34 -19 -14 -14 -12 -15 -14 -12 -10 -9 -9 -9 -8 -8 -7 -7 -8 -8 -7 -8 -8 -8 -8 -8 -9 -9 -9 -10 -10 -10
-5 -3 -3 -11 -14 -14 -14 -16 -21 -25 -27 -26 -20 -11 -9 -9 -9 -9 -9 -10 -11 -8 -8 -8 -9 -10 -10 -8 -8 -7 -8 -8 -8 -8 -8 -8 -9 -9 -9 -9 -10 -10 -11
-5 -12 -13 -14 -15 -20 -24 -27 -31 -31 -28 -22 -16 -11 -9 -9 -9 -12 -14 -12 -11 -9 -9 -9 -8 -8 -8 -9 -7 -8 -8 -8 -9 -8 -8 -8 -8 -9 -10 -10 -10 -10 -10
-13 -15 -17 -22 -24 -28 -32 -34 -32 -27 -32 -31 -18 -13 -12 -11 -12 -16 -15 -14 -12 -10 -10 -9 -8 -7 -7 -7 -8 -8 -8 -9 -8 -9 -8 -8 -8 -9 -10 -10 -10 -10 -10
-19 -22 -24 -28 -31 -34 -30 -19 -29 -29 -31 -29 -26 -25 -24 -22 -22 -21 -20 -17 -15 -14 -10 -8 -8 -8 -8 -7 -8 -8 -8 -8 -8 -8 -9 -9 -9 -9 -10 -10 -10 -10 -10
-24 -26 -30 -33 -34 -32 -27 -17 -12 -11 -22 -26 -27 -26 -26 -25 -24 -24 -24 -22 -17 -15 -11 -11 -11 -10 -9 -8 -8 -8 -8 -8 -8 -9 -9 -9 -9 -9 -10 -10 -10 -10 -10
-29 -32 -33 -33 -31 -28 -26 -24 -17 -13 -12 -12 -13 -24 -26 -25 -24 -24 -24 -22 -16 -13 -13 -13 -13 -12 -11 -11 -10 -9 -8 -8 -9 -9 -9 -9 -9 -9 -10 -10 -10 -10 -10
-31 -32 -32 -32 -31 -30 -28 -26 -15 -15 -14 -13 -13 -14 -18 -23 -23 -20 -19 -15 -15 -15 -15 -14 -15 -14 -13 -12 -12 -11 -10 -9 -9 -9 -9 -9 -9 -10 -10 -10 -10 -11 -11
-31 -31 -30 -29 -29 -27 -26 -24 -15 -16 -15 -14 -14 -15 -18 -22 -15 -15 -16 -16 -16 -16 -16 -16 -16 -16 -15 -14 -13 -12 -12 -11 -10 -9 -10 -10 -10 -10 -10 -10 -10 -10 -11
-29 -29 -28 -27 -27 -26 -26 -23 -16 -16 -16 -15 -15 -16 -21 -21 -16 -16 -17 -17 -17 -18 -18 -18 -18 -17 -17 -17 -15 -14 -13 -12 -12 -11 -10 -10 -10 -10 -10 -11 -10 -11 -11
-28 -27 -27 -26 -26 -25 -25 -23 -19 -17 -16 -17 -17 -17 -21 -18 -17 -18 -18 -18 -18 -19 -19 -19 -19 -18 -18 -17 -16 -15 -14 -14 -13 -12 -12 -11 -11 -10 -10 -11 -11 -11 -11
-27 -26 -26 -25 -24 -24 -23 -22 -21 -19 -18 -18 -18 -18 -18 -19 -19 -19 -19 -19 -19 -20 -21 -21 -22 -22 -20 -19 -17 -16 -15 -15 -14 -13 -13 -12 -11 -11 -11 -10 -11 -11 -11
-26 -25 -25 -24 -23 -23 -22 -22 -20 -19 -20 -19 -19 -19 -20 -20 -20 -20 -20 -20 -22 -22 -22 -22 -22 -22 -22 -22 -22 -20 -16 -15 -15 -14 -13 -12 -12 -11 -11 -11 -10 -11 -11
-24 -24 -23 -23 -22 -21 -21 -19 -19 -20 -20 -20 -20 -21 -21 -21 -21 -21 -21 -21 -22 -22 -21 -21 -21 -20 -20 -20 -21 -22 -21 -17 -15 -14 -14 -13 -12 -11 -11 -11 -11 -11 -11
-21 -21 -21 -21 -19 -20 -20 -20 -21 -21 -20 -21 -24 -24 -24 -23 -23 -21 -22 -22 -21 -21 -20 -20 -20 -19 -19 -19 -20 -20 -21 -22 -17 -16 -14 -14 -12 -11 -11 -11 -11 -11 -11

GFSGL_850_dewp_075.txt.gz
Dewpoint
10 11 11 11 11 10 10 9 9 8 7 6 5 5 3 3 3 3 -1 -1 -1 -1 -2 -2 -2 -3 -4 -4 -5 -5 -6 -6 -7 -7 -8 -9 -8 -8 -8 -6 -7 -7 -8
10 11 11 11 10 10 10 9 8 7 7 6 5 4 4 4 1 -1 -1 -1 -2 -2 -2 -2 -3 -4 -4 -4 -4 -5 -6 -6 -7 -7 -8 -8 -9 -8 -8 -4 -6 -8 -10
10 11 10 10 10 10 9 9 8 7 5 3 4 4 4 2 -1 -1 -2 -2 -2 -2 -3 -4 -4 -5 -5 -5 -5 -5 -6 -7 -8 -8 -8 -8 -8 -9 -8 -6 -6 -8 -9
10 10 9 10 10 9 9 8 7 6 3 3 3 3 2 -0 -2 -3 -2 -2 -4 -5 -5 -5 -5 -5 -5 -5 -5 -6 -6 -7 -8 -8 -8 -8 -8 -9 -7 -7 -7 -8 -9
9 9 9 9 9 8 7 6 5 3 3 3 3 0 -3 -3 -2 -2 -3 -5 -6 -7 -6 -6 -7 -6 -6 -5 -5 -6 -6 -7 -7 -7 -8 -8 -7 -7 -7 -7 -6 -8 -8
8 8 8 8 7 7 4 3 3 4 3 1 2 -3 -1 -1 -2 -5 -10 -17 -13 -8 -8 -8 -8 -8 -7 -7 -7 -6 -5 -6 -6 -7 -7 -7 -7 -6 -6 -7 -7 -8 -10
7 7 7 7 6 5 5 4 3 0 0 -2 -1 -0 -1 -3 -5 -7 -14 -16 -15 -9 -8 -8 -8 -8 -8 -7 -7 -7 -6 -5 -5 -5 -6 -7 -7 -7 -6 -8 -9 -9 -10
7 7 6 5 4 4 2 -1 -1 -2 0 1 -1 -2 -3 -5 -6 -8 -11 -13 -11 -7 -6 -6 -6 -7 -7 -7 -7 -6 -6 -8 -6 -6 -6 -6 -7 -7 -7 -7 -7 -9 -11
5 4 3 3 3 -0 -3 -1 0 1 -1 -2 -4 -6 -6 -6 -6 -6 -7 -7 -6 -6 -5 -6 -6 -6 -6 -7 -7 -6 -6 -8 -6 -6 -7 -8 -8 -8 -9 -9 -9 -9 -10
1 -0 1 1 -1 -1 -1 0 -2 -3 -5 -7 -7 -6 -5 -6 -5 -5 -8 -8 -17 -18 -14 -9 -10 -10 -10 -10 -8 -7 -7 -7 -7 -6 -7 -7 -8 -9 -10 -11 -11 -10 -10
-1 -2 -1 -1 -2 -2 -2 -4 -5 -6 -6 -5 -10 -14 -16 -14 -11 -12 -20 -22 -18 -18 -20 -16 -12 -9 -9 -9 -9 -9 -9 -8 -7 -7 -6 -7 -7 -7 -8 -9 -10 -10 -11
-1 -2 -3 -3 -4 -4 -5 -6 -6 -6 -5 -7 -17 -24 -12 -10 -9 -10 -11 -15 -20 -18 -15 -12 -8 -9 -10 -10 -9 -10 -11 -9 -7 -8 -7 -7 -7 -7 -8 -8 -8 -9 -10
-3 -3 -4 -4 -5 -8 -8 -8 -10 -11 -10 -8 -12 -11 -8 -11 -8 -8 -9 -22 -29 -24 -20 -15 -13 -12 -11 -9 -9 -8 -9 -8 -7 -8 -8 -7 -8 -7 -8 -8 -9 -9 -10
-4 -4 -5 -8 -10 -13 -14 -15 -12 -12 -12 -15 -10 -9 -8 -10 -9 -11 -28 -27 -27 -23 -18 -18 -15 -10 -7 -7 -7 -7 -8 -9 -8 -8 -8 -8 -8 -7 -8 -8 -8 -9 -9
-6 -8 -10 -14 -15 -19 -17 -19 -20 -27 -31 -32 -21 -25 -17 -20 -14 -27 -27 -26 -25 -24 -20 -14 -9 -9 -9 -8 -8 -7 -7 -8 -7 -8 -8 -8 -8 -8 -8 -8 -9 -9 -9
-11 -12 -15 -18 -21 -18 -14 -18 -24 -24 -28 -33 -34 -31 -28 -28 -27 -26 -26 -26 -24 -24 -18 -11 -10 -10 -10 -10 -9 -8 -7 -8 -8 -8 -8 -8 -8 -8 -8 -8 -9 -9 -9
-13 -21 -26 -27 -22 -17 -18 -12 -11 -11 -14 -16 -17 -18 -25 -27 -26 -25 -25 -25 -21 -15 -12 -12 -12 -12 -12 -12 -11 -11 -10 -9 -8 -8 -9 -8 -8 -9 -9 -9 -9 -9 -10
-25 -28 -24 -22 -19 -17 -11 -14 -13 -11 -10 -10 -11 -11 -15 -20 -24 -24 -23 -21 -13 -13 -13 -13 -13 -13 -13 -13 -13 -13 -12 -11 -10 -9 -8 -8 -8 -8 -8 -9 -9 -10 -10
-27 -28 -31 -30 -31 -31 -28 -21 -16 -12 -11 -11 -12 -12 -12 -13 -22 -18 -14 -14 -14 -14 -14 -14 -14 -14 -15 -15 -15 -14 -14 -13 -12 -11 -10 -9 -9 -9 -9 -9 -9 -10 -10
-27 -31 -31 -29 -26 -23 -20 -17 -13 -12 -12 -12 -12 -13 -13 -16 -21 -14 -14 -14 -15 -15 -15 -16 -16 -16 -16 -16 -16 -16 -15 -14 -14 -13 -12 -10 -9 -9 -9 -9 -9 -10 -10
-24 -28 -29 -28 -26 -24 -23 -16 -13 -13 -13 -13 -13 -14 -15 -17 -18 -15 -15 -15 -16 -16 -17 -17 -17 -17 -17 -17 -17 -17 -17 -17 -16 -15 -14 -12 -11 -10 -9 -9 -9 -10 -10
-29 -28 -28 -27 -26 -18 -15 -21 -14 -14 -14 -14 -15 -15 -16 -17 -16 -16 -16 -17 -17 -18 -18 -18 -18 -18 -18 -18 -18 -18 -18 -18 -17 -16 -15 -13 -12 -11 -10 -9 -10 -10 -10
-28 -27 -25 -19 -18 -17 -16 -15 -15 -15 -16 -16 -16 -17 -17 -17 -17 -18 -18 -18 -19 -19 -19 -19 -20 -20 -20 -20 -20 -20 -19 -19 -19 -18 -16 -15 -13 -12 -11 -10 -10 -10 -10
-26 -24 -19 -16 -16 -19 -16 -16 -17 -17 -17 -17 -18 -18 -18 -18 -18 -19 -19 -19 -20 -20 -20 -21 -21 -21 -21 -21 -21 -21 -20 -20 -19 -18 -17 -16 -15 -13 -13 -12 -11 -10 -10
-17 -16 -16 -16 -17 -17 -17 -17 -17 -18 -18 -18 -19 -19 -19 -20 -20 -20 -20 -20 -21 -21 -21 -21 -20 -21 -21 -20 -19 -19 -19 -19 -19 -20 -19 -16 -15 -14 -13 -12 -11 -10 -10
-17 -17 -17 -18 -18 -18 -18 -18 -19 -19 -19 -20 -20 -21 -21 -21 -21 -21 -21 -22 -22 -22 -21 -21 -21 -20 -20 -19 -20 -20 -18 -18 -18 -19 -19 -17 -16 -15 -14 -12 -12 -11 -10

GFSGL_850_dewp_078.txt.gz
Dewpoint
10 10 11 11 10 11 10 10 10 10 9 8 7 7 6 6 5 3 3 3 -0 -0 -0 -1 -1 -2 -2 -2 -3 -4 -4 -4 -5 -5 -6 -6 -7 -7 -8 -8 -8 -7 -6
10 10 11 10 10 10 10 10 10 9 9 8 7 6 6 5 4 4 3 1 1 -0 -1 -2 -2 -2 -2 -3 -3 -4 -4 -4 -5 -5 -5 -6 -7 -7 -7 -7 -8 -8 -8
9 10 11 10 8 10 10 9 9 9 8 8 6 5 4 4 4 3 2 0 -1 -1 -1 -2 -2 -3 -4 -4 -4 -4 -4 -4 -4 -5 -6 -6 -7 -7 -7 -8 -8 -9 -8
9 9 10 8 10 10 9 9 9 8 8 7 3 3 4 3 2 1 -1 -2 -2 -2 -3 -4 -5 -5 -6 -6 -5 -5 -4 -4 -5 -5 -6 -7 -7 -7 -8 -7 -9 -10 -8
9 9 10 10 10 9 9 9 8 8 6 3 4 3 4 2 -2 -3 -3 -1 -2 -4 -5 -6 -7 -7 -7 -7 -7 -7 -7 -7 -7 -6 -6 -7 -7 -8 -9 -8 -7 -7 -6
10 10 10 9 9 8 8 8 7 6 3 4 3 3 -0 -2 -2 -2 -1 -2 -4 -11 -19 -18 -15 -11 -11 -9 -9 -8 -8 -7 -7 -7 -5 -5 -5 -7 -8 -9 -8 -6 -6
10 9 8 8 8 8 7 6 4 4 4 2 1 -2 -2 -0 0 -1 -3 -7 -13 -18 -18 -16 -11 -8 -7 -7 -6 -6 -6 -6 -6 -5 -4 -4 -5 -7 -7 -8 -7 -6 -7
8 7 8 7 7 6 4 4 4 3 1 -1 -1 -0 0 -2 -3 -5 -6 -8 -10 -12 -11 -8 -6 -7 -6 -5 -6 -6 -6 -6 -6 -5 -5 -5 -7 -7 -7 -8 -8 -7 -9
7 7 7 6 5 5 4 3 -0 -1 1 1 -0 -2 -3 -5 -5 -6 -6 -7 -8 -9 -11 -14 -20 -19 -17 -16 -13 -14 -15 -17 -17 -10 -8 -8 -7 -7 -6 -6 -8 -8 -9
6 6 5 4 4 3 0 -1 0 1 -1 -2 -5 -6 -6 -5 -5 -6 -10 -12 -12 -21 -28 -29 -28 -29 -28 -19 -11 -10 -10 -11 -10 -12 -11 -9 -9 -7 -7 -9 -9 -9 -9
2 1 2 2 -0 -0 0 0 -1 -3 -6 -6 -7 -8 -7 -8 -10 -17 -23 -23 -24 -24 -27 -35 -35 -31 -24 -14 -12 -10 -10 -8 -8 -10 -11 -10 -10 -8 -6 -8 -9 -10 -11
0 -0 -1 -0 -1 -1 -2 -3 -5 -6 -6 -7 -10 -11 -17 -17 -12 -15 -19 -18 -15 -20 -33 -34 -33 -30 -26 -21 -15 -12 -8 -7 -7 -8 -9 -9 -8 -8 -7 -7 -7 -8 -9
-1 -1 -2 -2 -4 -3 -5 -5 -6 -7 -8 -9 -13 -15 -13 -12 -11 -9 -10 -11 -20 -35 -35 -34 -33 -30 -21 -10 -8 -7 -7 -7 -7 -7 -8 -8 -8 -8 -7 -7 -8 -7 -8
-2 -3 -3 -5 -7 -9 -8 -9 -12 -12 -11 -11 -13 -13 -13 -13 -15 -17 -19 -28 -33 -33 -32 -32 -31 -19 -11 -10 -10 -9 -9 -8 -7 -7 -7 -8 -8 -8 -8 -8 -7 -7 -8
-3 -5 -6 -8 -10 -13 -13 -15 -17 -17 -18 -21 -20 -18 -22 -24 -27 -30 -32 -31 -31 -29 -29 -28 -22 -10 -13 -14 -14 -11 -10 -9 -9 -8 -8 -8 -8 -8 -9 -8 -8 -8 -8
-7 -9 -9 -12 -14 -15 -18 -18 -19 -20 -20 -21 -25 -29 -29 -29 -29 -29 -29 -29 -28 -26 -24 -18 -11 -12 -13 -13 -13 -12 -12 -11 -10 -10 -9 -7 -8 -8 -8 -8 -8 -9 -8
-10 -10 -13 -18 -19 -19 -17 -14 -11 -11 -12 -13 -16 -17 -15 -16 -19 -23 -25 -27 -25 -16 -13 -13 -13 -13 -13 -14 -14 -14 -14 -13 -12 -11 -11 -9 -8 -8 -8 -9 -9 -8 -8
-14 -16 -17 -20 -21 -22 -21 -21 -19 -16 -12 -12 -12 -11 -12 -12 -14 -16 -20 -20 -15 -14 -14 -13 -13 -14 -15 -15 -15 -15 -15 -15 -15 -13 -12 -11 -10 -9 -8 -8 -8 -9 -9
-13 -14 -18 -12 -13 -28 -30 -30 -27 -22 -17 -15 -14 -12 -11 -12 -12 -14 -19 -13 -14 -15 -15 -15 -15 -16 -16 -16 -16 -16 -16 -16 -16 -15 -14 -13 -12 -11 -9 -9 -9 -9 -9
-7 -7 -13 -21 -29 -27 -25 -24 -21 -17 -12 -13 -13 -12 -12 -13 -14 -17 -19 -14 -15 -16 -16 -16 -17 -17 -17 -17 -17 -17 -17 -17 -17 -17 -15 -15 -14 -12 -12 -10 -9 -8 -9
-8 -11 -27 -22 -19 -25 -24 -22 -19 -16 -14 -13 -13 -14 -14 -14 -16 -18 -15 -16 -16 -16 -16 -18 -17 -17 -18 -18 -18 -18 -18 -18 -18 -18 -17 -16 -15 -14 -13 -11 -10 -9 -9
-24 -15 -15 -27 -27 -24 -21 -19 -20 -17 -16 -14 -14 -14 -15 -16 -16 -16 -17 -17 -17 -17 -18 -18 -18 -19 -19 -19 -19 -19 -19 -19 -19 -19 -19 -18 -17 -15 -14 -13 -11 -11 -9
-15 -26 -27 -24 -21 -20 -20 -17 -15 -15 -15 -15 -16 -17 -17 -17 -17 -18 -18 -18 -19 -19 -19 -19 -20 -20 -20 -20 -21 -20 -20 -20 -20 -20 -19 -20 -19 -16 -15 -14 -12 -11 -10
-25 -23 -21 -18 -16 -16 -16 -15 -16 -17 -16 -17 -17 -18 -18 -18 -19 -19 -19 -19 -19 -20 -20 -20 -21 -21 -20 -20 -21 -21 -21 -20 -21 -21 -20 -20 -20 -19 -15 -14 -14 -12 -11
-16 -17 -15 -16 -16 -16 -16 -17 -17 -17 -17 -18 -18 -19 -19 -20 -20 -20 -20 -20 -21 -21 -21 -21 -21 -21 -22 -20 -20 -20 -21 -21 -21 -20 -19 -18 -19 -19 -17 -15 -14 -13 -12
-16 -16 -17 -17 -17 -17 -18 -18 -18 -19 -19 -19 -20 -20 -21 -21 -21 -22 -22 -22 -22 -22 -22 -23 -22 -21 -20 -20 -20 -21 -20 -20 -20 -19 -20 -19 -19 -20 -17 -16 -14 -14 -12

GFSGL_850_dewp_081.txt.gz
Dewpoint
8 8 9 10 10 10 10 8 8 8 9 9 8 9 8 7 6 5 5 5 4 3 3 1 0 -1 -1 -2 -2 -2 -3 -3 -4 -4 -5 -5 -5 -5 -5 -6 -6 -6 -6
9 9 9 10 10 9 10 10 10 9 9 9 9 8 8 7 5 6 6 4 3 3 3 0 -1 -2 -2 -2 -2 -3 -4 -4 -3 -3 -4 -4 -4 -5 -5 -6 -6 -7 -6
9 10 9 10 10 9 10 9 10 10 10 9 8 8 8 7 6 5 4 4 3 2 0 -1 -1 -2 -2 -2 -3 -4 -4 -4 -5 -5 -4 -4 -4 -5 -6 -6 -7 -8 -9
9 10 10 10 11 9 8 8 10 10 10 8 8 8 7 6 5 4 3 2 1 -1 -1 -1 -2 -2 -3 -5 -7 -7 -6 -6 -6 -6 -7 -7 -7 -7 -7 -7 -8 -8 -10
10 9 10 10 9 9 7 8 10 9 8 9 8 6 4 4 4 3 1 -1 -1 -1 -2 -2 -3 -5 -7 -10 -7 -8 -8 -8 -8 -8 -7 -6 -6 -6 -6 -6 -5 -8 -9
8 9 8 9 9 10 10 9 9 9 8 7 5 4 3 4 3 -0 -3 -2 -1 -2 -1 -3 -8 -20 -20 -15 -12 -9 -7 -6 -6 -5 -5 -5 -5 -5 -4 -5 -5 -5 -7
9 9 10 10 10 9 9 9 8 8 7 4 4 4 4 1 0 -1 -1 -1 -1 -2 -5 -13 -20 -19 -16 -11 -8 -7 -6 -6 -6 -5 -6 -6 -6 -5 -5 -5 -7 -6 -8
10 10 9 9 8 8 8 7 7 6 4 4 3 1 -1 -0 0 -0 -0 -2 -4 -8 -12 -13 -12 -10 -10 -11 -15 -20 -22 -24 -21 -21 -20 -19 -15 -12 -9 -8 -8 -6 -7
9 8 8 7 8 8 7 7 5 4 4 1 -0 -1 -1 -1 -1 -2 -4 -6 -8 -9 -9 -9 -10 -17 -25 -27 -32 -33 -32 -31 -23 -16 -12 -12 -12 -12 -8 -7 -7 -6 -7
8 7 7 7 6 6 5 4 4 1 -0 1 1 0 -1 -2 -4 -5 -6 -7 -7 -9 -13 -22 -26 -29 -36 -35 -31 -26 -25 -26 -16 -13 -10 -11 -11 -11 -12 -12 -10 -6 -7
6 6 6 6 5 5 4 1 -1 1 1 0 -1 -3 -5 -5 -6 -6 -7 -10 -17 -21 -24 -28 -36 -37 -36 -33 -28 -21 -12 -10 -8 -7 -8 -9 -10 -12 -12 -9 -8 -7 -7
6 5 5 4 3 1 -0 0 0 -0 -1 -3 -4 -6 -6 -6 -8 -14 -19 -21 -24 -21 -23 -34 -36 -36 -35 -32 -20 -10 -8 -8 -8 -9 -8 -7 -8 -8 -11 -8 -9 -7 -7
2 1 -0 -0 -0 0 0 -1 -2 -4 -5 -6 -6 -7 -11 -15 -18 -17 -17 -19 -18 -18 -31 -35 -34 -32 -31 -23 -16 -15 -15 -12 -10 -9 -8 -8 -7 -8 -8 -8 -9 -8 -7
-1 -1 -1 -1 -2 -3 -3 -4 -5 -6 -7 -9 -11 -12 -14 -19 -18 -16 -15 -17 -23 -33 -33 -33 -32 -28 -18 -12 -13 -18 -20 -15 -12 -10 -10 -9 -9 -8 -8 -8 -8 -8 -8
-1 -2 -3 -4 -5 -6 -7 -7 -7 -10 -11 -11 -13 -16 -16 -16 -17 -23 -26 -31 -32 -31 -31 -29 -25 -18 -13 -13 -15 -17 -19 -20 -16 -14 -13 -11 -10 -9 -8 -8 -8 -8 -8
-3 -5 -7 -9 -11 -10 -10 -14 -15 -18 -20 -21 -20 -22 -24 -25 -24 -22 -21 -24 -27 -27 -25 -19 -15 -13 -13 -14 -14 -15 -16 -17 -17 -16 -14 -13 -12 -11 -10 -8 -8 -8 -8
-6 -8 -8 -7 -7 -10 -12 -12 -16 -12 -7 -8 -14 -13 -13 -15 -15 -15 -14 -16 -22 -21 -15 -13 -13 -13 -14 -14 -15 -16 -17 -17 -16 -16 -16 -15 -13 -13 -11 -9 -8 -8 -8
-9 -8 -7 -6 -7 -10 -14 -9 -7 -11 -11 -13 -12 -13 -12 -12 -12 -12 -13 -13 -17 -16 -15 -16 -15 -14 -15 -16 -16 -17 -17 -17 -17 -17 -17 -16 -15 -14 -13 -11 -10 -9 -8
-5 -6 -7 -8 -7 -7 -9 -15 -22 -13 -11 -12 -13 -13 -12 -12 -12 -12 -13 -15 -17 -14 -14 -15 -16 -16 -17 -17 -17 -17 -17 -18 -18 -18 -18 -17 -16 -16 -14 -13 -12 -10 -9
-7 -7 -8 -8 -9 -11 -10 -9 -11 -15 -16 -13 -13 -12 -12 -13 -13 -14 -16 -18 -15 -15 -16 -16 -16 -17 -18 -17 -18 -18 -18 -18 -19 -19 -19 -19 -18 -17 -16 -14 -13 -12 -10
-8 -9 -10 -10 -10 -11 -12 -14 -17 -16 -16 -14 -13 -13 -14 -14 -15 -16 -16 -16 -16 -17 -17 -17 -18 -18 -18 -18 -19 -19 -19 -20 -20 -20 -20 -20 -20 -20 -18 -15 -14 -13 -12
-11 -11 -11 -14 -18 -21 -20 -19 -18 -16 -15 -15 -15 -15 -15 -16 -17 -17 -17 -17 -18 -18 -18 -19 -19 -19 -20 -20 -20 -20 -20 -20 -20 -20 -20 -20 -20 -21 -21 -17 -15 -14 -12
-18 -22 -23 -21 -20 -19 -18 -18 -17 -15 -16 -17 -16 -17 -17 -18 -18 -18 -18 -19 -19 -19 -19 -20 -20 -20 -21 -21 -21 -21 -21 -21 -20 -20 -21 -20 -20 -20 -20 -20 -16 -15 -14
-17 -16 -16 -16 -17 -16 -16 -16 -17 -17 -17 -17 -18 -18 -18 -19 -19 -20 -20 -20 -20 -20 -21 -21 -21 -21 -21 -22 -21 -21 -21 -21 -21 -21 -21 -20 -20 -19 -19 -20 -17 -15 -15
-16 -16 -17 -17 -17 -17 -17 -17 -18 -18 -18 -19 -19 -19 -20 -20 -21 -21 -21 -21 -22 -22 -22 -22 -22 -23 -23 -21 -20 -20 -21 -21 -21 -21 -21 -20 -20 -19 -19 -20 -18 -16 -15
-17 -17 -18 -18 -18 -18 -18 -19 -19 -19 -20 -20 -20 -20 -21 -21 -22 -22 -22 -23 -23 -23 -23 -24 -24 -25 -22 -20 -20 -20 -21 -20 -20 -20 -20 -20 -19 -19 -19 -19 -18 -16 -15

GFSGL_850_dewp_084.txt.gz
Dewpoint
5 5 7 8 9 9 9 8 8 8 8 8 8 9 8 8 8 8 7 6 6 4 4 4 4 3 2 0 -1 -2 -2 -2 -2 -3 -3 -4 -4 -4 -4 -5 -5 -5 -5
6 6 5 7 9 9 9 10 9 9 9 8 8 9 8 8 8 8 7 6 6 5 4 4 3 2 -0 -1 -2 -2 -1 -2 -3 -3 -4 -4 -4 -5 -5 -5 -6 -5 -7
7 7 7 7 8 8 9 10 10 8 7 9 9 9 8 7 7 7 7 6 6 5 4 3 2 -0 -1 -1 -2 -2 -3 -3 -4 -6 -7 -7 -6 -6 -7 -7 -7 -7 -7
7 7 7 7 8 9 10 11 10 7 4 9 9 9 8 8 8 8 7 6 5 4 3 1 -1 -1 -1 -2 -2 -3 -5 -7 -8 -7 -8 -8 -8 -8 -7 -7 -6 -6 -6
7 8 8 8 9 9 8 10 6 8 7 8 9 9 8 8 7 7 6 5 4 2 0 -1 -1 -2 -2 -4 -5 -6 -8 -9 -9 -9 -9 -8 -7 -7 -6 -6 -6 -6 -6
7 8 9 9 9 9 8 9 8 9 10 9 9 8 8 7 6 5 4 3 2 0 -1 -1 -3 -3 -4 -6 -13 -18 -16 -14 -12 -9 -7 -6 -7 -6 -7 -11 -9 -6 -6
8 9 9 9 9 10 10 10 10 9 9 9 9 7 6 5 5 4 3 2 -1 -1 -2 -2 -3 -3 -6 -16 -17 -14 -13 -11 -8 -7 -8 -12 -18 -20 -16 -13 -12 -12 -9
8 8 10 10 10 9 9 9 8 8 8 8 7 5 4 4 4 3 1 -1 -2 -2 -2 -3 -6 -11 -12 -12 -14 -17 -23 -26 -27 -27 -25 -23 -19 -17 -12 -12 -10 -10 -10
10 10 10 9 9 8 9 8 8 7 7 5 4 4 4 2 2 1 -0 -1 -1 -3 -5 -7 -8 -10 -13 -22 -27 -31 -34 -35 -33 -31 -26 -22 -19 -14 -10 -9 -9 -8 -8
10 10 9 8 7 7 7 8 7 6 5 4 3 2 0 0 0 -1 -2 -2 -4 -5 -7 -7 -13 -22 -25 -31 -35 -36 -34 -27 -23 -24 -22 -18 -12 -11 -11 -10 -12 -8 -7
8 7 6 6 6 7 7 6 5 4 4 2 0 0 -0 -1 -2 -1 -2 -5 -6 -7 -12 -19 -21 -26 -35 -36 -36 -33 -24 -18 -15 -13 -11 -11 -12 -12 -8 -8 -8 -8 -8
6 6 5 5 6 5 5 4 3 1 1 1 0 -1 -3 -2 -2 -5 -6 -7 -11 -16 -18 -19 -25 -34 -34 -34 -32 -24 -18 -16 -18 -21 -19 -15 -11 -10 -9 -8 -8 -8 -8
6 5 4 4 3 2 2 0 1 1 1 -1 -3 -3 -2 -3 -6 -8 -11 -14 -16 -16 -19 -25 -33 -33 -31 -27 -20 -15 -14 -17 -22 -23 -20 -17 -12 -10 -10 -9 -8 -8 -8
3 2 1 1 1 0 1 -0 -2 -4 -4 -2 -2 -3 -7 -9 -10 -11 -11 -12 -17 -20 -27 -31 -31 -29 -25 -18 -15 -14 -15 -17 -19 -19 -20 -18 -17 -14 -11 -10 -9 -8 -8
-0 -1 -1 -0 -2 -4 -5 -6 -6 -4 -4 -5 -7 -9 -11 -11 -11 -9 -9 -19 -25 -25 -26 -27 -25 -22 -18 -16 -14 -14 -15 -16 -18 -19 -19 -20 -20 -18 -15 -13 -12 -9 -8
-1 -3 -5 -5 -6 -8 -6 -5 -6 -6 -6 -8 -15 -17 -18 -13 -9 -19 -18 -17 -18 -20 -22 -20 -17 -15 -14 -14 -14 -15 -16 -17 -18 -18 -18 -18 -18 -18 -17 -15 -13 -10 -9
-3 -5 -5 -5 -4 -5 -4 -4 -5 -7 -7 -7 -6 -7 -10 -10 -10 -10 -11 -12 -13 -14 -15 -16 -16 -16 -16 -15 -15 -16 -17 -17 -17 -18 -18 -19 -18 -17 -17 -15 -14 -12 -10
-3 -4 -4 -4 -5 -5 -6 -7 -7 -7 -8 -9 -9 -9 -10 -11 -11 -12 -12 -13 -13 -14 -15 -14 -14 -15 -15 -16 -16 -17 -17 -18 -18 -18 -19 -20 -20 -18 -17 -17 -15 -14 -13
-4 -5 -5 -6 -7 -7 -8 -8 -9 -10 -10 -10 -11 -11 -11 -12 -12 -13 -13 -14 -15 -16 -15 -15 -16 -16 -16 -17 -17 -18 -18 -18 -19 -19 -20 -20 -20 -20 -19 -18 -17 -15 -14
-6 -7 -7 -7 -8 -9 -9 -10 -11 -11 -12 -12 -12 -12 -13 -13 -13 -14 -15 -15 -16 -16 -16 -17 -17 -17 -18 -18 -19 -19 -19 -19 -20 -20 -20 -20 -20 -20 -21 -21 -19 -16 -15
-8 -8 -9 -10 -10 -11 -12 -13 -14 -14 -14 -14 -15 -14 -14 -14 -15 -16 -16 -17 -17 -18 -18 -18 -19 -19 -19 -19 -20 -20 -20 -20 -20 -20 -20 -20 -20 -20 -20 -21 -21 -18 -15
-11 -11 -14 -17 -18 -18 -18 -17 -17 -16 -15 -15 -16 -16 -16 -16 -17 -17 -18 -18 -19 -19 -20 -20 -20 -20 -20 -20 -21 -21 -21 -21 -21 -21 -21 -20 -21 -21 -20 -20 -20 -20 -16
-21 -20 -19 -17 -16 -16 -16 -16 -16 -16 -16 -17 -17 -18 -18 -18 -19 -19 -20 -20 -20 -21 -21 -21 -21 -21 -21 -21 -22 -22 -22 -21 -21 -21 -21 -21 -21 -20 -20 -20 -19 -20 -17
-15 -16 -16 -17 -17 -18 -18 -18 -18 -18 -18 -19 -19 -19 -20 -20 -20 -21 -21 -21 -22 -22 -22 -22 -22 -22 -22 -23 -24 -23 -21 -21 -21 -21 -21 -21 -21 -20 -20 -19 -19 -19 -17
-19 -19 -19 -19 -19 -19 -19 -19 -19 -19 -20 -20 -20 -21 -21 -21 -22 -22 -22 -22 -23 -23 -23 -23 -23 -24 -25 -25 -25 -22 -21 -21 -21 -21 -20 -21 -20 -20 -20 -19 -19 -19 -18
-20 -20 -20 -20 -20 -20 -20 -20 -21 -21 -21 -21 -22 -22 -22 -22 -22 -23 -23 -23 -24 -24 -24 -25 -25 -25 -25 -24 -21 -21 -21 -21 -20 -20 -20 -20 -20 -20 -19 -19 -19 -19 -18

GFSGL_850_dewp_087.txt.gz
Dewpoint
5 7 7 8 8 8 7 7 7 8 8 7 7 8 8 9 9 8 9 9 9 7 6 6 6 5 4 4 3 3 0 -2 -2 -2 -2 -2 -3 -5 -7 -6 -6 -7 -7
2 4 4 5 7 8 8 9 9 9 9 9 8 8 9 10 9 8 9 9 9 8 6 6 6 5 4 4 2 -0 -1 -2 -2 -1 -2 -3 -4 -6 -8 -10 -10 -9 -8
4 4 4 5 5 5 6 7 8 9 10 10 9 8 8 10 9 9 8 8 7 6 6 6 5 4 4 2 0 -1 -1 -2 -1 -2 -3 -5 -7 -10 -10 -10 -9 -9 -9
6 7 7 6 6 6 6 7 8 10 9 4 5 5 7 9 9 8 8 8 8 7 6 6 5 4 2 1 -1 -1 -1 -2 -2 -4 -6 -9 -9 -10 -10 -10 -9 -10 -10
7 7 7 8 8 8 8 9 9 9 10 7 6 6 6 9 9 8 7 8 7 6 5 4 3 2 2 -0 -1 -1 -2 -4 -5 -8 -11 -12 -13 -12 -11 -10 -11 -14 -20
6 7 8 8 9 9 9 10 10 10 11 10 7 9 8 9 9 8 7 7 5 4 4 3 2 1 -1 -1 -3 -3 -5 -8 -15 -16 -13 -11 -12 -12 -14 -20 -24 -22 -20
7 8 8 8 9 9 10 10 10 10 10 9 8 9 9 9 8 8 7 5 4 4 2 1 0 -1 -3 -3 -6 -6 -10 -13 -12 -11 -12 -18 -23 -27 -24 -23 -19 -15 -12
7 8 8 9 9 10 10 10 10 9 9 9 9 8 8 7 7 4 4 3 3 2 -0 -0 -1 -2 -2 -5 -8 -9 -10 -12 -19 -25 -29 -31 -29 -25 -19 -15 -11 -9 -9
9 9 10 10 10 10 9 9 9 9 9 8 8 7 5 4 4 4 3 3 1 -0 -1 -2 -1 -2 -5 -7 -9 -17 -25 -30 -34 -35 -34 -31 -24 -17 -13 -9 -8 -8 -8
10 10 10 10 9 8 9 8 8 8 7 5 4 4 4 4 3 2 2 -0 -0 -1 -2 -2 -5 -6 -10 -19 -24 -32 -36 -35 -33 -30 -29 -28 -23 -21 -18 -13 -10 -8 -8
9 9 9 8 7 7 7 7 7 6 5 4 4 3 2 1 1 0 -0 -2 -3 -3 -4 -7 -11 -16 -20 -27 -34 -35 -32 -31 -26 -20 -20 -22 -26 -24 -16 -12 -9 -8 -9
8 7 6 6 5 5 6 6 5 4 4 3 2 1 0 -0 -1 -2 -3 -3 -4 -5 -9 -13 -16 -21 -29 -33 -34 -33 -28 -21 -18 -18 -21 -24 -26 -26 -23 -14 -10 -10 -9
6 5 4 4 4 4 4 4 3 2 1 0 0 -0 -2 -3 -3 -3 -4 -5 -6 -11 -13 -15 -20 -21 -20 -29 -28 -22 -19 -19 -18 -20 -21 -23 -23 -24 -25 -22 -16 -11 -10
4 4 3 3 3 2 2 1 1 0 -0 -2 -3 -3 -3 -4 -5 -6 -6 -8 -9 -7 -10 -11 -11 -22 -27 -24 -21 -18 -17 -17 -17 -18 -20 -21 -23 -23 -23 -22 -22 -16 -14
2 2 1 1 1 1 0 -1 -2 -3 -4 -4 -4 -5 -5 -6 -6 -7 -8 -8 -8 -10 -13 -15 -15 -16 -19 -17 -16 -15 -15 -16 -17 -18 -19 -21 -21 -22 -22 -21 -20 -19 -15
0 -1 -1 -1 -1 -2 -3 -3 -3 -3 -3 -4 -5 -6 -7 -8 -8 -8 -9 -10 -10 -11 -11 -12 -12 -14 -15 -15 -14 -14 -15 -16 -17 -18 -19 -19 -21 -22 -22 -21 -19 -18 -16
-3 -5 -3 -3 -3 -4 -4 -4 -5 -6 -7 -7 -7 -7 -8 -9 -10 -10 -11 -11 -11 -12 -12 -13 -13 -14 -14 -15 -15 -16 -16 -17 -18 -18 -18 -19 -20 -21 -23 -22 -20 -18 -17
-3 -3 -4 -4 -5 -5 -6 -6 -7 -8 -8 -9 -9 -10 -10 -11 -11 -12 -12 -12 -13 -13 -14 -15 -15 -15 -15 -16 -16 -17 -17 -18 -18 -19 -19 -20 -20 -21 -21 -22 -22 -20 -18
-4 -5 -5 -6 -7 -7 -8 -8 -9 -9 -10 -11 -11 -11 -12 -12 -12 -13 -13 -14 -15 -15 -16 -16 -16 -16 -17 -17 -18 -18 -19 -19 -20 -20 -20 -20 -20 -20 -21 -21 -22 -22 -20
-6 -7 -7 -8 -9 -9 -10 -10 -11 -12 -13 -13 -13 -13 -13 -14 -14 -14 -15 -16 -17 -17 -17 -18 -18 -18 -18 -19 -19 -20 -20 -20 -21 -20 -20 -20 -20 -20 -20 -21 -21 -21 -21
-8 -9 -10 -11 -13 -15 -18 -18 -18 -17 -16 -15 -15 -15 -16 -16 -16 -17 -18 -18 -18 -19 -19 -19 -20 -20 -20 -20 -21 -21 -21 -21 -21 -21 -21 -21 -21 -21 -21 -20 -20 -20 -20
-14 -16 -18 -18 -17 -17 -16 -16 -16 -16 -16 -17 -17 -17 -18 -18 -18 -19 -19 -20 -20 -20 -21 -21 -21 -21 -21 -22 -22 -22 -22 -22 -22 -21 -21 -21 -21 -21 -21 -20 -20 -20 -20
-14 -15 -15 -16 -17 -18 -19 -19 -19 -19 -19 -19 -19 -20 -20 -20 -20 -21 -21 -22 -22 -22 -22 -23 -23 -23 -23 -23 -22 -22 -23 -24 -23 -22 -21 -21 -21 -21 -21 -20 -20 -20 -20
-21 -23 -23 -22 -22 -21 -21 -20 -20 -20 -20 -20 -21 -21 -21 -21 -21 -22 -22 -22 -23 -23 -23 -23 -24 -23 -23 -24 -24 -25 -25 -23 -22 -21 -21 -21 -21 -21 -20 -20 -20 -19 -19
-24 -24 -24 -24 -24 -23 -22 -22 -22 -22 -22 -22 -23 -22 -22 -22 -23 -23 -23 -23 -23 -24 -24 -24 -24 -25 -25 -25 -25 -24 -23 -22 -22 -21 -21 -21 -21 -20 -20 -20 -20 -19 -19
-29 -28 -26 -25 -25 -25 -24 -23 -23 -24 -24 -24 -24 -24 -24 -24 -24 -24 -24 -24 -24 -24 -24 -25 -25 -25 -25 -24 -23 -22 -21 -21 -21 -21 -21 -20 -20 -20 -20 -20 -19 -19 -19

GFSGL_850_dewp_090.txt.gz
Dewpoint
-0 1 1 0 -1 -1 -0 0 1 2 1 1 1 3 5 7 7 8 8 8 8 8 9 9 8 7 6 6 5 5 4 2 2 3 0 -2 -2 -2 -3 -4 -6 -7 -9
1 2 2 3 3 3 3 4 4 4 5 6 7 7 8 9 9 8 9 9 5 6 8 9 8 7 6 6 6 5 3 3 2 -0 -1 -2 -2 -2 -3 -4 -10 -11 -11
1 1 2 2 4 5 6 7 7 8 8 8 9 9 9 9 9 8 8 6 9 6 8 8 8 8 6 6 5 4 4 2 0 0 -1 -2 -2 -3 -5 -9 -11 -11 -11
4 3 3 3 3 2 3 4 4 5 6 7 7 7 6 8 6 7 8 7 9 9 8 8 8 7 6 6 4 3 2 1 1 -1 -2 -3 -4 -6 -9 -12 -14 -15 -15
5 6 5 4 3 4 4 5 6 7 7 7 8 9 10 7 5 5 6 7 8 8 8 8 6 5 5 4 3 2 2 0 -0 -1 -3 -5 -7 -13 -13 -12 -14 -21 -30
5 5 7 7 7 7 7 8 8 8 9 9 9 9 9 9 9 8 6 9 8 8 8 7 5 4 3 2 2 1 -0 -1 -3 -4 -7 -11 -13 -11 -13 -21 -27 -27 -28
6 7 7 8 8 9 9 9 9 10 9 9 9 9 9 8 8 8 8 8 7 6 5 4 3 3 3 2 0 -1 -4 -3 -4 -6 -9 -10 -13 -24 -29 -29 -26 -24 -22
7 8 8 9 9 9 10 9 9 9 9 9 9 9 9 8 8 6 5 4 4 4 3 3 2 2 1 -1 -4 -2 -3 -3 -5 -10 -17 -26 -30 -26 -22 -18 -18 -18 -20
8 9 9 9 9 9 9 9 9 9 8 9 9 8 7 6 5 4 4 3 3 3 3 2 1 -0 -2 -2 -2 -3 -6 -15 -23 -29 -32 -29 -20 -22 -21 -18 -18 -11 -14
9 9 8 8 8 8 8 8 7 8 8 7 6 5 4 4 3 3 2 3 3 2 -2 -2 -2 -3 -3 -4 -8 -18 -25 -30 -33 -29 -26 -25 -24 -25 -27 -27 -22 -10 -10
9 9 8 8 8 8 7 7 7 6 6 5 5 4 3 2 2 1 1 -1 -1 -2 -3 -3 -4 -6 -7 -10 -17 -27 -27 -22 -24 -24 -25 -24 -23 -24 -26 -28 -25 -13 -11
8 7 7 6 6 5 4 5 5 5 4 4 3 2 1 0 -1 -2 -2 -3 -3 -4 -5 -6 -7 -8 -16 -26 -19 -11 -13 -15 -15 -20 -18 -17 -19 -21 -25 -27 -27 -25 -17
6 5 4 4 4 3 4 4 4 3 2 2 1 -0 -1 -3 -3 -4 -4 -4 -4 -5 -5 -7 -8 -9 -8 -9 -11 -13 -15 -16 -12 -11 -12 -13 -14 -18 -24 -25 -24 -25 -26
4 4 3 3 3 3 2 1 1 -0 -1 -2 -3 -3 -4 -4 -4 -4 -5 -6 -7 -7 -7 -7 -8 -9 -10 -11 -12 -12 -12 -12 -12 -13 -13 -13 -15 -21 -23 -23 -24 -23 -24
3 2 2 1 0 0 -0 -2 -2 -3 -4 -4 -4 -4 -5 -6 -6 -7 -8 -8 -8 -9 -10 -10 -11 -11 -12 -12 -13 -13 -13 -14 -14 -14 -15 -18 -20 -21 -22 -23 -24 -24 -22
0 -1 -1 -1 -2 -2 -3 -3 -4 -4 -5 -5 -6 -7 -7 -8 -9 -9 -10 -10 -11 -11 -12 -12 -12 -13 -13 -14 -14 -14 -15 -15 -16 -17 -18 -19 -19 -20 -21 -23 -23 -24 -24
-2 -3 -2 -3 -3 -4 -5 -5 -6 -7 -7 -8 -9 -9 -10 -10 -11 -11 -11 -12 -12 -12 -13 -14 -14 -14 -15 -15 -15 -16 -16 -17 -17 -18 -19 -19 -19 -20 -21 -22 -22 -23 -24
-3 -4 -4 -5 -5 -6 -7 -7 -8 -8 -9 -10 -10 -11 -11 -12 -12 -12 -13 -13 -14 -14 -15 -15 -15 -16 -16 -16 -17 -17 -18 -19 -19 -19 -20 -20 -20 -20 -21 -21 -21 -22 -22
-5 -6 -6 -7 -8 -8 -9 -9 -10 -11 -12 -12 -12 -12 -13 -13 -13 -14 -15 -15 -16 -17 -17 -17 -18 -18 -18 -18 -19 -19 -19 -20 -20 -20 -21 -21 -21 -21 -21 -20 -20 -21 -21
-7 -8 -8 -9 -10 -12 -13 -15 -17 -17 -17 -17 -16 -16 -16 -16 -17 -17 -18 -18 -19 -19 -19 -19 -19 -20 -20 -20 -20 -21 -21 -21 -21 -21 -21 -21 -21 -21 -21 -21 -21 -20 -20
-10 -12 -14 -15 -15 -15 -15 -15 -16 -17 -17 -18 -18 -18 -18 -19 -19 -20 -20 -21 -21 -21 -21 -21 -21 -22 -22 -22 -22 -22 -22 -22 -22 -22 -22 -22 -22 -21 -21 -21 -21 -20 -20
-13 -14 -15 -17 -19 -22 -23 -23 -22 -22 -22 -21 -21 -21 -21 -21 -21 -21 -21 -22 -22 -22 -23 -23 -23 -23 -23 -23 -23 -23 -23 -23 -23 -23 -24 -23 -22 -21 -21 -21 -21 -20 -20
-24 -26 -27 -27 -26 -26 -26 -26 -25 -25 -24 -24 -23 -23 -23 -23 -23 -22 -23 -23 -23 -23 -23 -24 -24 -24 -24 -24 -24 -24 -24 -24 -24 -24 -23 -22 -22 -22 -21 -21 -21 -20 -20
-30 -31 -30 -30 -30 -29 -28 -28 -27 -26 -25 -24 -24 -24 -24 -24 -24 -24 -24 -24 -24 -24 -24 -24 -24 -24 -25 -25 -25 -25 -24 -24 -24 -23 -23 -23 -22 -21 -21 -21 -21 -20 -20
-33 -34 -34 -32 -30 -30 -28 -27 -26 -25 -25 -25 -25 -25 -25 -25 -25 -25 -25 -25 -24 -24 -24 -24 -25 -25 -25 -25 -24 -24 -23 -22 -22 -22 -22 -22 -22 -21 -21 -21 -20 -20 -20
-35 -33 -32 -30 -29 -28 -26 -26 -25 -25 -25 -26 -26 -25 -25 -25 -24 -24 -24 -24 -24 -24 -25 -25 -25 -25 -25 -23 -22 -22 -22 -22 -22 -22 -22 -22 -21 -21 -21 -21 -20 -20 -20

GFSGL_850_dewp_093.txt.gz
Dewpoint
1 2 4 5 5 5 4 4 4 4 4 4 4 4 3 3 3 3 3 5 8 8 8 8 8 7 8 8 8 7 6 6 5 5 3 2 2 2 -1 -2 -2 -3 -4
-1 -1 -0 -0 0 0 2 1 2 3 3 3 3 3 3 2 2 4 6 6 7 8 7 8 7 6 6 7 8 7 6 6 5 5 4 2 2 -1 -1 -2 -2 -3 -4
1 -0 -0 -0 0 0 -1 -1 -1 -1 -0 0 1 2 3 5 7 8 9 9 9 7 9 8 7 5 6 7 8 7 6 6 6 4 2 2 -0 1 -0 -1 -3 -4 -7
2 1 1 0 1 1 2 3 4 4 5 6 6 7 7 7 8 7 5 6 9 8 8 8 7 7 8 7 7 7 6 5 4 3 2 0 1 -0 -1 -4 -5 -7 -13
5 4 3 2 2 2 3 4 4 4 4 5 6 6 7 8 8 8 8 9 9 6 7 8 8 8 7 7 7 6 5 4 2 1 1 0 -0 -1 -2 -3 -9 -12 -13
5 6 6 6 5 4 4 4 4 5 5 7 8 8 8 9 9 8 9 9 8 8 8 7 7 7 6 4 4 3 3 2 1 1 -0 -1 -2 -2 -4 -5 -10 -17 -13
5 6 7 7 7 7 7 8 8 8 9 9 9 10 9 9 9 9 8 8 8 7 6 6 5 4 3 3 2 2 2 1 0 -1 -2 -3 -4 -4 -7 -17 -25 -26 -15
6 6 7 8 8 8 9 9 9 9 9 9 9 9 8 8 8 8 8 6 5 4 4 3 3 3 2 2 1 0 -1 -2 -3 -4 -4 -5 -11 -22 -28 -26 -26 -23 -20
6 7 8 9 9 9 9 9 9 9 9 9 8 8 7 7 7 7 5 4 4 3 2 1 1 0 1 -0 -1 -3 -4 -4 -5 -9 -13 -12 -18 -25 -24 -24 -23 -14 -10
9 9 9 9 8 8 8 8 8 8 7 7 7 6 6 5 4 4 3 2 2 1 0 -1 -3 -4 -4 -4 -4 -5 -6 -8 -9 -11 -15 -13 -12 -15 -16 -21 -13 -10 -9
8 8 8 8 8 7 7 7 6 6 6 5 5 4 3 2 2 1 1 0 -1 -2 -3 -4 -4 -4 -4 -4 -4 -5 -8 -11 -13 -12 -11 -12 -11 -10 -10 -10 -11 -12 -14
7 7 7 6 6 5 4 4 4 4 4 3 2 2 -0 -1 -2 -3 -3 -3 -4 -4 -4 -4 -4 -5 -6 -6 -7 -9 -9 -9 -9 -10 -11 -11 -11 -11 -11 -11 -11 -12 -12
6 5 4 4 4 4 3 3 3 2 1 -0 -1 -2 -3 -4 -4 -4 -4 -4 -5 -5 -6 -7 -7 -8 -8 -9 -9 -10 -11 -11 -12 -12 -12 -12 -13 -13 -13 -13 -13 -13 -16
3 3 3 3 2 2 1 0 -0 -1 -2 -3 -3 -4 -4 -5 -5 -6 -6 -7 -7 -8 -8 -9 -9 -10 -10 -11 -12 -12 -12 -13 -13 -13 -14 -14 -14 -14 -15 -15 -18 -20 -20
2 1 1 1 0 -1 -1 -2 -3 -4 -4 -4 -5 -6 -6 -7 -8 -8 -9 -9 -10 -11 -11 -12 -12 -12 -12 -13 -13 -13 -14 -14 -14 -15 -15 -16 -16 -17 -17 -17 -17 -17 -17
0 -1 -1 -2 -2 -3 -4 -5 -5 -6 -6 -7 -7 -8 -9 -9 -10 -10 -11 -11 -12 -12 -12 -13 -13 -14 -14 -14 -14 -15 -15 -16 -16 -17 -17 -17 -18 -18 -18 -18 -18 -18 -18
-2 -2 -3 -3 -4 -5 -6 -7 -7 -8 -9 -10 -10 -11 -11 -11 -11 -12 -12 -13 -13 -14 -14 -15 -15 -16 -16 -16 -16 -17 -17 -18 -18 -19 -19 -19 -19 -19 -20 -19 -19 -19 -19
-3 -4 -5 -5 -6 -7 -8 -8 -9 -10 -10 -11 -12 -12 -12 -13 -13 -14 -15 -15 -16 -16 -17 -17 -17 -18 -18 -18 -18 -19 -20 -20 -20 -20 -21 -21 -21 -21 -20 -20 -20 -20 -20
-6 -7 -7 -8 -9 -10 -11 -12 -14 -15 -16 -16 -15 -16 -16 -17 -17 -19 -20 -21 -20 -19 -19 -19 -20 -20 -21 -21 -21 -21 -22 -22 -22 -22 -22 -22 -22 -22 -22 -21 -21 -21 -21
-8 -10 -11 -13 -14 -15 -15 -16 -17 -19 -21 -22 -23 -23 -23 -24 -26 -25 -24 -23 -23 -21 -21 -21 -22 -22 -22 -22 -23 -23 -23 -23 -23 -23 -23 -23 -23 -22 -22 -22 -22 -22 -21
-13 -14 -14 -17 -22 -26 -28 -28 -27 -26 -26 -25 -26 -26 -27 -26 -25 -24 -24 -23 -23 -23 -24 -24 -24 -23 -23 -23 -24 -24 -24 -24 -23 -24 -24 -24 -24 -23 -23 -23 -22 -22 -22
-23 -29 -31 -32 -31 -32 -32 -32 -32 -31 -30 -29 -28 -26 -25 -25 -24 -24 -24 -24 -24 -24 -24 -24 -24 -24 -24 -25 -25 -25 -25 -25 -24 -24 -24 -24 -24 -24 -23 -23 -23 -23 -22
-34 -35 -35 -36 -36 -35 -35 -33 -31 -29 -28 -27 -26 -26 -26 -25 -25 -25 -25 -25 -25 -25 -25 -25 -25 -25 -25 -25 -25 -25 -25 -25 -24 -24 -24 -25 -24 -24 -24 -23 -23 -23 -22
-39 -39 -39 -38 -36 -33 -31 -29 -28 -27 -27 -26 -26 -26 -26 -26 -26 -25 -25 -25 -24 -24 -24 -24 -25 -25 -25 -25 -25 -25 -23 -23 -23 -22 -23 -22 -22 -22 -23 -23 -23 -23 -22
-38 -37 -35 -33 -31 -29 -28 -28 -27 -27 -27 -26 -26 -26 -25 -25 -25 -25 -25 -25 -25 -25 -26 -26 -25 -25 -25 -24 -23 -22 -22 -22 -22 -22 -22 -22 -22 -22 -22 -22 -22 -21 -21
-34 -32 -31 -30 -29 -28 -28 -27 -27 -27 -26 -26 -25 -25 -25 -25 -25 -25 -25 -26 -26 -26 -26 -25 -24 -23 -22 -22 -22 -22 -22 -21 -21 -22 -22 -22 -22 -21 -22 -21 -21 -21 -21

GFSGL_850_dewp_096.txt.gz
Dewpoint
8 8 8 8 8 8 7 6 6 6 6 7 7 7 8 7 7 7 7 7 7 6 5 3 6 6 7 8 8 8 8 7 5 6 5 5 4 4 2 1 -1 -0 -2
6 7 8 8 8 8 7 7 6 6 6 6 7 7 7 7 7 7 5 3 3 3 4 5 6 9 8 7 7 7 8 7 7 6 7 5 4 4 3 2 1 -2 -2
7 7 7 6 6 7 5 6 7 6 7 7 8 8 7 7 6 5 4 2 3 7 7 8 7 9 7 7 8 7 7 6 7 6 6 5 4 4 3 1 -1 -1 -1
8 7 6 5 4 5 4 4 5 4 4 4 4 4 5 6 7 8 7 7 7 8 8 8 8 9 6 8 7 7 7 7 7 6 6 4 4 2 2 0 -0 -0 -1
8 8 7 5 4 5 3 2 3 5 4 5 7 8 8 8 8 7 8 8 9 9 9 8 8 7 7 7 6 6 5 5 4 4 3 2 2 2 0 -0 -1 -2 -3
8 8 8 8 6 6 6 7 5 6 7 6 8 8 7 8 9 9 9 9 9 8 7 7 7 6 6 6 5 5 4 4 3 3 1 1 0 -0 -1 -1 -3 -4 -4
8 8 8 8 8 8 8 8 8 8 8 8 9 9 9 9 9 9 9 8 8 7 7 6 5 5 4 4 4 3 2 2 2 1 0 -0 -1 -2 -3 -4 -5 -6 -7
8 9 8 8 9 9 9 9 9 8 9 9 9 9 9 8 8 8 8 7 7 6 5 5 4 3 2 1 1 1 -0 -0 -1 -1 -2 -3 -4 -5 -6 -6 -7 -8 -8
9 8 8 8 9 9 9 8 8 8 8 8 8 7 7 7 7 7 6 5 4 4 3 2 0 -0 -1 -2 -2 -3 -3 -3 -4 -4 -4 -4 -4 -5 -7 -9 -8 -8 -8
8 8 9 9 9 8 8 8 8 8 7 7 6 5 5 4 4 4 3 2 2 1 -1 -2 -3 -3 -3 -3 -3 -3 -3 -4 -4 -4 -5 -6 -7 -8 -8 -9 -9 -9 -9
9 9 8 8 8 7 7 6 6 6 5 5 4 3 2 1 1 0 -1 -1 -2 -2 -3 -4 -4 -4 -4 -4 -4 -5 -6 -6 -7 -8 -9 -9 -9 -10 -10 -10 -10 -11 -11
8 8 7 7 6 6 5 5 4 4 4 2 1 0 -1 -2 -3 -3 -4 -4 -4 -4 -4 -5 -5 -6 -6 -7 -8 -9 -9 -9 -10 -10 -11 -11 -11 -11 -12 -12 -12 -12 -12
7 6 5 4 4 4 3 3 2 2 1 -0 -1 -2 -3 -4 -4 -4 -4 -5 -5 -6 -7 -7 -8 -9 -9 -9 -10 -11 -11 -11 -11 -12 -12 -12 -13 -13 -13 -13 -14 -14 -14
4 3 3 3 2 2 1 1 0 -1 -2 -3 -4 -4 -5 -6 -7 -7 -8 -8 -9 -10 -11 -11 -11 -11 -11 -11 -11 -12 -12 -13 -13 -13 -13 -14 -14 -14 -15 -15 -15 -14 -14
2 1 1 0 0 -0 -1 -3 -3 -4 -4 -5 -6 -6 -8 -8 -9 -10 -10 -11 -12 -12 -11 -11 -11 -11 -11 -12 -12 -12 -13 -13 -14 -14 -15 -15 -15 -15 -15 -15 -16 -16 -16
0 -1 -2 -3 -3 -4 -4 -5 -6 -6 -7 -7 -8 -9 -9 -10 -11 -11 -12 -13 -13 -14 -12 -13 -13 -13 -13 -14 -14 -14 -15 -15 -16 -16 -16 -16 -17 -17 -17 -17 -17 -17 -17
-1 -2 -3 -4 -5 -6 -7 -8 -8 -9 -10 -10 -11 -11 -12 -12 -12 -13 -14 -15 -16 -16 -14 -15 -15 -15 -16 -16 -16 -16 -17 -17 -18 -18 -18 -18 -18 -18 -18 -18 -18 -18 -18
-3 -4 -5 -6 -7 -8 -8 -9 -10 -11 -12 -12 -13 -14 -15 -15 -17 -20 -23 -24 -16 -17 -17 -17 -17 -17 -18 -18 -18 -19 -19 -19 -20 -20 -20 -20 -20 -20 -19 -19 -19 -19 -19
-5 -6 -7 -8 -9 -10 -11 -12 -12 -12 -13 -14 -15 -17 -23 -26 -30 -32 -32 -19 -18 -18 -18 -18 -19 -19 -20 -20 -20 -20 -21 -21 -21 -21 -21 -21 -21 -21 -20 -20 -20 -20 -20
-9 -10 -11 -13 -14 -15 -17 -19 -19 -17 -17 -17 -20 -24 -20 -17 -18 -19 -19 -20 -20 -20 -20 -20 -20 -21 -21 -21 -21 -21 -21 -22 -22 -22 -22 -22 -22 -21 -21 -21 -21 -20 -20
-13 -14 -18 -27 -31 -31 -29 -25 -19 -16 -16 -17 -22 -30 -28 -19 -19 -20 -20 -21 -21 -21 -21 -21 -22 -22 -22 -22 -22 -22 -23 -23 -23 -23 -23 -22 -22 -22 -22 -21 -21 -21 -20
-31 -33 -35 -37 -35 -34 -28 -23 -20 -19 -18 -18 -19 -22 -27 -20 -20 -20 -21 -23 -23 -22 -22 -22 -22 -23 -23 -23 -24 -24 -24 -24 -24 -24 -24 -24 -23 -23 -22 -22 -21 -21 -21
-38 -39 -39 -38 -37 -33 -28 -25 -23 -22 -21 -21 -20 -21 -23 -25 -24 -24 -25 -25 -25 -25 -25 -25 -25 -25 -24 -24 -24 -24 -24 -24 -24 -25 -25 -24 -24 -23 -23 -22 -22 -21 -21
-39 -38 -37 -35 -32 -31 -29 -27 -27 -28 -26 -25 -26 -26 -26 -26 -24 -25 -25 -26 -26 -26 -26 -26 -26 -26 -25 -24 -23 -22 -22 -22 -22 -22 -24 -24 -24 -24 -23 -23 -23 -22 -22
-36 -35 -33 -31 -30 -29 -28 -28 -28 -28 -27 -27 -27 -26 -26 -26 -25 -26 -26 -26 -26 -26 -25 -24 -23 -23 -22 -22 -22 -22 -22 -21 -21 -22 -22 -23 -24 -24 -24 -23 -23 -22 -22
-32 -32 -31 -30 -29 -29 -28 -28 -27 -27 -27 -26 -26 -26 -26 -26 -26 -26 -25 -25 -24 -24 -23 -23 -22 -22 -22 -22 -21 -21 -21 -21 -21 -21 -21 -21 -22 -24 -23 -23 -23 -22 -22

GFSGL_850_dewp_099.txt.gz
Dewpoint
9 9 9 9 9 9 8 9 8 8 7 7 6 6 6 7 6 7 6 5 7 7 7 7 7 7 8 7 6 7 7 7 7 7 7 7 6 6 6 6 5 5 4
9 9 9 9 9 8 8 8 8 8 7 7 7 7 7 7 7 7 7 7 7 7 7 8 8 8 7 5 6 8 8 8 7 6 7 7 6 6 6 6 5 4 3
8 9 9 9 9 9 9 8 8 8 8 8 8 7 7 7 7 8 8 7 7 8 8 8 7 5 6 9 9 8 8 7 7 6 6 7 6 5 5 5 4 3 0
8 8 8 9 9 9 9 9 9 9 8 8 8 8 8 8 8 8 8 8 8 8 7 7 8 9 9 8 8 7 7 7 6 6 5 5 5 5 5 4 3 1 0
8 8 8 9 9 9 9 9 9 9 9 9 8 8 8 8 8 8 8 7 8 8 9 9 9 8 8 7 7 6 6 5 5 5 5 4 4 4 3 3 1 0 -0
9 9 8 9 9 9 9 9 9 9 9 9 8 8 8 8 8 8 9 9 8 9 8 8 7 7 6 6 6 5 5 4 4 3 3 3 2 1 1 1 -0 -1 -2
9 9 9 9 9 9 9 9 9 8 8 8 9 9 9 9 9 9 9 9 8 8 7 7 6 5 4 4 3 3 2 2 2 1 0 -0 -1 -2 -2 -3 -3 -4 -4
9 8 9 9 9 9 9 8 8 8 8 8 8 8 8 9 9 8 8 7 7 6 5 4 3 3 1 0 -0 -1 -1 -2 -2 -2 -3 -3 -3 -3 -4 -4 -4 -4 -4
9 9 9 9 9 9 9 8 8 9 8 8 8 8 7 7 6 6 5 4 4 3 2 1 -0 -1 -2 -3 -3 -3 -3 -4 -3 -3 -3 -4 -4 -4 -5 -5 -6 -7 -7
9 9 9 9 9 9 9 9 8 8 8 6 6 5 4 4 3 3 2 2 1 0 -1 -2 -3 -3 -4 -4 -4 -4 -4 -5 -6 -6 -6 -7 -7 -8 -8 -8 -9 -9 -9
9 9 9 9 9 8 8 7 6 6 5 4 3 2 1 0 -0 -1 -1 -1 -2 -3 -4 -4 -4 -5 -5 -6 -7 -8 -8 -8 -8 -9 -9 -9 -10 -10 -10 -10 -10 -11 -11
8 8 7 7 7 6 5 4 4 3 3 1 1 -0 -2 -2 -3 -4 -4 -4 -4 -5 -5 -7 -8 -9 -10 -10 -10 -11 -12 -11 -10 -10 -10 -10 -10 -11 -11 -12 -12 -12 -13
8 6 5 4 4 4 3 2 2 1 1 -1 -1 -2 -4 -5 -5 -5 -6 -7 -8 -9 -10 -10 -11 -11 -11 -10 -12 -12 -11 -12 -12 -12 -11 -11 -12 -12 -13 -13 -13 -13 -13
5 3 2 3 2 2 2 0 -0 -1 -2 -3 -4 -5 -6 -7 -7 -8 -9 -10 -11 -12 -10 -10 -11 -11 -11 -11 -11 -11 -12 -13 -13 -13 -13 -14 -14 -14 -14 -14 -14 -15 -15
3 1 0 1 0 -1 -1 -2 -2 -4 -4 -5 -5 -6 -7 -8 -10 -10 -12 -12 -14 -14 -11 -11 -12 -12 -12 -13 -13 -13 -13 -14 -14 -15 -15 -16 -16 -16 -16 -16 -16 -17 -17
1 -0 -1 -2 -2 -3 -4 -5 -6 -6 -7 -7 -8 -9 -10 -11 -11 -13 -15 -18 -21 -23 -13 -13 -13 -14 -14 -15 -15 -16 -16 -16 -16 -17 -17 -17 -17 -17 -18 -18 -18 -18 -18
-2 -3 -4 -4 -4 -5 -6 -7 -8 -9 -10 -10 -11 -12 -14 -15 -16 -20 -26 -18 -24 -18 -15 -15 -15 -15 -16 -17 -17 -17 -17 -17 -18 -18 -18 -18 -18 -18 -19 -18 -19 -18 -18
-2 -4 -5 -6 -6 -7 -8 -9 -10 -11 -12 -14 -18 -22 -26 -32 -38 -38 -35 -18 -16 -16 -17 -17 -16 -17 -17 -18 -18 -18 -19 -19 -19 -19 -19 -19 -20 -19 -19 -19 -19 -19 -19
-4 -5 -6 -7 -8 -9 -9 -10 -11 -11 -12 -13 -14 -16 -19 -19 -21 -23 -28 -18 -17 -17 -17 -17 -18 -18 -19 -19 -19 -20 -20 -20 -20 -20 -20 -20 -20 -20 -20 -20 -20 -20 -20
-8 -9 -10 -11 -11 -12 -13 -13 -13 -14 -14 -17 -24 -26 -17 -16 -16 -17 -18 -18 -18 -18 -19 -19 -19 -19 -20 -20 -20 -20 -20 -21 -21 -21 -21 -21 -21 -21 -21 -21 -20 -20 -19
-12 -13 -17 -20 -18 -16 -15 -14 -14 -14 -15 -17 -31 -30 -28 -17 -17 -18 -18 -19 -20 -20 -20 -20 -21 -21 -21 -21 -21 -22 -22 -22 -22 -22 -22 -22 -22 -22 -21 -21 -21 -20 -20
-27 -30 -29 -26 -21 -22 -21 -18 -16 -16 -16 -16 -17 -22 -23 -18 -18 -19 -19 -20 -21 -21 -21 -22 -22 -22 -22 -22 -23 -23 -23 -23 -22 -23 -23 -23 -23 -22 -22 -21 -21 -21 -20
-37 -36 -36 -32 -28 -23 -20 -18 -17 -17 -17 -18 -18 -18 -19 -19 -20 -20 -21 -21 -22 -23 -23 -24 -24 -24 -23 -23 -23 -23 -23 -23 -23 -24 -24 -24 -23 -23 -22 -22 -22 -21 -21
-36 -35 -30 -23 -20 -19 -20 -22 -25 -24 -18 -18 -19 -19 -20 -20 -21 -21 -21 -26 -27 -26 -26 -26 -25 -23 -23 -23 -22 -22 -22 -22 -22 -22 -22 -23 -24 -24 -23 -23 -22 -22 -21
-32 -29 -25 -22 -21 -19 -18 -18 -18 -19 -19 -19 -20 -20 -21 -21 -21 -22 -25 -26 -26 -25 -24 -24 -23 -23 -23 -22 -22 -21 -21 -21 -21 -21 -21 -22 -23 -24 -24 -23 -22 -22 -21
-28 -24 -20 -19 -18 -18 -18 -19 -20 -19 -20 -20 -21 -22 -22 -21 -24 -27 -26 -25 -25 -24 -24 -23 -23 -23 -22 -22 -21 -21 -20 -20 -20 -20 -21 -21 -22 -24 -23 -23 -23 -22 -22

GFSGL_850_dewp_102.txt.gz
Dewpoint
9 9 9 9 8 8 7 8 7 6 6 7 7 7 7 7 6 4 5 5 4 4 4 5 5 6 7 6 6 7 7 7 8 6 6 7 8 7 7 7 7 7 6
9 10 10 8 8 8 8 5 4 5 7 8 7 6 6 5 5 5 4 4 6 7 6 7 6 7 8 7 8 8 8 8 8 8 8 7 7 7 6 6 6 6 6
9 9 9 9 9 8 8 8 8 8 8 8 8 7 7 7 6 6 6 6 6 7 8 8 8 8 8 9 9 9 8 7 8 8 7 6 6 6 6 5 5 5 5
9 9 9 9 9 8 8 7 8 8 8 8 7 7 7 7 7 7 7 7 7 7 8 9 9 9 9 8 8 8 7 7 6 6 5 5 5 5 5 5 4 4 5
8 9 9 9 9 9 9 8 8 8 8 8 8 8 8 8 8 8 9 9 9 8 9 9 9 9 9 8 8 7 6 6 5 4 4 4 3 3 2 2 2 2 2
8 8 8 9 9 9 9 9 9 9 8 8 8 9 9 8 8 8 8 7 8 8 8 9 8 7 6 7 6 5 4 3 3 3 2 1 1 0 -0 -1 -1 -1 -1
8 8 8 8 9 9 9 9 8 8 8 8 8 8 8 7 7 8 8 8 8 8 8 7 5 5 4 3 3 1 1 -0 -0 -1 -1 -2 -3 -3 -3 -3 -3 -3 -4
9 9 9 9 9 9 9 9 8 8 8 8 8 8 8 8 8 8 8 8 8 6 4 3 3 2 1 -0 -1 -3 -3 -4 -3 -4 -3 -4 -4 -4 -4 -5 -5 -5 -6
9 9 9 9 9 9 9 8 8 8 8 8 8 8 7 6 6 6 5 4 3 3 1 1 -0 -1 -2 -3 -4 -4 -4 -4 -5 -6 -7 -7 -8 -8 -8 -8 -8 -8 -8
9 9 9 9 9 9 8 8 8 8 8 7 7 5 4 4 2 2 2 2 1 -0 -1 -3 -3 -3 -4 -6 -7 -8 -9 -9 -10 -10 -9 -9 -9 -9 -9 -9 -10 -10 -10
9 9 9 9 9 9 8 8 7 7 6 4 4 2 1 0 -0 -1 -1 -2 -3 -4 -4 -6 -7 -9 -11 -11 -11 -12 -12 -11 -10 -10 -11 -11 -10 -10 -10 -11 -12 -12 -13
9 9 9 9 9 8 7 5 4 3 2 1 0 -1 -2 -3 -3 -3 -4 -5 -6 -8 -9 -10 -11 -11 -11 -11 -13 -12 -11 -12 -13 -15 -13 -12 -12 -13 -14 -14 -14 -14 -13
8 8 7 6 5 4 5 2 1 1 -0 -1 -1 -2 -3 -5 -6 -7 -8 -10 -11 -11 -12 -12 -12 -12 -11 -11 -12 -12 -12 -13 -14 -14 -14 -14 -15 -16 -17 -17 -17 -17 -18
7 5 3 2 0 -0 1 -1 -1 -2 -2 -3 -3 -5 -6 -7 -8 -10 -12 -14 -17 -17 -12 -13 -14 -15 -13 -14 -14 -14 -14 -15 -15 -16 -17 -18 -18 -18 -18 -19 -19 -19 -20
3 1 1 1 0 -1 -1 -2 -2 -3 -3 -4 -5 -6 -8 -10 -12 -14 -21 -32 -28 -19 -16 -16 -17 -19 -18 -17 -17 -17 -17 -17 -18 -19 -18 -19 -19 -20 -20 -20 -20 -20 -20
1 0 -0 -2 -1 -2 -2 -3 -5 -5 -6 -7 -9 -10 -12 -15 -17 -29 -39 -36 -33 -19 -17 -18 -18 -18 -17 -17 -18 -18 -19 -19 -19 -19 -20 -20 -20 -20 -20 -20 -21 -20 -20
-0 -1 -2 -2 -3 -3 -3 -4 -6 -8 -10 -12 -14 -20 -29 -34 -36 -35 -17 -24 -23 -22 -21 -18 -18 -18 -18 -18 -19 -20 -19 -20 -20 -20 -20 -20 -20 -20 -21 -21 -21 -21 -21
-4 -3 -3 -4 -5 -6 -7 -9 -11 -13 -19 -22 -28 -31 -30 -34 -36 -35 -22 -20 -25 -23 -18 -18 -18 -19 -20 -19 -20 -20 -20 -20 -20 -20 -20 -21 -21 -21 -21 -21 -21 -21 -21
-3 -5 -6 -6 -7 -9 -10 -11 -12 -13 -14 -15 -15 -17 -16 -16 -23 -28 -28 -26 -20 -21 -20 -19 -20 -20 -20 -19 -20 -20 -20 -20 -21 -21 -21 -22 -21 -21 -22 -22 -21 -21 -21
-5 -6 -8 -9 -10 -11 -14 -16 -17 -20 -25 -32 -30 -19 -16 -19 -21 -23 -25 -26 -24 -22 -22 -21 -20 -20 -20 -20 -20 -21 -22 -22 -21 -21 -21 -22 -22 -22 -22 -21 -21 -21 -21
-8 -9 -12 -17 -17 -16 -17 -18 -21 -24 -29 -32 -30 -27 -22 -22 -21 -22 -24 -25 -25 -25 -24 -23 -22 -21 -22 -22 -24 -24 -23 -22 -22 -22 -22 -22 -22 -22 -22 -22 -22 -22 -21
-18 -21 -24 -25 -23 -23 -21 -19 -20 -18 -17 -19 -21 -23 -22 -23 -21 -22 -25 -27 -27 -26 -26 -26 -25 -25 -25 -24 -24 -24 -23 -22 -22 -22 -22 -22 -22 -22 -23 -23 -22 -22 -22
-28 -29 -29 -27 -25 -22 -20 -19 -19 -19 -19 -19 -20 -21 -22 -23 -24 -25 -25 -27 -27 -27 -27 -26 -26 -25 -24 -24 -23 -23 -22 -22 -21 -21 -21 -21 -21 -21 -22 -23 -23 -23 -22
-30 -28 -27 -25 -26 -27 -25 -25 -24 -21 -20 -20 -20 -22 -24 -24 -23 -23 -25 -27 -27 -26 -26 -25 -24 -24 -24 -23 -22 -22 -21 -21 -21 -21 -21 -21 -21 -21 -22 -22 -23 -23 -22
-29 -27 -26 -26 -25 -23 -21 -21 -20 -21 -23 -25 -25 -24 -23 -24 -23 -25 -26 -26 -26 -25 -25 -25 -24 -24 -23 -23 -22 -22 -21 -20 -20 -20 -20 -20 -20 -21 -21 -22 -23 -23 -22
-24 -23 -23 -22 -21 -21 -23 -25 -26 -26 -26 -24 -25 -26 -25 -23 -25 -27 -26 -25 -25 -25 -25 -24 -24 -24 -23 -23 -22 -21 -21 -21 -20 -20 -20 -20 -20 -20 -21 -22 -22 -23 -23

GFSGL_850_dewp_105.txt.gz
Dewpoint
8 9 9 10 9 9 9 9 9 9 8 8 8 7 6 6 6 6 6 5 4 7 6 5 5 4 4 3 4 5 7 7 8 8 8 7 7 8 7 8 7 6 6
8 9 9 9 9 8 9 9 8 8 8 9 7 6 6 6 5 6 6 4 6 6 4 5 4 4 6 7 7 7 7 8 8 9 8 8 8 8 7 6 5 5 5
7 9 9 8 8 8 7 8 8 8 7 7 8 8 8 6 6 5 6 6 6 6 5 5 5 8 8 8 8 8 8 9 8 8 8 7 6 6 5 5 5 4 5
7 8 9 10 8 8 8 7 7 6 5 6 7 7 7 7 7 7 6 6 6 6 6 8 8 8 8 9 8 8 9 7 8 7 7 6 5 4 4 3 3 3 3
9 7 8 9 8 8 8 8 6 5 6 7 8 8 7 8 8 8 8 8 8 8 8 8 8 8 9 9 8 7 6 6 5 4 3 2 2 2 1 0 -0 -1 -1
9 8 8 8 8 9 9 8 9 9 9 8 8 8 8 8 8 8 8 8 8 9 9 8 8 8 7 4 3 2 4 2 1 -0 -0 -1 -1 -3 -3 -3 -3 -4 -4
9 9 9 8 8 8 8 8 8 8 8 8 7 8 8 8 8 8 8 9 8 8 8 7 5 3 1 1 1 0 -1 -2 -3 -3 -3 -4 -4 -4 -5 -5 -6 -6 -6
8 8 9 9 9 9 9 9 8 8 8 8 9 9 9 9 9 8 8 8 8 7 5 2 0 0 -0 -0 -1 -2 -2 -4 -5 -5 -6 -7 -8 -8 -9 -9 -9 -10 -10
8 8 8 8 9 10 9 9 9 9 9 8 8 8 7 7 7 7 7 6 4 2 1 -0 -0 -1 -1 -3 -6 -7 -8 -9 -9 -10 -10 -10 -10 -9 -9 -10 -11 -11 -12
9 8 9 9 9 9 9 9 9 8 8 7 7 5 4 4 2 2 2 2 1 0 -1 -2 -3 -5 -9 -10 -11 -12 -12 -12 -13 -15 -16 -14 -11 -10 -10 -11 -12 -14 -14
9 9 9 9 9 8 9 8 8 8 7 5 4 2 2 1 -0 -1 -1 -1 -2 -2 -5 -9 -10 -12 -13 -15 -18 -19 -18 -16 -16 -17 -16 -14 -13 -14 -14 -15 -16 -15 -14
9 9 9 9 8 8 8 7 7 6 5 3 1 -1 -2 -2 -2 -3 -4 -5 -8 -9 -11 -13 -13 -13 -14 -16 -16 -14 -14 -16 -17 -17 -18 -18 -18 -18 -19 -19 -19 -20 -19
8 7 7 6 6 5 5 3 1 1 1 -1 -1 -3 -3 -4 -5 -7 -11 -12 -15 -17 -19 -18 -16 -14 -14 -15 -14 -16 -19 -20 -21 -22 -23 -22 -21 -20 -22 -24 -24 -24 -23
6 5 3 3 2 1 0 -1 -1 -2 -2 -3 -3 -3 -6 -7 -7 -10 -18 -19 -21 -22 -20 -18 -17 -17 -17 -19 -21 -23 -23 -23 -24 -23 -22 -23 -24 -24 -24 -23 -22 -22 -22
4 1 1 -0 -0 -1 -1 -3 -2 -3 -3 -4 -5 -6 -7 -11 -19 -34 -34 -25 -21 -21 -20 -24 -27 -27 -27 -26 -25 -25 -25 -26 -26 -24 -24 -24 -24 -24 -23 -23 -22 -21 -21
0 -1 -2 -2 -2 -3 -3 -6 -6 -6 -6 -6 -6 -6 -17 -33 -39 -40 -35 -29 -25 -21 -27 -28 -27 -27 -27 -25 -26 -26 -26 -26 -25 -25 -25 -24 -23 -23 -23 -22 -21 -22 -22
-4 -4 -4 -4 -4 -4 -4 -4 -7 -9 -8 -9 -20 -35 -37 -32 -20 -32 -28 -31 -27 -26 -30 -27 -26 -25 -25 -24 -25 -25 -25 -26 -25 -25 -24 -23 -23 -23 -23 -23 -23 -22 -22
-3 -4 -5 -5 -4 -5 -5 -6 -6 -7 -16 -27 -27 -29 -30 -31 -28 -26 -25 -25 -27 -27 -26 -25 -25 -25 -25 -25 -27 -27 -27 -26 -25 -24 -24 -23 -23 -23 -23 -23 -23 -22 -22
-4 -5 -6 -7 -6 -6 -6 -8 -20 -24 -22 -18 -18 -19 -21 -28 -29 -29 -29 -31 -29 -27 -26 -26 -26 -26 -27 -28 -28 -27 -26 -25 -24 -24 -24 -23 -23 -22 -23 -23 -23 -22 -22
-5 -5 -5 -7 -8 -10 -18 -22 -23 -24 -23 -20 -19 -20 -21 -25 -28 -29 -29 -29 -29 -29 -27 -28 -28 -28 -29 -28 -26 -25 -25 -24 -24 -23 -23 -22 -22 -22 -22 -22 -22 -22 -23
-7 -8 -8 -11 -18 -21 -22 -26 -33 -33 -25 -23 -24 -24 -25 -27 -27 -29 -30 -30 -30 -29 -30 -29 -29 -29 -27 -25 -25 -24 -24 -23 -22 -22 -22 -22 -22 -22 -21 -22 -22 -22 -23
-7 -13 -19 -20 -21 -23 -24 -24 -26 -28 -28 -28 -26 -25 -26 -30 -30 -30 -30 -30 -30 -30 -30 -29 -28 -26 -26 -25 -24 -23 -23 -22 -22 -22 -21 -21 -21 -21 -21 -21 -22 -22 -23
-26 -25 -25 -24 -25 -24 -23 -23 -25 -25 -25 -24 -26 -28 -29 -30 -30 -30 -30 -29 -29 -29 -28 -27 -26 -25 -25 -24 -23 -23 -22 -22 -21 -21 -21 -20 -20 -20 -20 -21 -21 -22 -22
-30 -28 -27 -25 -24 -25 -25 -23 -23 -24 -25 -27 -29 -29 -29 -29 -30 -29 -28 -28 -27 -27 -27 -26 -25 -25 -24 -23 -23 -22 -22 -21 -21 -20 -20 -20 -20 -20 -20 -20 -21 -22 -22
-30 -30 -29 -28 -27 -27 -26 -26 -26 -27 -28 -28 -29 -29 -29 -29 -29 -29 -27 -27 -26 -26 -25 -25 -25 -25 -24 -23 -23 -22 -22 -21 -21 -21 -20 -20 -19 -19 -20 -21 -21 -22 -22
-28 -29 -28 -26 -26 -26 -27 -28 -29 -29 -30 -29 -29 -30 -30 -29 -29 -28 -26 -26 -25 -25 -25 -25 -25 -25 -24 -24 -23 -23 -22 -22 -21 -21 -20 -19 -19 -19 -20 -21 -22 -22 -22

GFSGL_850_dewp_108.txt.gz
Dewpoint
9 10 9 9 9 9 9 9 9 10 10 9 9 9 9 9 8 8 8 7 7 7 5 5 5 5 6 6 6 5 5 6 7 6 6 7 7 8 8 8 7 8 6
4 8 10 9 9 8 9 9 9 9 9 10 10 9 9 9 8 8 7 7 7 6 6 5 5 6 6 6 6 6 6 7 8 8 8 8 8 8 7 7 6 6 6
3 7 9 9 10 9 9 9 9 9 9 8 8 9 8 7 7 7 7 6 6 6 5 5 6 7 6 6 7 8 8 9 9 8 8 7 7 7 7 6 5 5 4
4 6 8 9 9 9 8 9 9 9 8 8 8 8 7 7 7 6 6 5 6 7 7 7 7 7 7 8 8 8 8 8 8 7 6 5 5 5 4 3 3 2 1
4 5 6 8 9 8 8 8 8 8 7 7 7 7 8 8 7 6 6 6 6 7 8 8 8 8 8 8 8 7 6 6 5 5 4 3 2 1 -0 -1 -2 -2 -3
5 6 7 7 8 8 8 8 7 8 7 7 7 7 8 8 8 8 8 8 8 8 8 8 8 7 6 4 3 3 3 3 2 3 1 -0 -2 -3 -4 -5 -5 -6 -6
5 7 7 7 8 8 8 8 8 7 7 7 8 8 9 9 8 8 8 8 8 8 8 8 5 3 2 2 2 1 1 0 1 -0 -2 -5 -6 -7 -8 -8 -9 -10 -10
8 7 8 8 8 9 9 9 8 8 8 8 9 9 9 9 9 8 9 8 8 7 5 3 2 1 0 0 -0 -0 -1 -2 -6 -8 -9 -9 -10 -10 -10 -10 -11 -12 -14
10 9 8 8 9 9 9 9 9 8 8 8 9 9 8 8 8 8 8 8 6 3 1 -1 -1 -1 -1 -1 -2 -4 -9 -10 -11 -13 -15 -16 -12 -10 -11 -12 -15 -17 -20
9 9 9 9 9 9 9 9 9 9 8 8 8 7 7 7 6 6 6 6 4 1 -1 -2 -3 -3 -4 -5 -12 -16 -18 -19 -21 -21 -20 -18 -16 -15 -15 -17 -19 -21 -22
9 9 9 9 9 9 9 9 9 8 8 7 6 5 4 3 1 1 0 0 0 -1 -2 -4 -5 -7 -18 -26 -26 -23 -23 -20 -22 -23 -24 -25 -27 -29 -30 -30 -28 -25 -24
9 9 9 9 10 10 9 9 8 7 6 4 4 2 -0 -2 -2 -2 -2 -2 -3 -3 -5 -8 -16 -31 -28 -21 -22 -23 -23 -26 -29 -31 -32 -32 -31 -31 -30 -29 -29 -28 -27
8 8 8 8 8 8 8 6 5 4 4 2 -0 -3 -4 -4 -5 -5 -4 -4 -6 -10 -19 -24 -21 -14 -17 -23 -30 -31 -31 -33 -33 -32 -31 -30 -29 -28 -28 -28 -28 -27 -27
5 5 4 4 3 2 2 -1 -1 -2 -2 -4 -5 -6 -6 -7 -7 -7 -11 -25 -28 -27 -18 -14 -15 -22 -29 -30 -30 -32 -32 -31 -30 -29 -29 -28 -27 -27 -27 -26 -25 -25 -26
3 2 2 1 0 -1 -2 -3 -4 -5 -4 -5 -5 -6 -6 -6 -9 -10 -16 -23 -21 -19 -23 -27 -28 -29 -31 -31 -31 -30 -29 -29 -30 -29 -28 -28 -27 -26 -26 -25 -25 -24 -24
-1 -2 -3 -3 -4 -4 -4 -5 -4 -5 -5 -5 -5 -5 -8 -12 -23 -18 -21 -22 -28 -29 -31 -32 -33 -32 -31 -30 -30 -30 -30 -29 -28 -27 -27 -26 -25 -25 -25 -24 -24 -24 -24
-4 -5 -6 -5 -6 -6 -6 -7 -10 -10 -9 -9 -11 -20 -31 -22 -29 -34 -33 -34 -32 -31 -35 -34 -32 -30 -30 -30 -30 -30 -28 -27 -26 -26 -25 -25 -24 -24 -24 -24 -23 -23 -23
-5 -5 -4 -5 -5 -5 -5 -6 -7 -8 -9 -13 -14 -14 -16 -23 -26 -30 -31 -32 -33 -32 -32 -30 -30 -30 -30 -30 -29 -28 -27 -26 -26 -25 -24 -24 -23 -23 -23 -23 -23 -22 -23
-3 -4 -4 -5 -5 -5 -6 -7 -9 -14 -24 -25 -21 -19 -20 -30 -33 -34 -33 -32 -32 -31 -29 -29 -29 -29 -29 -28 -27 -27 -26 -25 -25 -24 -23 -23 -22 -22 -22 -22 -22 -22 -22
-5 -6 -6 -6 -7 -7 -7 -13 -23 -22 -19 -20 -24 -27 -29 -32 -33 -31 -30 -31 -31 -31 -30 -30 -30 -29 -28 -27 -26 -25 -25 -24 -24 -23 -22 -22 -21 -21 -21 -21 -21 -21 -22
-6 -6 -6 -7 -9 -18 -25 -25 -24 -24 -22 -24 -25 -26 -28 -31 -32 -32 -32 -32 -32 -31 -31 -30 -29 -27 -26 -26 -25 -25 -24 -24 -23 -22 -22 -21 -21 -21 -21 -21 -21 -21 -21
-6 -7 -11 -22 -24 -26 -29 -28 -25 -26 -25 -27 -26 -27 -29 -32 -33 -32 -32 -31 -30 -30 -29 -28 -27 -26 -26 -25 -25 -24 -24 -23 -22 -22 -21 -21 -21 -20 -20 -20 -20 -21 -21
-11 -21 -25 -26 -30 -33 -33 -29 -27 -26 -26 -28 -29 -30 -30 -31 -31 -30 -30 -29 -29 -28 -28 -27 -26 -25 -25 -25 -25 -24 -23 -23 -22 -22 -21 -21 -20 -20 -20 -20 -20 -21 -22
-23 -26 -28 -27 -26 -26 -26 -26 -26 -27 -28 -30 -31 -31 -31 -31 -30 -29 -28 -27 -27 -27 -26 -26 -25 -26 -26 -25 -25 -24 -23 -23 -22 -22 -21 -20 -20 -19 -19 -20 -20 -21 -22
-26 -26 -25 -24 -25 -27 -28 -28 -28 -29 -31 -32 -32 -31 -31 -30 -29 -28 -27 -26 -26 -26 -26 -26 -26 -26 -26 -25 -25 -24 -24 -23 -23 -22 -21 -20 -19 -19 -19 -19 -20 -21 -21
-29 -29 -29 -28 -29 -29 -30 -30 -31 -31 -32 -32 -31 -31 -30 -29 -28 -27 -26 -26 -26 -26 -26 -26 -26 -26 -26 -25 -25 -24 -24 -24 -23 -22 -21 -20 -19 -19 -19 -19 -20 -20 -20

GFSGL_850_dewp_111.txt.gz
Dewpoint
7 8 9 9 10 9 10 9 10 10 10 9 10 10 10 10 10 10 10 8 9 8 8 7 7 7 6 6 7 7 7 7 7 6 5 7 8 8 8 7 8 8 7
6 7 8 9 9 9 9 9 9 9 10 10 10 9 10 10 9 10 9 9 8 7 7 7 7 7 6 6 6 6 6 6 7 7 8 8 8 8 8 8 7 7 6
5 6 8 9 8 9 9 9 9 9 9 9 9 9 9 9 9 9 9 8 8 8 8 7 7 6 6 6 6 7 7 7 7 8 8 7 7 7 7 6 6 5 4
5 5 9 9 8 9 9 9 9 9 9 9 9 9 8 8 9 9 9 8 8 7 8 7 7 6 6 6 7 7 7 7 8 7 6 5 5 4 4 4 3 1 -0
7 6 8 9 9 9 9 9 9 9 9 9 9 9 9 9 9 9 8 7 7 7 7 7 8 7 7 8 8 7 7 5 5 4 3 3 2 2 1 -2 -2 -4 -5
8 7 8 9 9 9 9 8 9 9 9 9 8 8 8 8 8 8 7 7 6 6 6 6 7 7 7 7 6 5 3 3 3 2 1 0 -1 -2 -5 -7 -9 -12 -16
7 8 8 8 9 8 8 8 9 8 8 8 8 8 8 8 8 8 8 7 7 8 8 7 6 5 5 4 2 2 1 1 1 -0 -0 -3 -6 -9 -13 -19 -21 -19 -18
8 8 8 9 9 8 9 8 8 8 8 8 8 8 7 8 8 8 8 8 8 8 7 6 5 3 1 0 0 -0 -1 -1 -2 -5 -12 -16 -19 -21 -21 -22 -21 -20 -28
9 9 9 9 9 8 9 8 8 8 8 8 8 8 8 8 8 8 8 8 8 7 4 2 1 0 -1 -1 -1 -2 -3 -11 -18 -23 -27 -28 -27 -25 -27 -30 -34 -36 -36
6 7 9 9 9 9 9 8 8 8 8 8 7 8 8 8 8 8 8 7 6 3 -1 -2 -2 -1 -2 -2 -5 -19 -25 -27 -26 -25 -25 -29 -34 -34 -35 -34 -33 -33 -31
9 8 8 10 9 9 9 8 8 8 8 8 7 7 6 5 5 4 4 4 1 -2 -3 -4 -4 -4 -9 -22 -28 -30 -36 -35 -32 -34 -36 -36 -35 -34 -34 -33 -32 -31 -30
9 9 9 10 9 9 9 9 8 8 8 7 5 4 2 0 -0 -1 -1 -1 -2 -2 -4 -6 -9 -25 -33 -34 -38 -38 -36 -36 -36 -36 -35 -34 -33 -33 -33 -31 -30 -30 -28
8 9 9 9 9 9 8 7 6 5 4 3 1 -0 -2 -4 -4 -3 -3 -3 -4 -4 -7 -14 -25 -28 -30 -36 -37 -37 -36 -35 -34 -33 -33 -33 -32 -31 -30 -30 -29 -29 -28
7 6 7 7 6 4 3 4 3 1 1 -3 -3 -3 -5 -5 -5 -5 -6 -6 -6 -8 -22 -29 -31 -34 -35 -36 -35 -35 -33 -32 -33 -33 -32 -30 -29 -29 -28 -28 -28 -27 -27
4 3 3 2 1 0 -0 -2 -2 -4 -3 -6 -7 -6 -6 -5 -6 -5 -5 -11 -21 -21 -28 -27 -30 -32 -34 -33 -32 -31 -32 -32 -32 -31 -30 -29 -28 -28 -27 -27 -26 -25 -25
2 0 -1 -1 -2 -3 -4 -5 -4 -4 -4 -4 -4 -5 -6 -6 -7 -12 -19 -25 -27 -29 -31 -31 -32 -32 -31 -31 -31 -31 -31 -31 -30 -29 -28 -27 -27 -26 -25 -25 -24 -24 -24
0 -2 -3 -4 -4 -5 -5 -5 -7 -7 -7 -6 -6 -6 -9 -19 -15 -17 -32 -34 -30 -29 -32 -33 -32 -31 -31 -31 -31 -31 -30 -29 -28 -27 -26 -26 -25 -24 -23 -23 -23 -23 -23
-3 -5 -5 -5 -5 -6 -6 -6 -7 -7 -9 -11 -12 -22 -21 -27 -33 -32 -32 -32 -31 -30 -32 -31 -30 -31 -31 -30 -30 -30 -28 -27 -26 -26 -25 -24 -23 -23 -22 -22 -21 -21 -22
-5 -5 -5 -5 -5 -5 -6 -7 -8 -8 -9 -13 -18 -20 -23 -31 -31 -30 -30 -31 -32 -32 -31 -31 -31 -30 -30 -29 -29 -28 -27 -26 -26 -24 -23 -23 -22 -22 -21 -21 -21 -21 -21
-7 -7 -6 -7 -7 -7 -7 -7 -8 -9 -14 -17 -19 -24 -29 -32 -33 -32 -31 -32 -32 -32 -31 -31 -30 -29 -29 -28 -28 -27 -26 -25 -24 -23 -22 -22 -21 -21 -20 -20 -20 -20 -21
-6 -6 -6 -6 -6 -6 -7 -12 -22 -25 -24 -26 -29 -30 -31 -32 -33 -33 -34 -33 -32 -31 -31 -30 -29 -28 -28 -27 -26 -26 -26 -25 -24 -23 -22 -21 -21 -20 -20 -20 -20 -20 -21
-7 -7 -7 -7 -11 -21 -25 -26 -26 -28 -29 -29 -29 -28 -29 -32 -33 -33 -32 -31 -31 -30 -30 -29 -27 -27 -27 -26 -26 -26 -25 -24 -24 -23 -22 -21 -21 -20 -20 -19 -19 -20 -20
-6 -12 -21 -25 -25 -26 -26 -27 -29 -29 -29 -29 -30 -31 -31 -33 -33 -31 -30 -29 -29 -29 -28 -27 -26 -27 -27 -26 -26 -25 -24 -24 -24 -23 -22 -21 -21 -20 -19 -19 -19 -20 -20
-21 -26 -28 -30 -32 -29 -29 -29 -29 -29 -30 -31 -32 -33 -33 -31 -30 -29 -28 -28 -27 -27 -27 -27 -26 -26 -26 -26 -26 -25 -25 -24 -24 -23 -23 -22 -21 -20 -19 -19 -19 -19 -20
-25 -28 -31 -30 -30 -30 -30 -29 -29 -30 -32 -33 -32 -32 -31 -30 -28 -28 -27 -27 -26 -27 -26 -26 -26 -26 -26 -26 -26 -25 -25 -25 -24 -24 -23 -22 -21 -19 -19 -19 -18 -19 -20
-28 -29 -29 -29 -29 -30 -30 -31 -31 -32 -32 -32 -31 -30 -29 -29 -28 -27 -27 -26 -26 -26 -26 -26 -26 -26 -26 -26 -26 -25 -25 -25 -24 -24 -24 -22 -21 -19 -19 -19 -18 -18 -19

GFSGL_850_dewp_114.txt.gz
Dewpoint
8 8 9 9 8 9 9 9 9 10 10 10 10 10 10 10 10 10 10 9 6 6 7 7 8 8 8 7 6 6 7 7 7 7 6 7 7 7 8 8 8 8 7
8 9 9 9 9 9 9 9 9 9 10 10 10 10 10 10 10 10 10 10 9 8 8 8 8 8 7 7 7 7 7 7 7 6 7 7 7 7 7 7 7 6 6
7 9 8 9 9 8 9 9 9 9 9 10 9 9 9 10 10 10 10 9 9 8 9 8 8 8 7 7 7 7 6 7 7 7 7 7 7 7 5 5 5 5 4
7 9 8 8 9 8 9 9 8 9 9 9 9 9 9 10 9 9 10 9 9 9 8 8 8 7 8 7 7 6 7 7 7 7 7 6 5 5 5 4 3 2 0
8 9 8 8 8 8 8 8 8 8 9 9 8 8 8 9 9 9 9 9 9 9 8 7 8 8 7 7 7 7 7 7 7 6 5 4 3 2 1 2 -0 -3 -7
8 9 9 8 8 8 8 8 8 8 9 9 8 8 8 8 8 9 9 9 8 8 7 7 7 7 7 7 7 7 6 6 5 4 3 2 0 -0 -2 -8 -17 -29 -34
9 8 8 8 8 8 8 8 9 8 8 8 8 8 8 8 8 8 8 8 8 8 7 7 6 6 6 6 5 5 3 3 2 1 0 -1 -3 -7 -20 -29 -35 -37 -37
10 8 8 9 9 8 8 8 8 8 7 7 7 7 7 8 8 8 8 8 7 7 7 6 6 5 3 2 2 1 1 -0 -1 -3 -10 -21 -31 -32 -35 -38 -38 -37 -37
10 8 8 7 8 9 8 8 8 8 8 8 7 7 8 8 8 8 8 8 8 7 5 3 2 1 -1 -1 -1 -1 -2 -5 -14 -28 -35 -36 -37 -37 -37 -36 -37 -37 -38
10 9 8 8 8 8 8 8 8 8 7 7 7 7 7 7 7 8 8 8 7 5 2 -0 -1 -1 -2 -3 -3 -8 -14 -21 -29 -32 -36 -37 -36 -36 -36 -36 -36 -36 -34
10 10 9 9 9 9 8 8 8 7 8 7 7 7 6 6 7 7 6 6 6 3 -1 -3 -4 -4 -5 -8 -14 -23 -34 -37 -37 -37 -37 -36 -36 -36 -35 -34 -33 -32 -31
9 9 9 9 9 9 9 8 8 8 7 7 5 4 3 2 1 1 3 3 1 -0 -4 -5 -6 -6 -7 -14 -33 -39 -38 -37 -36 -35 -35 -35 -34 -34 -34 -33 -31 -30 -28
9 9 9 9 9 9 8 7 7 6 6 5 3 2 -0 -3 -4 -3 -2 -3 -3 -3 -4 -5 -6 -13 -34 -38 -38 -37 -36 -35 -35 -35 -34 -34 -33 -33 -31 -30 -29 -29 -29
6 7 7 6 8 7 6 5 4 3 3 1 2 -1 -4 -4 -4 -5 -5 -4 -4 -4 -7 -16 -30 -30 -33 -37 -35 -34 -34 -34 -34 -33 -33 -32 -30 -29 -28 -27 -27 -27 -28
3 2 3 3 3 4 2 1 1 -0 -0 -2 -3 -4 -4 -5 -5 -4 -4 -6 -7 -8 -11 -18 -28 -35 -35 -34 -34 -34 -34 -33 -32 -32 -31 -29 -27 -26 -26 -25 -24 -24 -24
1 0 -1 -0 -0 -1 -2 -4 -4 -3 -4 -4 -4 -4 -5 -6 -6 -6 -6 -7 -10 -18 -29 -34 -35 -34 -34 -33 -33 -33 -32 -32 -31 -29 -28 -27 -26 -25 -24 -23 -23 -22 -23
-2 -2 -3 -3 -3 -4 -4 -5 -6 -6 -5 -5 -6 -5 -6 -7 -7 -9 -17 -29 -31 -32 -35 -35 -34 -34 -33 -32 -32 -32 -31 -30 -29 -27 -27 -26 -24 -23 -23 -22 -22 -22 -22
-3 -5 -5 -5 -5 -5 -5 -6 -6 -7 -8 -10 -9 -9 -9 -10 -20 -33 -34 -34 -33 -31 -34 -34 -33 -32 -32 -32 -31 -30 -29 -28 -27 -26 -25 -24 -23 -23 -22 -22 -21 -21 -21
-6 -6 -5 -6 -6 -6 -6 -7 -7 -8 -9 -10 -11 -11 -13 -28 -32 -32 -32 -33 -34 -33 -33 -32 -32 -31 -31 -30 -29 -28 -27 -26 -25 -25 -24 -23 -23 -23 -22 -21 -20 -20 -20
-7 -7 -7 -7 -8 -7 -8 -7 -7 -7 -8 -9 -14 -25 -31 -32 -34 -33 -32 -33 -33 -33 -32 -32 -31 -30 -30 -29 -28 -27 -26 -25 -24 -24 -23 -23 -23 -23 -22 -20 -20 -20 -20
-7 -7 -7 -7 -7 -7 -7 -7 -7 -8 -14 -26 -29 -29 -32 -33 -33 -33 -33 -32 -32 -32 -31 -30 -29 -29 -29 -28 -27 -26 -25 -25 -25 -24 -23 -23 -23 -22 -21 -20 -19 -19 -20
-7 -7 -7 -7 -7 -7 -8 -10 -15 -23 -26 -30 -31 -31 -30 -33 -34 -34 -33 -32 -31 -31 -30 -29 -28 -28 -28 -27 -27 -26 -26 -25 -25 -24 -24 -23 -22 -21 -20 -20 -19 -19 -20
-7 -7 -7 -8 -9 -13 -22 -25 -27 -29 -30 -31 -32 -32 -32 -33 -33 -32 -31 -30 -29 -29 -29 -28 -28 -27 -27 -27 -27 -26 -25 -25 -25 -25 -25 -24 -22 -21 -20 -19 -19 -19 -19
-7 -8 -12 -20 -24 -25 -26 -28 -29 -30 -31 -32 -32 -33 -32 -31 -30 -29 -29 -28 -28 -28 -28 -27 -27 -27 -27 -27 -26 -26 -26 -26 -26 -25 -25 -24 -23 -21 -20 -19 -19 -18 -18
-23 -25 -27 -28 -27 -28 -29 -29 -30 -30 -32 -32 -33 -32 -31 -30 -29 -28 -28 -27 -27 -27 -27 -27 -27 -26 -26 -26 -26 -26 -26 -26 -25 -25 -25 -24 -23 -22 -20 -19 -19 -19 -18
-30 -31 -30 -29 -29 -29 -29 -30 -30 -31 -32 -32 -31 -31 -30 -29 -29 -28 -28 -28 -27 -27 -26 -26 -26 -26 -26 -26 -26 -26 -26 -25 -25 -25 -25 -25 -24 -22 -20 -19 -19 -18 -18

GFSGL_850_dewp_117.txt.gz
Dewpoint
11 10 8 8 9 9 8 9 9 9 9 9 10 10 10 10 10 10 10 10 10 2 -2 -1 4 8 7 7 7 7 6 6 6 5 7 6 7 7 7 7 7 7 7
10 9 8 9 9 9 8 9 9 9 9 10 10 10 10 10 10 10 10 9 10 7 3 3 4 5 5 6 8 7 7 6 7 7 7 7 7 7 7 6 6 5 5
10 9 8 9 9 9 8 9 9 9 9 10 9 9 10 10 10 10 10 9 10 9 9 5 5 6 6 7 8 7 7 7 7 7 7 7 6 6 5 4 3 3 2
9 9 8 9 9 8 8 9 8 8 9 9 9 9 9 9 10 10 9 10 9 9 8 8 6 6 7 8 7 7 7 7 7 7 7 7 6 5 3 2 2 1 -1
10 9 8 8 8 8 8 8 8 8 8 8 8 9 9 9 9 9 9 9 9 9 8 8 8 8 8 8 7 7 7 7 7 7 6 5 3 2 1 0 -1 -4 -11
10 9 8 8 8 8 8 8 8 8 8 9 8 8 8 8 9 9 8 9 9 9 9 8 7 8 7 7 7 7 7 7 6 5 4 2 0 -1 -4 -6 -16 -35 -37
9 9 8 8 8 8 8 8 8 8 8 8 8 8 8 8 8 8 8 9 8 8 8 8 7 7 7 7 7 7 6 5 3 2 1 -1 -3 -12 -32 -39 -39 -39 -39
9 9 9 8 8 8 8 8 8 8 8 8 8 8 8 8 8 8 8 8 8 8 7 7 7 7 5 5 5 4 3 1 -0 -2 -8 -14 -17 -26 -34 -39 -38 -38 -36
9 9 9 8 8 8 8 8 8 8 8 7 7 7 8 8 7 8 8 8 7 7 6 5 4 3 2 1 2 1 -1 -2 -7 -12 -18 -32 -35 -31 -32 -36 -38 -38 -38
9 9 9 8 8 8 8 8 8 8 8 7 7 7 7 8 7 7 7 7 7 6 4 2 0 1 -2 -2 -2 -4 -6 -11 -31 -27 -12 -13 -22 -38 -38 -38 -38 -37 -35
9 9 9 8 8 8 8 8 8 7 8 7 7 7 7 7 7 7 6 6 7 5 2 -1 -3 -3 -3 -5 -9 -20 -19 -14 -7 -14 -35 -37 -37 -37 -37 -36 -35 -34 -33
8 9 8 8 8 8 8 8 8 8 7 7 7 6 6 6 6 6 6 5 3 1 -2 -4 -5 -6 -6 -9 -11 -9 -8 -13 -34 -36 -36 -36 -36 -35 -33 -31 -30 -29 -29
6 7 8 8 8 8 8 8 7 7 7 6 5 5 2 1 0 -0 0 0 -2 -2 -4 -5 -6 -7 -11 -10 -9 -14 -34 -36 -36 -36 -36 -35 -33 -31 -30 -29 -28 -28 -27
6 7 6 7 8 6 6 5 4 5 4 3 3 2 -1 -3 -3 -3 -3 -3 -3 -3 -4 -5 -6 -9 -8 -12 -33 -35 -35 -35 -35 -35 -34 -32 -30 -28 -27 -27 -27 -27 -26
1 1 2 4 3 4 4 3 2 1 3 1 0 -2 -3 -4 -4 -3 -3 -3 -4 -4 -5 -7 -8 -11 -33 -35 -35 -35 -34 -34 -34 -32 -31 -29 -28 -27 -26 -25 -25 -24 -23
-1 -0 -0 -0 0 1 0 -1 -2 -2 -2 -2 -2 -3 -4 -4 -5 -5 -5 -5 -5 -6 -8 -15 -32 -35 -35 -34 -34 -34 -32 -32 -31 -30 -29 -28 -27 -26 -25 -24 -23 -22 -23
-1 -2 -2 -1 -4 -5 -3 -3 -4 -5 -4 -4 -4 -5 -5 -7 -7 -6 -6 -8 -18 -24 -36 -35 -35 -34 -34 -33 -33 -32 -32 -31 -30 -29 -28 -27 -26 -25 -24 -23 -22 -22 -22
-4 -4 -3 -4 -4 -5 -4 -5 -7 -7 -8 -9 -8 -7 -7 -7 -7 -8 -20 -33 -33 -34 -34 -34 -34 -33 -33 -32 -32 -31 -31 -30 -28 -28 -27 -26 -26 -25 -24 -22 -21 -21 -22
-6 -6 -6 -6 -6 -6 -7 -8 -8 -8 -9 -10 -10 -10 -9 -11 -24 -31 -31 -34 -35 -34 -34 -33 -33 -32 -32 -32 -31 -30 -29 -28 -27 -27 -26 -26 -25 -24 -23 -21 -20 -20 -22
-7 -7 -7 -7 -8 -8 -8 -8 -8 -9 -9 -9 -9 -9 -16 -30 -32 -32 -33 -34 -34 -34 -33 -32 -31 -31 -31 -30 -29 -29 -28 -27 -27 -26 -25 -24 -24 -23 -22 -21 -20 -20 -21
-8 -8 -8 -8 -8 -8 -8 -8 -8 -8 -9 -9 -18 -25 -29 -32 -33 -33 -33 -32 -32 -32 -32 -31 -30 -30 -30 -29 -29 -28 -28 -27 -26 -25 -24 -24 -23 -22 -21 -21 -20 -19 -20
-8 -8 -8 -8 -8 -8 -8 -8 -8 -9 -17 -28 -30 -30 -30 -32 -33 -32 -32 -32 -31 -31 -30 -30 -29 -29 -29 -28 -28 -27 -27 -26 -25 -25 -25 -24 -23 -22 -21 -20 -20 -20 -19
-7 -7 -7 -7 -7 -8 -8 -9 -18 -27 -29 -31 -31 -30 -31 -33 -33 -32 -31 -31 -31 -30 -29 -29 -28 -28 -28 -28 -27 -27 -26 -26 -26 -25 -25 -25 -24 -23 -21 -20 -20 -20 -19
-7 -7 -7 -8 -8 -14 -21 -26 -29 -31 -32 -32 -32 -32 -33 -33 -31 -31 -30 -30 -29 -29 -28 -28 -28 -27 -27 -27 -27 -26 -26 -26 -26 -26 -26 -25 -25 -24 -22 -20 -20 -19 -19
-9 -10 -15 -22 -26 -27 -29 -30 -31 -31 -32 -33 -34 -33 -32 -30 -30 -29 -29 -28 -28 -28 -28 -27 -27 -27 -27 -27 -26 -26 -26 -26 -26 -26 -26 -26 -25 -25 -23 -21 -20 -19 -19
-23 -25 -26 -27 -28 -30 -31 -31 -32 -33 -33 -33 -32 -31 -30 -29 -29 -29 -28 -28 -28 -28 -27 -27 -27 -26 -26 -26 -26 -26 -26 -26 -25 -26 -26 -25 -25 -25 -24 -22 -20 -19 -19